[[{"header":{"parameterUnit":"m.s-1","parameterCategory":1,"la1":30.6,"la2":29.2853,"lo1":-89.7004,"lo2":-87.6739,"dy":0.0162,"dx":0.0183,"nx":112,"ny":82,"refTime":"2023-06-12T12:00:00:Z","depth":0,"parameterNumber":2,"parameterNumberName":"U-component_of_WINDS"},"data":[0.0,0.0,0.0,0.0,0.0,0.0,0.0,0.0,0.0,0.0,0.0,0.0,0.0,0.0,0.0,0.0,0.0,0.0,0.0,0.0,0.0,0.0,0.0,0.0,0.0,0.0,0.0,0.0,0.0,0.0,0.0,0.0,0.0,0.0,0.0,0.0,0.0,0.0,0.0,0.0,0.0,0.0,0.0,0.0,0.0,0.0,0.0,0.0,0.0,0.0,0.0,0.0,0.0,0.0,0.0,0.0,0.0,0.0,0.0,0.0,0.0,0.0,0.0,0.0,0.0,0.0,0.0,0.0,0.0,0.0,0.0,0.0,0.0,0.0,0.0,0.0,0.0,0.0,0.0,0.0,0.0,0.0,0.0,0.0,0.0,0.0,0.0,0.0,0.0,0.0,0.0,-1.6908,-1.6908,-1.6908,-1.6908,-1.6908,-1.6908,-1.6908,0.0,0.0,0.0,0.0,0.0,0.0,0.0,0.0,0.0,0.0,0.0,0.0,0.0,0.0,0.0,0.0,0.0,0.0,0.0,0.0,0.0,0.0,0.0,0.0,0.0,0.0,0.0,0.0,0.0,0.0,0.0,0.0,0.0,0.0,0.0,0.0,0.0,0.0,0.0,0.0,0.0,0.0,0.0,0.0,0.0,0.0,0.0,0.0,0.0,0.0,0.0,0.0,0.0,0.0,0.0,0.0,0.0,0.0,0.0,0.0,0.0,0.0,0.0,0.0,0.0,0.0,0.0,0.0,0.0,0.0,0.0,0.0,0.0,0.0,0.0,0.0,0.0,0.0,0.0,0.0,0.0,0.0,0.0,0.0,0.0,0.0,0.0,0.0,0.0,0.0,0.0,0.0,0.0,0.0,0.0,0.0,0.0,0.0,0.0,0.0,0.0,0.0,0.0,0.0,-1.6908,-1.6908,-1.6908,-1.6908,-1.6908,-1.6908,-1.6908,-1.6908,0.0,0.0,0.0,0.0,0.0,0.0,0.0,0.0,0.0,0.0,0.0,0.0,0.0,0.0,0.0,0.0,0.0,0.0,0.0,0.0,0.0,0.0,0.0,0.0,0.0,0.0,0.0,0.0,0.0,0.0,0.0,0.0,0.0,0.0,0.0,0.0,0.0,0.0,0.0,0.0,0.0,0.0,0.0,0.0,0.0,0.0,0.0,0.0,0.0,0.0,0.0,0.0,0.0,0.0,0.0,0.0,0.0,0.0,0.0,0.0,0.0,0.0,0.0,0.0,0.0,0.0,0.0,0.0,0.0,0.0,0.0,0.0,0.0,0.0,0.0,0.0,0.0,0.0,0.0,0.0,0.0,0.0,0.0,0.0,0.0,0.0,0.0,0.0,0.0,0.0,0.0,0.0,0.0,0.0,0.0,0.0,0.0,0.0,0.0,0.0,0.0,0.0,0.0,-1.7568,-1.7568,-1.7568,-1.7568,-1.7568,-1.7568,-1.7367,-1.722,-1.722,-1.7018,0.0,0.0,0.0,0.0,0.0,0.0,0.0,0.0,0.0,0.0,0.0,0.0,0.0,0.0,0.0,0.0,0.0,0.0,0.0,0.0,0.0,0.0,0.0,0.0,0.0,0.0,0.0,0.0,0.0,0.0,0.0,0.0,0.0,0.0,0.0,0.0,0.0,0.0,0.0,0.0,0.0,0.0,0.0,0.0,0.0,0.0,0.0,0.0,0.0,0.0,0.0,0.0,0.0,0.0,0.0,0.0,0.0,0.0,0.0,0.0,0.0,0.0,0.0,0.0,0.0,0.0,0.0,0.0,0.0,0.0,0.0,0.0,0.0,0.0,0.0,0.0,0.0,0.0,0.0,0.0,0.0,0.0,0.0,0.0,0.0,0.0,0.0,0.0,0.0,0.0,0.0,0.0,0.0,0.0,0.0,0.0,0.0,0.0,0.0,0.0,0.0,0.0,-1.8081,-1.8081,-1.8081,-1.8081,-1.8081,-1.8081,-1.7825,-1.7642,-1.7642,-1.7367,0.0,0.0,0.0,0.0,0.0,0.0,0.0,0.0,0.0,0.0,0.0,0.0,0.0,0.0,0.0,0.0,0.0,0.0,0.0,0.0,0.0,0.0,0.0,0.0,0.0,0.0,0.0,0.0,0.0,0.0,0.0,0.0,0.0,0.0,0.0,0.0,0.0,0.0,0.0,0.0,0.0,0.0,0.0,0.0,0.0,0.0,0.0,0.0,0.0,0.0,0.0,0.0,0.0,0.0,0.0,0.0,0.0,0.0,0.0,0.0,0.0,0.0,0.0,0.0,0.0,0.0,0.0,0.0,0.0,0.0,0.0,0.0,0.0,0.0,0.0,0.0,0.0,0.0,0.0,0.0,0.0,0.0,0.0,0.0,0.0,0.0,0.0,0.0,0.0,0.0,0.0,0.0,0.0,0.0,0.0,0.0,0.0,0.0,0.0,0.0,0.0,0.0,-1.8081,-1.8081,-1.8081,-1.8081,-1.8081,-1.8081,-1.8063,-1.8045,-1.8045,-1.8027,0.0,0.0,0.0,0.0,0.0,0.0,0.0,0.0,0.0,0.0,0.0,0.0,0.0,0.0,0.0,0.0,0.0,0.0,0.0,0.0,0.0,0.0,0.0,0.0,0.0,0.0,0.0,0.0,0.0,0.0,0.0,0.0,0.0,0.0,0.0,0.0,0.0,0.0,0.0,0.0,0.0,0.0,0.0,0.0,0.0,0.0,0.0,0.0,0.0,0.0,0.0,0.0,0.0,0.0,0.0,0.0,0.0,0.0,0.0,0.0,0.0,0.0,0.0,0.0,0.0,0.0,0.0,0.0,0.0,0.0,0.0,0.0,0.0,0.0,0.0,0.0,0.0,0.0,0.0,0.0,0.0,0.0,0.0,0.0,0.0,0.0,0.0,0.0,0.0,0.0,0.0,0.0,0.0,0.0,0.0,0.0,0.0,0.0,0.0,0.0,0.0,0.0,-1.8852,-1.8852,0.0,-1.8852,-1.8852,-1.8852,-1.8632,-1.8447,-1.8447,0.0,0.0,0.0,0.0,0.0,0.0,0.0,0.0,0.0,0.0,0.0,0.0,0.0,0.0,0.0,0.0,0.0,0.0,0.0,0.0,0.0,0.0,0.0,0.0,0.0,0.0,0.0,0.0,0.0,0.0,0.0,0.0,0.0,0.0,0.0,0.0,0.0,0.0,0.0,0.0,0.0,0.0,0.0,0.0,0.0,0.0,0.0,0.0,0.0,0.0,0.0,0.0,0.0,0.0,0.0,0.0,0.0,0.0,0.0,0.0,0.0,0.0,0.0,0.0,0.0,0.0,0.0,0.0,0.0,0.0,0.0,0.0,0.0,0.0,0.0,0.0,0.0,0.0,0.0,0.0,0.0,0.0,0.0,0.0,0.0,0.0,0.0,0.0,0.0,0.0,0.0,0.0,0.0,0.0,0.0,0.0,0.0,0.0,0.0,0.0,0.0,0.0,-1.9292,-1.9292,-1.9292,0.0,-1.9292,-1.9292,-1.9292,-1.9054,-1.8907,-1.8907,0.0,0.0,0.0,0.0,0.0,0.0,0.0,0.0,0.0,0.0,0.0,0.0,0.0,0.0,0.0,0.0,0.0,0.0,0.0,0.0,0.0,0.0,0.0,0.0,0.0,0.0,0.0,0.0,0.0,0.0,0.0,0.0,0.0,0.0,0.0,0.0,0.0,0.0,0.0,0.0,0.0,0.0,0.0,0.0,0.0,0.0,0.0,0.0,0.0,0.0,0.0,0.0,0.0,0.0,0.0,0.0,0.0,0.0,0.0,0.0,0.0,0.0,0.0,0.0,0.0,0.0,0.0,0.0,0.0,0.0,0.0,0.0,0.0,0.0,0.0,0.0,0.0,0.0,0.0,0.0,0.0,0.0,0.0,0.0,0.0,0.0,0.0,0.0,0.0,0.0,0.0,0.0,0.0,0.0,0.0,0.0,0.0,0.0,0.0,0.0,0.0,0.0,-1.9311,-1.9311,-1.9311,-1.9311,-1.9311,-1.9311,-1.9292,-1.9292,-1.9292,0.0,0.0,0.0,0.0,0.0,0.0,0.0,0.0,0.0,0.0,0.0,0.0,0.0,0.0,0.0,0.0,0.0,0.0,0.0,0.0,0.0,0.0,0.0,0.0,0.0,0.0,0.0,0.0,0.0,0.0,0.0,0.0,0.0,0.0,0.0,0.0,0.0,0.0,0.0,0.0,0.0,0.0,0.0,0.0,0.0,0.0,0.0,0.0,0.0,0.0,0.0,0.0,0.0,0.0,0.0,0.0,0.0,0.0,0.0,0.0,0.0,0.0,0.0,0.0,0.0,0.0,0.0,0.0,0.0,0.0,0.0,0.0,0.0,0.0,0.0,0.0,0.0,0.0,0.0,0.0,0.0,0.0,0.0,0.0,0.0,0.0,0.0,0.0,0.0,0.0,0.0,0.0,0.0,0.0,0.0,0.0,0.0,0.0,0.0,0.0,0.0,0.0,0.0,-2.0154,-2.0154,-2.0044,-1.9729,-1.971,-1.9622,-1.9329,-1.9292,-1.9292,-1.9292,0.0,0.0,0.0,0.0,0.0,0.0,0.0,0.0,0.0,0.0,0.0,0.0,0.0,0.0,0.0,0.0,0.0,0.0,0.0,0.0,0.0,0.0,0.0,0.0,0.0,0.0,0.0,0.0,0.0,0.0,0.0,0.0,0.0,0.0,0.0,0.0,0.0,0.0,0.0,0.0,0.0,0.0,0.0,0.0,0.0,0.0,0.0,0.0,0.0,0.0,0.0,0.0,0.0,0.0,0.0,0.0,0.0,0.0,0.0,0.0,0.0,0.0,0.0,0.0,0.0,0.0,0.0,0.0,0.0,0.0,0.0,0.0,0.0,0.0,0.0,0.0,0.0,0.0,0.0,0.0,0.0,0.0,0.0,0.0,0.0,0.0,0.0,0.0,0.0,0.0,0.0,0.0,0.0,0.0,0.0,0.0,0.0,0.0,0.0,0.0,0.0,0.0,-2.0521,-2.0521,-2.0429,-2.0149,-2.0131,-2.0021,-1.9806,-1.9641,-1.9549,-1.9549,0.0,0.0,0.0,0.0,0.0,0.0,0.0,0.0,0.0,0.0,0.0,0.0,0.0,0.0,0.0,0.0,0.0,0.0,0.0,0.0,0.0,0.0,0.0,0.0,0.0,0.0,0.0,0.0,0.0,0.0,0.0,0.0,0.0,0.0,0.0,0.0,0.0,0.0,0.0,0.0,0.0,0.0,0.0,0.0,0.0,0.0,0.0,0.0,0.0,0.0,0.0,0.0,0.0,0.0,0.0,0.0,0.0,0.0,0.0,0.0,0.0,0.0,0.0,0.0,0.0,0.0,0.0,0.0,0.0,0.0,0.0,0.0,0.0,0.0,0.0,0.0,0.0,0.0,0.0,0.0,0.0,0.0,0.0,0.0,0.0,0.0,0.0,0.0,0.0,0.0,0.0,0.0,0.0,0.0,0.0,0.0,0.0,0.0,0.0,0.0,0.0,0.0,-2.0631,-2.0631,-2.0613,-2.0576,-2.0576,-2.0558,-2.0479,-2.0149,-1.9948,-1.9948,0.0,0.0,0.0,0.0,0.0,0.0,0.0,0.0,0.0,0.0,0.0,0.0,0.0,0.0,0.0,0.0,0.0,0.0,0.0,0.0,0.0,0.0,0.0,0.0,0.0,0.0,0.0,0.0,0.0,0.0,0.0,0.0,0.0,0.0,0.0,0.0,0.0,0.0,0.0,0.0,0.0,0.0,0.0,0.0,0.0,0.0,0.0,0.0,0.0,0.0,0.0,0.0,0.0,0.0,0.0,0.0,0.0,0.0,0.0,0.0,-1.9705,0.0,0.0,0.0,0.0,0.0,0.0,0.0,0.0,0.0,0.0,0.0,0.0,0.0,0.0,0.0,0.0,0.0,0.0,0.0,0.0,0.0,0.0,0.0,0.0,0.0,0.0,0.0,0.0,0.0,0.0,0.0,0.0,0.0,0.0,0.0,0.0,0.0,0.0,0.0,0.0,0.0,-2.1431,-2.1431,-2.1302,-2.1016,-2.0979,-2.0851,-2.0539,-2.0406,-2.0351,-2.0351,-1.9966,0.0,0.0,0.0,0.0,0.0,0.0,0.0,0.0,0.0,0.0,0.0,0.0,0.0,0.0,0.0,0.0,0.0,0.0,0.0,0.0,0.0,0.0,0.0,0.0,0.0,0.0,0.0,0.0,0.0,0.0,0.0,0.0,0.0,0.0,0.0,0.0,0.0,0.0,0.0,0.0,0.0,0.0,0.0,0.0,0.0,0.0,0.0,0.0,0.0,0.0,0.0,0.0,0.0,0.0,0.0,0.0,0.0,0.0,0.0,0.0,-1.9888,0.0,0.0,0.0,0.0,0.0,0.0,0.0,0.0,0.0,0.0,0.0,0.0,0.0,0.0,0.0,0.0,0.0,0.0,0.0,0.0,0.0,0.0,0.0,0.0,0.0,0.0,0.0,0.0,0.0,0.0,0.0,0.0,0.0,0.0,0.0,0.0,0.0,0.0,0.0,0.0,-2.1687,-2.1687,-2.1614,-2.1394,-2.142,-2.1284,-2.1083,-2.0924,-2.0796,-2.0796,-2.0387,0.0,0.0,0.0,0.0,0.0,0.0,0.0,0.0,0.0,0.0,0.0,0.0,0.0,0.0,0.0,0.0,0.0,0.0,0.0,0.0,0.0,0.0,0.0,0.0,0.0,0.0,0.0,0.0,0.0,0.0,0.0,0.0,0.0,0.0,0.0,0.0,0.0,0.0,0.0,0.0,0.0,0.0,0.0,0.0,0.0,0.0,0.0,0.0,0.0,0.0,0.0,0.0,0.0,-2.4989,-2.5185,-2.5535,-2.5452,-2.5378,-2.5251,-2.3185,-2.1587,-2.0375,-1.9828,0.0,0.0,0.0,0.0,0.0,0.0,0.0,0.0,0.0,0.0,0.0,0.0,0.0,0.0,0.0,0.0,0.0,0.0,0.0,0.0,0.0,0.0,0.0,0.0,-2.09,-2.09,0.0,0.0,0.0,0.0,0.0,0.0,0.0,0.0,0.0,0.0,0.0,0.0,-2.1642,-2.1687,-2.1687,-2.1687,-2.1687,-2.1687,-2.1687,-2.142,-2.1218,-2.1218,-2.0851,-2.0613,0.0,0.0,0.0,0.0,0.0,0.0,0.0,0.0,0.0,0.0,0.0,0.0,0.0,0.0,0.0,0.0,0.0,0.0,0.0,0.0,0.0,0.0,0.0,0.0,0.0,0.0,0.0,0.0,0.0,0.0,0.0,0.0,-2.4912,-2.4458,0.0,0.0,0.0,0.0,0.0,0.0,0.0,0.0,0.0,0.0,0.0,0.0,0.0,-2.4858,-2.6192,-2.6213,-2.6474,-2.6933,-2.6933,-2.6977,-2.6977,-2.645,-2.6394,-2.668,-2.5778,0.0,-2.2418,-2.1336,0.0,0.0,0.0,0.0,0.0,0.0,0.0,0.0,0.0,0.0,0.0,0.0,0.0,0.0,0.0,0.0,0.0,0.0,0.0,0.0,0.0,0.0,-2.2584,-2.2584,-2.2584,-2.2584,0.0,-2.1742,-2.1145,-2.1467,-2.1577,0.0,0.0,0.0,0.0,0.0,0.0,0.0,-2.1687,-2.1687,-2.1687,-2.1687,-2.1687,-2.1687,-2.1687,-2.1632,-2.1614,-2.1614,-2.1211,-2.1034,-2.1034,-2.0649,0.0,0.0,0.0,0.0,0.0,0.0,0.0,0.0,0.0,0.0,0.0,0.0,0.0,0.0,0.0,0.0,0.0,0.0,0.0,0.0,0.0,0.0,0.0,0.0,0.0,0.0,0.0,0.0,0.0,-2.5167,-2.5781,-2.5841,-2.5805,-2.5564,0.0,0.0,0.0,0.0,0.0,0.0,0.0,0.0,0.0,-2.5666,-2.5666,-2.6234,-2.7369,-2.7369,-2.7654,-2.8112,-2.8112,-2.8265,-2.8528,-2.825,-2.8369,-2.8774,-2.8055,-2.7222,-2.6256,-2.4315,-2.3285,-2.2901,0.0,0.0,0.0,0.0,-2.1895,-2.2188,-2.1876,-2.2163,0.0,-2.2712,0.0,0.0,0.0,0.0,0.0,0.0,0.0,0.0,0.0,0.0,-2.362,-2.362,-2.362,-2.3565,-2.3279,-2.2803,-2.2327,0.0,-2.154,-2.1197,-2.1288,0.0,0.0,0.0,0.0,-2.1419,-2.1687,-2.1687,-2.1687,-2.1687,-2.1463,-2.1419,-2.1687,-2.1463,-2.1419,-2.1687,-2.1522,-2.1456,-2.1456,-2.1071,-2.0851,0.0,0.0,0.0,0.0,0.0,0.0,0.0,0.0,0.0,0.0,0.0,0.0,0.0,0.0,0.0,0.0,0.0,0.0,0.0,0.0,0.0,0.0,0.0,0.0,0.0,0.0,0.0,0.0,-2.6093,-2.6671,-2.7042,-2.6774,-2.6569,0.0,0.0,0.0,0.0,0.0,0.0,-2.6028,-2.6546,-2.6972,-2.7151,-2.7282,-2.7741,-2.8547,-2.8547,-2.8833,-2.9361,-2.9361,-2.9554,-3.0035,-3.0035,-3.0297,-3.0728,-3.0156,-2.9955,-2.9706,-2.7016,-2.545,-2.4697,-2.4306,-2.3744,-2.3157,-2.2975,-2.3055,-2.3177,-2.3007,-2.3419,-2.4005,-2.4005,-2.4207,-2.4514,-2.4514,0.0,0.0,0.0,0.0,-2.4514,-2.4514,-2.4514,-2.4514,-2.4514,-2.4514,-2.444,-2.4079,-2.3857,-2.3492,0.0,-2.1796,-2.1415,-2.1649,0.0,0.0,0.0,0.0,-2.1257,-2.1463,-2.1419,-2.1329,-2.1329,-2.1132,-2.1132,-2.1508,-2.1311,-2.1329,-2.1687,-2.1687,-2.1687,-2.1687,-2.1394,-2.1273,-2.1273,0.0,0.0,0.0,0.0,0.0,0.0,0.0,0.0,0.0,0.0,0.0,0.0,0.0,0.0,0.0,0.0,0.0,0.0,0.0,0.0,0.0,0.0,0.0,0.0,0.0,0.0,0.0,0.0,0.0,-2.7642,-2.7696,0.0,0.0,0.0,0.0,-2.7111,-2.7156,-2.7008,-2.6605,-2.7435,-2.8156,-2.8683,-2.9142,-2.9576,-3.01,-3.01,-3.0341,-3.0777,-3.0777,-3.104,-3.152,-3.152,-3.1804,-3.2285,-3.2263,-3.2211,-3.1954,-2.8595,-2.7536,-2.8007,-2.7615,-2.7379,-2.7143,-2.6506,-2.5966,-2.5515,-2.49,-2.4941,-2.5271,-2.5271,-2.5341,-2.5359,-2.5359,-2.5359,0.0,0.0,-2.5359,-2.5359,-2.5359,-2.5359,-2.5359,-2.5359,-2.5359,-2.5359,-2.5289,-2.4907,-2.4199,0.0,-2.2848,-2.2688,-2.2245,0.0,-2.2478,-2.1728,-2.1564,-2.144,-2.1095,-2.0654,-2.0382,-2.0382,-2.0727,-2.0997,-2.1042,-2.1419,-2.1687,-2.1687,-2.1687,-2.1687,-2.1687,-2.1668,-2.1668,-2.1668,-2.1291,0.0,0.0,0.0,0.0,0.0,0.0,0.0,0.0,0.0,0.0,0.0,0.0,0.0,0.0,0.0,0.0,0.0,0.0,0.0,0.0,0.0,0.0,0.0,0.0,0.0,0.0,0.0,0.0,-2.9172,-2.9289,0.0,-2.9095,-2.9108,-2.904,-2.8674,-2.85,-2.8556,-2.8944,-2.8722,-2.8914,-2.9685,-2.986,-3.0319,-3.1105,-3.1127,-3.152,-3.2306,-3.2612,-3.2853,-3.2974,-3.2683,-3.2974,-3.3715,-3.309,-3.3145,-3.365,-3.247,-3.1073,-2.9614,-2.889,-2.8248,-2.7705,-2.6897,-2.6469,-2.6318,-2.6352,-2.6278,-2.6151,-2.6151,-2.6151,-2.6151,-2.6151,-2.6151,-2.6151,-2.6151,-2.6151,-2.6151,-2.6151,-2.6151,-2.6151,-2.6151,-2.6151,-2.6078,-2.5855,-2.5642,-2.5281,-2.4615,-2.3534,-2.2733,-2.2863,-2.236,-2.1942,-2.1925,-2.1908,-2.1855,-2.1713,-2.1853,-2.1964,-2.1964,-2.1853,-2.1899,-2.2178,-2.2085,-2.2131,-2.2427,-2.2474,-2.2474,-2.2474,-2.2474,-2.2474,-2.2474,-2.2327,-2.2254,0.0,0.0,0.0,0.0,0.0,0.0,0.0,0.0,0.0,0.0,0.0,0.0,0.0,0.0,0.0,0.0,0.0,0.0,0.0,0.0,0.0,0.0,0.0,0.0,0.0,0.0,-2.9629,-3.0518,-3.0654,-3.0648,-3.0707,-3.0571,-3.0397,-3.0261,-2.988,-2.9829,-3.0233,-2.9851,-2.9714,-3.0005,-3.0406,-3.0882,-3.1434,-3.2041,-3.2765,-3.3573,-3.4054,-3.436,-3.4534,-3.4161,-3.4368,-3.4958,-3.4482,-3.4604,-3.5255,-3.5255,-3.4211,-3.2456,-3.1374,-3.0486,-2.9724,-2.9085,-2.8567,-2.8155,-2.7953,-2.772,-2.7399,-2.694,-2.6793,-2.6756,-2.6628,-2.6591,-2.6591,-2.6591,-2.6591,-2.6591,-2.6591,-2.6591,-2.6591,-2.6591,-2.6591,-2.6518,-2.6278,-2.6223,-2.6096,-2.5892,-2.4607,-2.3644,-2.3931,-2.3302,-2.2681,-2.2545,-2.2509,-2.2355,-2.19,-2.2185,-2.244,-2.244,-2.228,-2.2328,-2.2659,-2.2517,-2.2564,-2.2866,-2.2913,-2.2913,-2.2913,-2.2706,-2.2612,-2.2612,-2.2612,-2.2706,-2.2895,0.0,0.0,0.0,0.0,0.0,0.0,0.0,0.0,0.0,0.0,0.0,0.0,0.0,0.0,0.0,0.0,0.0,0.0,0.0,0.0,0.0,0.0,0.0,-2.8763,-2.9941,-3.1163,-3.1693,-3.1748,-3.2133,-3.3143,-3.1874,-3.1157,-3.1611,-3.1227,-3.0745,-3.0253,-3.0619,-3.0529,-2.9791,-3.0862,-3.1402,-3.1211,-3.2901,-3.4021,-3.4578,-3.498,-3.5539,-3.602,-3.6042,-3.6063,-3.6085,-3.6544,-3.6762,-3.6762,-3.6762,-3.6762,-3.661,-3.5089,-3.4052,-3.3353,-3.3296,-3.2473,-3.1176,-2.9746,-2.9254,-2.9008,-2.766,-2.7196,-2.7123,-2.6738,-2.6628,-2.6628,-2.6609,-2.6609,-2.6609,-2.6591,-2.6591,-2.6591,-2.6591,-2.6591,-2.6591,-2.6591,-2.6591,-2.6591,-2.6591,-2.5949,-2.5451,-2.5451,-2.5381,-2.4881,-2.353,-2.3373,0.0,-2.1672,-2.1586,-2.1634,-2.1634,-2.2018,-2.2286,-2.2286,-2.2731,-2.2986,-2.2986,-2.2986,-2.2986,-2.2986,-2.2476,-2.2173,-2.2173,-2.2173,-2.2476,-2.2968,0.0,0.0,0.0,0.0,0.0,0.0,0.0,0.0,0.0,0.0,0.0,0.0,0.0,0.0,0.0,0.0,0.0,0.0,0.0,0.0,0.0,0.0,-3.1163,-3.0874,-3.1529,-3.225,-3.2779,-3.2879,-3.2534,-3.1661,-3.2532,-3.2381,-3.0619,-3.1572,-3.1723,-3.0308,-3.0179,-3.0307,-3.0716,-3.0405,-3.1491,-3.4284,-3.2917,-3.3557,-3.6248,-3.5897,-3.617,-3.7003,-3.6967,-3.735,-3.799,-3.7417,-3.7543,-3.8248,-3.8248,-3.8248,-3.8011,-3.5532,-3.4419,-3.4185,-3.3482,-3.3214,-3.2876,-3.0856,-3.0331,-3.026,-2.8295,-2.7656,-2.7581,-2.7471,-2.7435,-2.7436,-2.7105,-2.7013,-2.694,-2.6664,-2.6591,-2.6591,-2.6591,-2.6591,-2.6591,-2.6591,-2.6591,-2.6591,-2.6591,-2.6408,-2.6151,-2.5911,-2.5302,-2.4717,-2.4276,-2.4259,0.0,-2.3752,-2.4092,-2.4347,-2.4347,-2.4448,-2.4499,-2.4499,-2.4652,-2.4702,-2.4702,-2.4702,-2.4702,-2.4702,-2.455,-2.4499,-2.4499,-2.4499,-2.4404,0.0,0.0,0.0,0.0,0.0,0.0,0.0,0.0,0.0,0.0,0.0,0.0,0.0,0.0,0.0,0.0,0.0,0.0,0.0,0.0,0.0,0.0,-3.1906,-3.2659,-3.2659,-3.2947,-3.3074,-3.2936,-3.3505,-3.3386,-3.1987,-3.2555,-3.2469,-3.112,-3.1338,-3.1497,-3.1196,-3.0517,-3.0567,-3.1368,-3.084,-3.1599,-3.3741,-3.3933,-3.496,-3.6721,-3.7323,-3.7718,-3.8008,-3.7928,-3.8249,-3.8775,-3.8401,-3.8614,-3.9143,-3.9143,-3.9143,0.0,0.0,0.0,0.0,0.0,-3.4998,-3.4769,-3.2863,-3.2362,-3.2231,-3.0431,-2.9834,-2.9642,-2.8917,-2.8709,-2.8501,-2.7714,-2.7416,-2.7325,-2.694,-2.683,-2.6793,-2.6628,-2.6591,-2.6591,-2.6591,-2.6591,-2.6591,-2.6591,-2.6591,0.0,-2.6261,-2.5809,-2.529,-2.4898,-2.5039,-2.502,-2.4649,-2.505,-2.5414,-2.5414,-2.5414,-2.5414,-2.5414,-2.5414,0.0,0.0,0.0,-2.531,-2.505,-2.505,0.0,0.0,0.0,-2.5045,-2.5032,-2.5032,0.0,0.0,-2.4115,-2.4454,0.0,0.0,0.0,0.0,0.0,0.0,0.0,0.0,0.0,0.0,0.0,0.0,0.0,0.0,0.0,0.0,-3.3116,-3.4006,-3.4078,-3.4078,-3.3743,-3.2779,-3.3832,-3.4262,-3.33,-3.2246,-3.1739,-3.2095,-3.1013,-3.081,-3.1887,0.0,0.0,0.0,0.0,-3.1812,-3.2087,-3.5332,-3.6853,-3.6756,-3.8569,-3.928,-3.8862,-3.8906,-3.9054,-3.9201,-3.9491,-3.9688,-3.9752,-3.956,-3.956,-3.9644,-3.9034,-3.8775,-3.8728,-3.7855,-3.7287,-3.6731,-3.5257,0.0,0.0,-3.3105,-3.2589,-3.2213,-3.0587,-3.0026,-2.9642,-2.8364,-2.7987,-2.7877,-2.7416,-2.727,-2.716,-2.6811,-2.6719,-2.6719,-2.6664,-2.6646,-2.6646,-2.6591,-2.6591,-2.6591,-2.6591,-2.6591,-2.63,-2.5487,-2.5755,-2.5753,-2.4968,-2.5302,-2.5653,-2.569,0.0,0.0,-2.569,-2.569,-2.569,-2.569,-2.569,-2.5427,-2.4898,-2.4845,-2.4792,-2.4739,-2.4739,-2.4951,-2.5427,-2.5427,-2.5609,-2.5972,-2.531,-2.5405,0.0,0.0,0.0,0.0,0.0,0.0,0.0,0.0,0.0,0.0,0.0,0.0,0.0,0.0,0.0,-3.3452,-3.379,-3.415,-3.4558,-3.4631,-3.4582,-3.4364,-3.3848,-3.3449,-3.3201,-3.2246,-3.1257,-3.0432,-3.2119,-3.2041,-2.9416,-3.1129,-3.1965,-3.1388,-3.1035,-3.2853,-3.6978,-3.5002,-3.5658,-3.9046,0.0,0.0,-3.9406,-3.9777,-4.0531,-4.1552,-4.0211,-4.0147,-4.0837,-3.9454,-3.941,-4.0039,-3.9165,-3.8775,-3.8753,-3.8619,-3.8488,-3.8106,-3.6361,-3.576,-3.543,-3.3637,-3.2535,-3.1791,-3.1455,-3.0812,0.0,-2.9402,-2.8993,-2.8663,-2.826,-2.7911,-2.7693,-2.762,-2.7601,-2.7509,-2.7141,-2.7068,-2.6976,-2.6646,-2.6591,-2.6591,-2.6591,-2.6591,-2.6554,-2.6372,-2.6408,-2.6554,-2.6683,-2.6774,-2.7013,-2.7326,-2.7362,-2.7362,-2.7362,-2.7362,-2.7362,-2.7362,-2.7362,-2.7082,-2.6388,-2.6388,-2.6105,-2.5594,-2.5537,-2.5594,-2.5708,-2.5708,-2.5743,-2.5851,-2.6099,-2.6516,0.0,0.0,0.0,0.0,0.0,0.0,0.0,0.0,0.0,0.0,0.0,-3.2079,0.0,0.0,-3.3452,-3.391,-3.4222,-3.4486,-3.4751,-3.4775,-3.458,-3.4066,-3.3499,-3.3001,-3.2448,-3.2163,-3.1521,-3.0316,-3.1794,-3.1998,-3.0364,-3.1177,-3.1999,-3.2606,-3.2231,-3.3347,-3.6205,-3.5645,-3.6221,-3.8039,-3.7681,-3.7975,-3.8827,-3.9061,-3.9408,-3.9932,-3.9561,-3.932,-3.9057,-3.8196,-3.8482,-3.943,-3.8959,-3.8958,-3.9187,-3.9187,-3.9034,-3.8647,-3.7711,-3.7415,-3.7288,-3.6304,-3.519,-3.4021,-3.3327,-3.2247,-3.1071,-3.0187,-2.9745,-2.9489,-2.9085,-2.8682,-2.8333,-2.8132,-2.7969,-2.7767,-2.7508,-2.7528,-2.7416,-2.7215,-2.7178,-2.7178,-2.7178,-2.7178,-2.705,-2.6646,-2.6756,-2.6958,-2.7141,-2.7399,-2.7601,-2.7803,-2.7822,-2.7822,-2.7822,-2.7822,-2.7822,-2.7822,-2.7822,-2.7651,-2.7308,-2.7308,-2.7136,-2.6792,-2.6792,-2.6792,-2.6792,-2.6792,-2.6898,-2.7133,-2.7389,-2.732,0.0,0.0,0.0,0.0,0.0,0.0,0.0,0.0,-3.2166,-3.2179,-3.2641,-3.3053,-3.3053,-3.3642,-3.415,-3.415,-3.451,-3.4775,-3.4775,-3.4628,-3.4261,-3.3738,-3.322,-3.2572,-3.1797,-3.1702,-3.1434,-3.0793,-3.1208,-3.1609,-3.1804,-3.1552,-3.2116,-3.3779,-3.3624,-3.3917,-3.4769,-3.6395,-3.7065,-3.6734,-3.8009,-3.8374,-3.8109,-3.8109,-3.8109,-3.8175,-3.8859,-3.8329,-3.6924,-3.726,-3.7996,-3.8814,-3.8946,-3.9302,-3.9754,-3.9754,-3.9449,-3.91,-3.9012,-3.8969,-3.8969,-3.8797,-3.7865,-3.652,-3.5143,-3.3776,-3.2358,-3.0958,-3.0497,-3.0332,-2.991,-2.9507,-2.914,-2.8828,-2.848,-2.8223,-2.8189,-2.8116,-2.8042,-2.7893,-2.782,-2.7822,-2.7822,-2.7822,-2.7601,-2.6921,-2.7086,-2.7325,-2.7398,-2.7691,-2.7969,-2.7985,-2.8003,-2.8003,-2.8003,-2.8003,-2.8003,-2.8003,-2.8003,-2.7946,-2.7831,-2.7831,-2.7773,-2.7658,-2.7658,-2.7658,-2.7658,-2.7658,-2.7821,-2.8147,-2.8147,-2.7791,-3.415,-3.4441,-3.3793,-3.2326,-3.2449,-3.2918,0.0,0.0,-3.3073,-3.3153,-3.3523,-3.3861,-3.3861,-3.4342,-3.4703,-3.4703,-3.4751,-3.4775,-3.4775,-3.3967,-3.3884,-3.5175,-3.3224,-3.1892,-3.2101,-3.0414,-2.9808,-3.1065,-3.1629,-3.1656,-3.1072,-3.2304,-3.3173,-3.3411,-3.3814,-3.5022,-3.7085,-3.6489,-3.6729,-3.7914,-3.6856,-3.6944,-3.8109,-3.8109,-3.8772,-3.9866,-3.943,-3.8175,-3.6654,-3.8262,-3.9012,-3.921,-3.9888,-4.017,-4.0192,-4.0192,-4.017,-4.0061,-3.9688,-3.9535,-3.9406,-3.8969,-3.808,-3.6979,-3.5892,-3.4798,-3.3658,-3.2236,-3.1543,-3.1157,-3.0754,-3.0369,-3.0057,-3.0002,-2.9965,-2.9819,-2.9512,-2.9104,-2.8737,-2.8388,-2.8022,-2.7822,-2.7822,-2.7822,-2.7785,-2.7711,-2.773,-2.7838,-2.8205,-2.8297,-2.8462,-2.881,-2.8847,-2.8847,-2.8847,-2.8847,-2.8847,-2.8847,-2.8847,-2.861,-2.7997,-2.8015,-2.7716,-2.7116,-2.7116,-2.7116,-2.7116,-2.7116,-2.7134,-2.7185,-2.7185,-2.7751,-3.3475,-3.4058,0.0,0.0,-3.3847,-3.4053,-3.4055,-3.4082,-3.4149,-3.4161,-3.434,-3.4462,-3.4462,-3.4631,-3.4775,0.0,-3.4775,-3.4775,-3.4775,-3.4671,-3.4333,-3.3708,-3.2923,-3.2481,-3.2678,-3.1508,-3.0656,-3.0634,-3.1958,-3.2296,-3.1309,-3.2593,-3.3528,-3.3769,-3.4473,-3.5468,-3.6596,-3.6189,-3.6287,-3.6876,-3.6287,-3.6287,-3.6876,-3.6876,-3.7461,-3.8308,-3.7173,-3.7106,-3.7755,-3.7909,-3.8573,-3.9495,-3.9823,-4.0105,-4.0279,-4.0279,-4.0279,-4.0257,-4.0104,-4.0038,-3.993,-3.9733,-3.8358,-3.6681,-3.6224,-3.4797,-3.3132,-3.2519,-3.2221,-3.2056,-3.1891,-3.1543,-3.1249,-3.1249,-3.1066,-3.0772,-3.0369,-3.0149,-2.991,-2.9525,-2.9104,-2.8869,-2.8869,-2.8627,-2.848,-2.848,-2.8278,-2.8187,-2.837,-2.859,-2.8792,-2.8975,-2.8975,-2.8975,-2.8975,-2.8975,-2.8975,-2.8975,-2.8975,-2.8856,-2.8618,-2.8558,-2.8439,-2.814,-2.814,-2.814,-2.814,-2.814,-2.814,-2.814,-2.7779,-2.808,-3.3267,0.0,0.0,-3.4896,-3.5052,-3.5132,-3.5086,-3.5087,-3.5125,-3.503,-3.4943,-3.492,-3.492,-3.4823,0.0,-3.4775,-3.4775,-3.4823,-3.4967,-3.5129,-3.4633,-3.3265,-3.2855,-3.276,-3.2889,-3.2058,-3.1349,-3.0923,-3.2105,-3.2609,-3.2197,-3.2979,-3.3672,-3.4219,-3.5,-3.5586,-3.6016,-3.6016,-3.6016,-3.6016,-3.6016,-3.6016,-3.6016,-3.6016,-3.6287,-3.6742,-3.5675,-3.6248,-3.7822,-3.722,-3.8021,-3.9605,-3.9801,-4.0279,-4.0841,-4.0669,-4.0474,-4.0279,-4.0279,-4.0279,-4.0279,-4.0279,-3.902,-3.7349,-3.6754,-3.5273,-3.3707,-3.2924,-3.2771,-3.2735,-3.2625,-3.2386,-3.2166,-3.2166,-3.1928,-3.1634,-3.1341,-3.1194,-3.1047,-3.0754,-3.0277,-2.991,-2.991,-2.958,-2.9287,-2.9159,-2.8902,-2.8682,-2.8572,-2.881,-2.8975,-2.8975,-2.8975,-2.8975,-2.8975,-2.8975,-2.903,-2.914,-2.914,-2.9195,-2.9324,-2.9324,-2.9324,-2.9324,-2.9324,-2.9324,-2.9324,-2.9324,-2.9324,-2.9324,-2.8823,-2.8902,0.0,0.0,-3.6522,-3.5688,-3.5931,-3.626,-3.6001,-3.5978,-3.5883,-3.5644,-3.5356,-3.5187,-3.5187,-3.4969,-3.4775,-3.4775,-3.4775,-3.4967,-3.5521,-3.4668,-3.4354,-3.5214,-3.3388,-3.2238,0.0,-3.1231,-3.0943,-3.2509,-3.1956,-3.2217,-3.3731,-3.355,-3.3809,-3.4648,-3.5137,-3.5586,-3.6016,-3.6016,-3.6016,-3.6016,-3.6016,-3.6016,-3.6016,-3.6016,-3.6016,-3.6016,-3.6016,-3.6016,-3.6152,-3.6809,-3.7929,-3.9299,-3.9953,-4.1055,-4.2166,-4.1486,-4.0864,-4.0279,-4.0279,-4.0279,-4.0279,-4.0279,-4.0257,-3.9779,-3.7642,-3.6951,-3.6313,-3.3848,-3.3211,-3.3101,-3.2698,-3.2588,-3.257,-3.257,-3.257,-3.2551,-3.2551,-3.2239,-3.1964,-3.1946,-3.1304,-3.0754,-3.0754,-3.0424,-3.002,-2.9617,-2.9544,-2.9397,-2.9012,-2.8975,-2.8975,-2.8975,-2.8975,-2.8975,-2.8975,-2.8975,-2.914,-2.9586,-2.9562,-2.9745,-3.0149,-3.0167,-3.0167,-3.0167,-3.0167,-3.0167,-3.0167,-3.0167,-3.0167,-3.0167,-3.0167,-3.0167,-3.4635,0.0,-3.5973,-3.6074,-3.6279,-3.6358,-3.6263,-3.6146,-3.5955,-3.586,-3.5373,-3.4938,-3.4938,-3.4748,-3.4557,-3.4557,-3.4703,-3.5016,-3.5545,-3.5604,-3.5235,-3.432,-3.3823,0.0,0.0,0.0,0.0,-3.1441,-3.1781,-3.2311,-3.3152,-3.3843,-3.4551,-3.5137,-3.5586,-3.5879,-3.6016,-3.6016,-3.6016,-3.6016,-3.6016,-3.6016,-3.6016,-3.6016,-3.6016,-3.6016,-3.6016,-3.6539,-3.7394,-3.7662,-3.8838,-4.0452,-3.9823,-4.0668,-4.2102,-4.0517,-4.0647,-4.1463,-4.0604,-4.0279,-4.0279,-4.0279,-3.9801,-3.9078,-3.8329,-3.7126,-3.5802,-3.4918,-3.4147,-3.3578,-3.345,-3.3413,-3.3413,-3.3413,-3.3413,-3.3321,-3.3065,-3.29,-3.2735,-3.2441,-3.1964,-3.1506,-3.1231,-3.0846,-3.0461,-3.0057,-2.9525,-2.9232,-2.936,-2.9379,-2.947,-2.9764,-2.98,-2.98,-2.98,-2.98,-2.9837,-2.9984,-2.9984,-3.0057,-3.0185,-3.0204,-3.0204,-3.0204,-3.0204,-3.0204,-3.0204,-3.0204,-3.0204,-3.0204,-2.9769,-2.9751,-3.5167,-3.5382,-3.5906,-3.6329,-3.6405,-3.6405,-3.6405,-3.6288,-3.6096,-3.5849,-3.5338,-3.49,-3.4656,-3.4328,-3.4167,-3.4337,-3.4631,-3.5039,-3.5785,-3.6362,-3.6015,-3.412,-3.4195,0.0,0.0,0.0,0.0,-3.1498,-3.1978,-3.2588,-3.3371,-3.426,-3.4922,-3.5371,-3.5801,-3.6016,-3.6016,-3.6016,-3.6016,-3.6016,-3.6016,-3.6016,-3.6016,-3.6016,-3.6016,-3.6016,-3.6016,-3.6471,-3.7348,-3.751,-3.9003,-4.1063,-4.0321,-4.1503,-4.3421,-4.1786,-4.2046,-4.2967,-4.0974,-4.0474,-4.0604,-4.0409,-3.9801,-3.921,-3.8814,-3.7729,-3.6499,-3.6093,-3.5341,-3.4575,-3.4575,-3.4408,-3.4257,-3.4257,-3.4257,-3.4183,-3.3927,-3.3872,-3.3743,-3.3321,-3.2918,-3.2514,-3.2111,-3.1451,-3.0864,-3.0461,-2.9837,-2.9507,-2.9764,-2.98,-2.9892,-3.0167,-3.0204,-3.0204,-3.0204,-3.0204,-3.0259,-3.0406,-3.0406,-3.0479,-3.0626,-3.0626,-3.0626,-3.0626,-3.0626,-3.0626,-3.0626,-3.0626,-3.0626,-3.0626,-3.0185,-3.023,-3.5836,-3.5956,-3.6405,-3.6405,-3.6405,-3.6405,-3.6405,-3.6405,-3.6207,-3.5608,-3.5344,-3.4984,0.0,0.0,-3.3752,-3.4287,-3.4583,-3.5111,-3.6266,-3.6843,-3.6485,0.0,0.0,0.0,0.0,0.0,0.0,-3.2555,0.0,-3.2892,-3.4512,-3.4644,-3.4922,-3.541,-3.582,-3.6016,-3.6016,-3.6035,-3.6074,-3.6094,-3.6094,-3.6094,-3.6094,-3.6094,-3.6094,-3.6094,-3.6094,-3.6094,-3.6113,-3.6543,-3.8357,-4.0934,-4.1236,-4.3169,-4.5589,-4.4854,-4.4659,-4.4389,-4.1436,-4.0865,-4.1318,-4.067,-4.0475,-4.028,-3.9273,-3.8943,-3.8678,-3.7522,-3.6739,-3.6174,-3.6174,-3.5637,-3.5171,-3.5099,-3.5099,-3.5099,-3.5027,-3.5027,-3.4917,-3.4513,-3.4092,-3.3688,-3.3303,-3.2239,-3.1304,-3.0919,-3.0534,-3.0277,-3.0241,-3.0241,-3.0241,-3.0259,-3.0259,-3.0259,-3.0259,-3.0259,-3.0424,-3.0791,-3.0827,-3.0992,-3.1359,-3.1377,-3.1396,-3.1414,-3.1414,-3.1414,-3.1433,-3.1433,-3.1433,-3.1433,-3.1433,-3.1433,-3.5755,-3.5956,-3.6405,-3.6405,-3.6405,-3.6405,-3.6405,-3.6405,-3.6207,-3.5608,-3.5136,-3.4685,0.0,0.0,0.0,-3.4029,-3.4146,0.0,-3.6194,-3.6531,0.0,0.0,0.0,-3.4969,-3.2913,-3.2399,0.0,0.0,-3.2036,-3.2802,-3.4116,-3.453,-3.5059,-3.584,-3.5957,-3.6016,-3.6016,-3.6348,-3.666,-3.6973,-3.6973,-3.6973,-3.6973,-3.6973,-3.6973,-3.6973,-3.6973,-3.6973,-3.6973,-3.709,-3.8225,-3.9699,-3.8743,-4.014,-4.2438,-4.0686,-4.1768,-4.3739,-4.1927,-4.2192,-4.3202,-4.3071,-4.3006,-4.2917,-4.2655,-4.2016,-4.1195,-4.0391,-3.9458,-3.858,-3.7997,-3.7748,-3.7406,-3.6559,-3.6347,-3.6062,-3.5171,-3.5027,-3.499,-3.4899,-3.4293,-3.3688,-3.3303,-3.2698,-3.2148,-3.1744,-3.1616,-3.1322,-3.0717,-3.0644,-3.0754,-3.1047,-3.1084,-3.1084,-3.1084,-3.1084,-3.1121,-3.1231,-3.1231,-3.1267,-3.1377,-3.1377,-3.1524,-3.1836,-3.1854,-3.1983,-3.2276,-3.2276,-3.2276,-3.2276,-3.2276,-3.2276,-3.6063,-3.6132,-3.6405,-3.6405,-3.6405,-3.6355,-3.6056,-3.6006,-3.578,-3.4931,-3.4575,0.0,0.0,0.0,0.0,0.0,0.0,0.0,-3.617,-3.6603,-3.6621,0.0,-3.574,0.0,-3.3572,-3.2514,-3.2107,0.0,-3.2314,-3.2796,-3.4004,-3.4473,-3.5195,-3.6269,-3.6309,-3.6387,-3.6582,-3.6816,-3.707,-3.7305,-3.7305,-3.7305,-3.7305,-3.7305,-3.7305,-3.7305,0.0,-3.7305,-3.7305,-3.75,-3.8457,-3.9716,-3.9081,-4.0194,-4.204,-4.0869,-4.2108,-4.4295,-4.3579,-4.4274,-4.5225,-4.386,-4.3171,-4.2905,-4.2905,-4.2527,-4.197,-4.1521,-4.0767,-3.9952,-3.9556,-3.8879,-3.8117,-3.7474,-3.6899,-3.6321,-3.5686,-3.5559,-3.5504,-3.532,-3.5197,-3.4775,-3.3647,-3.3285,-3.3071,-3.3011,-3.2374,-3.2032,-3.2001,-3.1477,-3.1139,-3.1359,-3.1377,-3.1451,-3.1634,-3.1653,-3.1726,-3.1909,-3.1909,-3.1909,-3.1909,-3.1909,-3.2019,-3.2258,-3.2258,-3.2368,-3.2588,-3.2588,-3.2588,-3.2588,-3.2588,-3.2588,-3.6442,-3.6405,-3.6405,-3.6405,-3.6405,-3.6254,-3.5633,-3.5508,-3.5157,-3.4022,0.0,0.0,-3.3068,0.0,-3.2788,-3.3826,0.0,-3.4511,-3.617,-3.6795,-3.6882,-3.6271,-3.5278,-3.4525,-3.4255,-3.2424,-3.1957,-3.3634,-3.2873,-3.2871,-3.4082,-3.4492,-3.5293,-3.6641,-3.6719,-3.6953,-3.7383,-3.7383,-3.7402,-3.7461,-3.7461,-3.7461,-3.7461,-3.7461,-3.7461,-3.7461,-3.7461,-3.7461,-3.75,-3.7851,-3.8917,-4.0332,-4.0655,-4.17,-4.3032,-4.3032,-4.4001,-4.5278,-4.5278,-4.618,-4.6931,-4.4247,-4.2973,-4.2481,-4.2481,-4.2481,-4.2481,-4.2347,-4.1748,-4.115,-4.108,-3.9678,-3.8336,-3.8117,-3.7236,-3.6423,-3.6201,-3.6349,-3.6386,-3.6126,-3.6546,-3.6335,-3.4719,-3.4311,-3.424,-3.4337,-3.3256,-3.2711,-3.3364,-3.2235,-3.1396,-3.1451,-3.1469,-3.1634,-3.2056,-3.2093,-3.2239,-3.257,-3.2588,-3.2588,-3.2588,-3.2588,-3.2625,-3.268,-3.268,-3.2698,-3.2753,-3.2753,-3.2753,-3.2753,-3.2753,-3.2753,-3.6427,-3.6405,-3.6405,-3.6405,-3.6405,-3.6254,-3.5633,-3.5508,0.0,0.0,0.0,-3.3596,-3.2566,-3.2529,0.0,-3.3826,0.0,0.0,0.0,0.0,-3.6478,0.0,0.0,0.0,0.0,0.0,0.0,0.0,0.0,-3.3613,-3.4531,-3.4668,-3.5293,-3.6641,-3.7012,-3.7383,-3.7812,-3.7812,-3.8008,-3.8359,-3.8359,-3.8359,-3.8359,-3.8359,-3.8359,-3.8359,-3.8359,0.0,-3.8359,-3.8437,-3.9378,-4.0696,-4.0779,-4.17,-4.3032,-4.3032,-4.4001,-4.5278,-4.5278,-4.5843,-4.6583,-4.6684,-4.6613,-4.648,-4.648,-4.648,-4.6347,-4.5745,-4.4619,-4.3429,-4.2827,-4.1559,-4.0074,-3.87,-3.8263,-3.7751,-3.6497,-3.7015,-3.7836,-3.8398,-3.7851,-3.7371,-3.7619,-3.6891,-3.6061,-3.5354,-3.5094,-3.4383,-3.297,-3.1967,-3.1506,-3.1854,-3.1891,-3.2056,-3.2459,-3.2496,-3.2514,-3.2588,-3.2588,-3.2588,-3.2588,-3.2588,-3.2753,-3.3101,-3.312,-3.3266,-3.3596,-3.3596,-3.3596,-3.3596,-3.3596,-3.3596,-3.6405,-3.6405,-3.6405,-3.6405,-3.6405,-3.6179,-3.5257,0.0,0.0,0.0,0.0,-3.3219,-3.2365,0.0,0.0,0.0,0.0,0.0,0.0,0.0,0.0,0.0,0.0,0.0,0.0,0.0,0.0,0.0,0.0,-3.3789,-3.4648,-3.5566,-3.6445,-3.7305,-3.7734,-3.8066,-3.8262,-3.8262,-3.8359,-3.8574,-3.8574,-3.8574,-3.8574,-3.8574,-3.8574,-3.8574,-3.8574,0.0,-3.8647,-3.9405,-4.0177,-4.0871,-4.163,-4.2403,-4.3032,-4.3032,-4.4001,-4.5278,-4.5278,-4.6046,-4.7032,-4.7364,-4.6965,-4.6204,-4.5437,-4.5731,-4.6271,-4.5934,-4.5301,-4.4686,-4.4343,-4.2516,-4.082,-4.0606,-3.9818,-3.8918,-3.817,-3.8971,-3.9562,-3.8695,-3.9014,-3.918,-3.8102,-3.7455,-3.7119,-3.7015,-3.5843,-3.4721,-3.415,-3.3033,-3.2331,-3.2313,-3.2313,-3.2478,-3.2881,-3.2918,-3.301,-3.3211,-3.323,-3.323,-3.323,-3.323,-3.3321,-3.3523,-3.3523,-3.3633,-3.3817,-3.3817,-3.3817,-3.3817,-3.3817,-3.3817,-3.638,-3.6405,-3.6405,-3.6405,-3.6405,-3.6128,-3.4977,-3.468,0.0,0.0,0.0,-3.2867,-3.2164,0.0,0.0,0.0,0.0,0.0,0.0,0.0,0.0,0.0,0.0,0.0,0.0,0.0,0.0,0.0,0.0,0.0,-3.4941,-3.6445,-3.748,-3.791,-3.8359,-3.8574,-3.8574,-3.8574,-3.8574,-3.8574,-3.8574,-3.8574,-3.8574,-3.8574,-3.8574,-3.8574,-3.8574,0.0,0.0,-3.9962,-4.0728,-4.1368,-4.2543,-4.324,-4.3517,-4.3863,-4.4709,-4.5752,-4.5752,-4.6516,-4.7431,-4.7141,-4.6473,-4.5595,-4.4412,-4.4823,-4.5799,-4.5799,-4.5528,-4.5324,-4.5324,-4.3262,-4.1509,-4.2284,-4.1105,-3.9786,-4.0197,-4.0912,-4.0983,-3.9405,-4.0341,-4.0788,-3.8966,-3.8406,-3.8339,-3.8517,-3.6758,-3.5412,-3.5344,-3.4465,-3.3681,-3.3348,-3.2961,-3.29,-3.3321,-3.3358,-3.3486,-3.3798,-3.3817,-3.3817,-3.3817,-3.3817,-3.3817,-3.3817,-3.3817,-3.3817,-3.3817,-3.3817,-3.3817,-3.3817,-3.3817,-3.3817,-3.6279,-3.6405,-3.6405,-3.6405,-3.6405,-3.6128,-3.4977,0.0,0.0,0.0,-3.2315,-3.2784,-3.1662,-3.234,0.0,0.0,0.0,0.0,0.0,0.0,0.0,0.0,0.0,0.0,0.0,0.0,0.0,0.0,0.0,0.0,-3.5879,-3.6777,-3.748,-3.791,-3.8359,-3.8574,-3.8574,-3.8574,-3.8574,-3.8574,-3.8574,-3.8574,-3.8574,-3.8574,-3.8574,-3.8574,-3.8574,0.0,0.0,-3.9261,-4.0392,-4.2823,-4.2962,-4.3863,-4.5278,-4.6583,-4.7165,-4.7298,-4.7298,-4.7364,-4.7298,-4.5978,-4.6315,-4.7298,-4.7165,-4.7165,-4.7298,-4.7298,-4.6315,-4.5278,-4.5278,-4.4092,-4.2753,-4.2522,-4.1084,-4.0197,-4.1862,-4.1813,-4.1622,-4.2532,-4.1997,-4.1693,-4.2538,-4.1792,-4.0542,-3.9243,-3.8859,-3.7759,-3.5383,-3.5468,-3.5743,-3.5704,-3.4128,-3.3321,-3.3725,-3.3762,-3.378,-3.3817,-3.3817,-3.3817,-3.3817,-3.3817,-3.3817,-3.3817,-3.3817,-3.3817,-3.3817,-3.3817,-3.3817,-3.3817,-3.3817,-3.3817,-3.5945,-3.6107,-3.6405,-3.6405,-3.6107,-3.5655,-3.4901,0.0,0.0,-3.2215,-3.2516,-3.2842,-3.2039,-3.2541,-3.337,0.0,0.0,0.0,0.0,0.0,0.0,0.0,0.0,0.0,0.0,0.0,0.0,0.0,0.0,0.0,-3.6758,-3.7344,-3.7871,-3.8301,-3.8476,-3.8574,-3.8574,-3.8574,-3.8574,-3.8574,-3.8574,-3.8574,-3.8574,-3.8574,-3.8574,-3.8574,-3.8574,0.0,0.0,-3.9838,-4.0606,-4.1841,-4.3656,-4.4778,-4.5481,-4.6941,-4.7497,-4.7497,-4.7497,-4.7497,-4.7431,-4.6808,-4.7008,-4.7364,-4.6449,-4.6808,-4.7497,-4.7497,-4.7074,-4.6607,-4.6607,-4.582,-4.4709,-4.3448,-4.3123,-4.3284,-4.4045,-4.3907,-4.3584,-4.2888,-4.2958,-4.2888,-4.2208,-4.1147,-4.0422,-4.0451,-3.8695,-3.7112,-3.6516,-3.6666,-3.636,-3.5145,-3.4721,-3.4576,-3.4727,-3.4144,-3.3817,-3.3817,-3.3817,-3.3817,-3.3817,-3.3817,-3.3817,-3.3817,-3.3817,-3.3817,-3.3817,-3.3817,-3.3817,-3.3817,-3.3817,-3.3817,-3.5927,-3.589,-3.5931,-3.6081,-3.5705,-3.5107,0.0,0.0,0.0,-3.2441,-3.2667,-3.2893,-3.2315,-3.2692,-3.3395,-3.4324,0.0,0.0,0.0,0.0,0.0,0.0,0.0,0.0,0.0,0.0,0.0,0.0,0.0,0.0,-3.7266,-3.7812,-3.8262,-3.8555,-3.8574,-3.8574,-3.8574,-3.8574,-3.8574,-3.8574,-3.8574,-3.8574,-3.8574,-3.8574,-3.8574,-3.8574,-3.8574,0.0,0.0,-3.989,-4.0657,-4.163,-4.3794,-4.4914,-4.5481,-4.6941,-4.7497,-4.7497,-4.7497,-4.7497,-4.7497,-4.7497,-4.7497,-4.7298,-4.6248,-4.6674,-4.7497,-4.7497,-4.7497,-4.7497,-4.7497,-4.6965,-4.6113,-4.4983,-4.5005,-4.5324,-4.5324,-4.5119,-4.4572,-4.3027,-4.3328,-4.3489,-4.2138,-4.1393,-4.0976,-4.1027,-3.9121,-3.7666,-3.7778,-3.7605,-3.6986,-3.5722,-3.5855,-3.5752,-3.5021,-3.4214,-3.3817,-3.3817,-3.3817,-3.3817,-3.3817,-3.3817,-3.3817,-3.3817,-3.3817,-3.3817,-3.3817,-3.3817,-3.3817,-3.3817,-3.3817,-3.3817,-3.633,-3.5782,-3.4831,-3.5382,-3.5107,-3.4575,0.0,0.0,0.0,-3.2441,-3.2667,-3.2893,-3.2315,-3.2692,-3.3269,-3.3822,-3.4374,0.0,0.0,0.0,0.0,0.0,0.0,0.0,0.0,0.0,0.0,0.0,0.0,0.0,-3.7266,-3.8105,-3.8574,-3.8574,-3.8574,-3.8574,-3.8574,-3.8574,-3.8574,-3.8574,-3.8574,-3.8574,-3.8574,-3.8574,-3.8574,0.0,0.0,0.0,0.0,-3.9208,-4.032,-4.2962,-4.3032,-4.3932,-4.5481,-4.6941,-4.7497,-4.7497,-4.7497,-4.7497,-4.7497,-4.7497,-4.7497,-4.7497,-4.7497,-4.7497,-4.7497,-4.7497,-4.7497,-4.7497,-4.7497,-4.6965,-4.654,-4.7298,-4.6338,-4.5324,-4.5324,-4.4709,-4.4043,-4.3302,-4.3184,-4.3184,-4.3184,-4.3556,-4.3057,-4.0651,-4.0666,-4.0415,-3.8773,-3.8147,-3.7933,-3.8347,-3.7895,-3.6563,-3.4043,-3.3817,-3.3817,-3.3817,-3.3817,-3.3817,-3.3817,-3.3817,-3.3817,-3.3817,-3.3817,-3.3817,-3.3817,-3.3817,-3.3817,-3.3817,-3.3817,-3.3817,-3.5752,-3.5652,-3.5487,-3.5062,-3.4575,-3.4123,-3.3947,0.0,0.0,-3.2867,-3.2943,-3.3018,-3.2842,-3.3269,-3.3822,-3.4374,-3.4881,0.0,0.0,0.0,0.0,0.0,0.0,0.0,0.0,0.0,0.0,0.0,0.0,0.0,-3.7285,-3.8105,-3.8574,-3.8574,-3.8574,-3.8574,-3.8574,-3.8574,-3.8574,-3.8574,-3.8574,-3.8574,-3.8574,-3.8574,-3.9136,0.0,0.0,0.0,0.0,-4.1771,-4.2193,-4.3101,-4.4138,-4.4846,-4.5481,-4.6941,-4.7497,-4.7497,-4.7497,-4.7497,-4.7497,-4.7497,-4.7497,-4.7497,-4.7497,-4.7497,-4.7497,-4.7497,-4.7497,-4.7497,-4.7497,-4.7298,-4.7232,-4.7431,-4.7165,-4.6697,-4.6136,-4.5866,-4.5324,-4.4112,-4.4172,-4.4254,-4.3784,-4.3443,-4.2949,-4.2053,-4.144,-4.0887,-4.0321,-4.0565,-4.0227,-3.9,-3.9122,-3.8118,-3.5146,-3.4883,-3.4609,-3.3886,-3.3817,-3.3817,-3.3817,-3.3817,-3.3817,-3.3817,-3.3817,-3.3817,-3.3817,-3.3817,-3.3817,-3.3817,-3.3817,-3.3817,0.0,-3.4868,-3.4562,-3.394,-3.337,0.0,0.0,0.0,0.0,0.0,0.0,-3.3111,-3.3111,-3.352,-3.4073,-3.4625,-3.5132,0.0,0.0,0.0,0.0,0.0,0.0,0.0,0.0,0.0,0.0,0.0,0.0,0.0,-3.7305,-3.8105,-3.8574,-3.8574,-3.8574,-3.8574,-3.8574,-3.8574,-3.8574,-3.8574,-3.8574,-3.8918,-3.9405,-3.8865,-3.9694,0.0,0.0,0.0,0.0,-4.2193,-4.2473,-4.3171,-4.4709,-4.5617,-4.6248,-4.7141,-4.7497,-4.7497,-4.7497,-4.7497,-4.7497,-4.7497,-4.7497,-4.7497,-4.7497,-4.7497,-4.7497,-4.7497,-4.7497,-4.7497,-4.7497,-4.7497,-4.7497,-4.7497,-4.7497,-4.7298,-4.654,-4.657,-4.6349,-4.5119,-4.5319,-4.5588,-4.5118,-4.4185,-4.354,-4.3467,-4.2357,-4.169,-4.1902,-4.1768,-4.1079,-3.9515,-3.9778,-3.8842,-3.5858,-3.5508,-3.507,-3.449,-3.4006,-3.3817,-3.3817,-3.3817,-3.3817,-3.3817,-3.3817,-3.3817,-3.3817,-3.3817,-3.3817,-3.3817,-3.3817,-3.3817,0.0,0.0,0.0,0.0,0.0,0.0,0.0,0.0,0.0,0.0,0.0,0.0,0.0,0.0,-3.4123,-3.465,0.0,0.0,0.0,0.0,0.0,0.0,0.0,0.0,0.0,0.0,0.0,0.0,0.0,0.0,-3.7344,-3.8125,-3.8574,-3.8574,-3.8574,-3.8574,-3.8574,-3.8574,-3.8574,-3.8574,-3.8574,-3.9353,-4.0586,-3.9208,-4.0177,0.0,0.0,0.0,0.0,-4.1226,-4.2052,-4.3448,-4.4914,-4.6315,-4.7497,-4.7497,-4.7497,-4.7497,-4.7497,-4.7497,-4.7497,-4.7497,-4.7497,-4.7497,-4.7497,-4.7497,-4.7497,-4.7497,-4.7497,-4.7497,-4.7497,-4.7497,-4.7497,-4.7497,-4.7521,-4.7346,-4.661,-4.6876,-4.7023,-4.6266,-4.661,-4.6955,-4.6955,-4.5822,-4.4798,-4.4651,-4.3489,-4.2876,-4.3464,-4.222,-4.0995,-4.0196,-4.0124,-3.9103,-3.6591,-3.5868,-3.548,-3.5412,-3.4421,-3.3817,-3.3817,-3.3817,-3.3817,-3.3817,-3.3817,-3.3817,-3.3817,-3.3817,-3.3817,-3.3817,-3.3817,-3.3817,-3.3732,0.0,-3.3417,-3.271,0.0,0.0,0.0,0.0,0.0,0.0,0.0,0.0,0.0,0.0,0.0,0.0,0.0,0.0,0.0,0.0,0.0,0.0,0.0,0.0,0.0,0.0,0.0,0.0,0.0,-3.7441,-3.7754,-3.8281,-3.8574,-3.8574,-3.8574,-3.8574,-3.8574,-3.8574,-3.8574,-3.8574,-3.8574,-3.8793,-3.9136,-3.8793,-3.9622,0.0,0.0,0.0,-4.4298,-4.5481,-4.6113,-4.6449,-4.6874,-4.7232,-4.7497,-4.7497,-4.7497,-4.7497,-4.7497,-4.7497,-4.7497,-4.7497,-4.7497,-4.7497,-4.7497,-4.7497,-4.7497,-4.7497,-4.7497,-4.7497,-4.7497,-4.7497,-4.7497,-4.7497,-4.781,-4.7897,-4.7129,-4.7416,-4.7561,-4.6865,-4.7139,-4.7413,-4.7413,-4.7467,-4.6984,-4.5391,-4.567,-4.5565,-4.4163,-4.3911,-4.355,-4.3021,-4.1934,-4.0896,-3.9887,-3.784,-3.6296,-3.548,-3.4421,-3.3817,-3.3817,-3.3817,-3.3817,-3.3817,-3.3817,-3.3817,-3.3817,-3.3817,-3.3817,-3.3817,-3.3817,-3.3817,-3.3416,-3.3146,-3.2863,-3.2028,-3.1405,-3.116,0.0,0.0,0.0,0.0,0.0,0.0,0.0,0.0,0.0,0.0,0.0,0.0,0.0,0.0,0.0,0.0,0.0,0.0,0.0,0.0,0.0,0.0,0.0,-3.7744,-3.8868,-3.8879,-3.8769,-3.8574,-3.948,-3.948,-3.8574,-3.8574,-3.8574,-3.8574,-3.8574,-3.8918,-3.9622,-3.9622,-4.08,0.0,0.0,0.0,-4.5346,-4.618,-4.6449,-4.6516,-4.7232,-4.7497,-4.7497,-4.7497,-4.7497,-4.7497,-4.7497,-4.7497,-4.7497,-4.7497,-4.7497,-4.7497,-4.7497,-4.7497,-4.7497,-4.7497,-4.7497,-4.7497,-4.7497,-4.7497,-4.7569,-4.781,-4.8074,-4.8295,-4.8103,-4.8511,-4.8728,-4.838,-4.8662,-4.9038,-4.9038,-4.8532,-4.7872,-4.7338,-4.7067,-4.6551,-4.5683,-4.5318,-4.4689,-4.3544,-4.2406,-4.1388,-4.059,-3.8858,-3.7528,-3.6971,-3.5431,-3.454,-3.454,-3.4075,-3.3817,-3.3817,-3.3817,-3.3817,-3.3817,-3.3817,-3.3817,-3.3817,-3.3817,-3.3817,-3.3451,-3.2648,-3.1892,-3.1119,-3.0778,-3.0758,0.0,0.0,0.0,0.0,0.0,0.0,0.0,0.0,0.0,0.0,0.0,0.0,0.0,0.0,0.0,0.0,0.0,0.0,0.0,0.0,0.0,0.0,0.0,-3.8598,-4.048,-3.9907,-3.9293,-3.8938,-4.0544,-4.0492,-3.8647,-3.8793,-3.8793,-3.8574,-3.8574,-3.9333,-4.08,-4.08,-4.2333,-4.4914,0.0,0.0,-4.5346,-4.5549,-4.5617,-4.5752,-4.7008,-4.7497,-4.7497,-4.7497,-4.7497,-4.7497,-4.7497,-4.7497,-4.7497,-4.7497,-4.7497,-4.7497,-4.7497,-4.7497,-4.7497,-4.7497,-4.7497,-4.7497,-4.7497,-4.7569,-4.7738,-4.8171,-4.8411,-4.8652,-4.9109,-4.9614,-4.9998,-4.9998,-5.0383,-5.0696,-5.0696,-4.927,-4.843,-4.9221,-4.7872,-4.6847,-4.6965,-4.6257,-4.5102,-4.3328,-4.2344,-4.1358,-4.0341,-3.9474,-3.8946,-3.8946,-3.6702,-3.5344,-3.5139,-3.4283,-3.3817,-3.3817,-3.3817,-3.3817,-3.3817,-3.3817,-3.3817,-3.3817,-3.3817,-3.3817,-3.3485,-3.2648,-3.1892,-3.1119,-3.0778,-3.0758,0.0,0.0,0.0,0.0,0.0,0.0,0.0,0.0,0.0,0.0,0.0,0.0,0.0,0.0,0.0,0.0,0.0,0.0,0.0,0.0,0.0,0.0,0.0,0.0,-4.2483,-4.1318,-4.0525,-4.0463,-4.074,-4.0187,-3.8647,-3.9838,-3.9838,-3.8574,-3.8574,-3.9333,-4.08,-4.08,-4.17,-4.3448,0.0,-4.5074,-4.5414,-4.6674,-4.7141,-4.7141,-4.7431,-4.7497,-4.7497,-4.7497,-4.7497,-4.7497,-4.7497,-4.7497,-4.7497,-4.7497,-4.7497,-4.7497,-4.7497,-4.7497,-4.7497,-4.7497,-4.7497,-4.7497,-4.7497,-4.7834,-4.8195,-4.8267,-4.8964,-4.9638,-4.9734,-5.0191,-5.0576,-5.0576,-5.0648,-5.0696,-5.0696,-5.0459,-4.989,-4.874,-4.8305,-4.7626,-4.6374,-4.5691,-4.5114,-4.4409,-4.3066,-4.2068,-4.1518,-4.0627,-4.0084,-4.0084,-3.7106,-3.5002,-3.4075,-3.3886,-3.3817,-3.3817,-3.3817,-3.3817,-3.3817,-3.3817,-3.3817,-3.3817,-3.3817,-3.3817,-3.2826,-3.2037,-3.1347,-3.0855,-3.0885,-3.116,0.0,0.0,0.0,0.0,0.0,0.0,0.0,0.0,0.0,0.0,0.0,0.0,0.0,0.0,0.0,0.0,0.0,0.0,0.0,0.0,0.0,0.0,0.0,0.0,-4.4116,-4.2308,-4.1069,-4.082,-4.1048,-4.0349,-3.8647,-4.0871,-4.1226,-3.9766,-3.9766,-4.0586,-4.2052,-4.2823,-4.3587,-4.4367,0.0,-4.6449,-4.6516,-4.7232,-4.7497,-4.7497,-4.7497,-4.7497,-4.7497,-4.7497,-4.7497,-4.7497,-4.7497,-4.7497,-4.7497,-4.7497,-4.7497,-4.7497,-4.7497,-4.7497,-4.7497,-4.7497,-4.7497,-4.7497,-4.7497,-4.7906,-4.8363,-4.8652,-4.9301,-4.995,-5.0263,-5.0527,-5.0696,-5.0696,-5.0696,-5.0696,-5.0696,-5.0696,-5.0483,-4.9771,-4.9627,-4.9101,-4.7479,-4.6833,-4.605,-4.472,-4.3294,-4.2223,-4.1721,-4.0825,-4.0084,-3.9473,-3.7996,-3.6431,-3.4746,-3.4677,-3.4421,-3.3817,-3.3817,-3.3817,-3.3817,-3.3817,-3.3817,-3.3817,-3.3817,-3.3817,-3.211,-3.1378,-3.0889,-3.0806,0.0,-3.1537,0.0,0.0,0.0,0.0,0.0,0.0,0.0,0.0,0.0,0.0,0.0,0.0,0.0,0.0,0.0,0.0,0.0,0.0,0.0,0.0,0.0,0.0,0.0,0.0,-4.5729,-4.3311,-4.1867,-4.1862,-4.1846,-4.1172,-3.9622,-4.1841,-4.2263,-4.08,-4.1155,-4.2123,-4.3587,-4.4778,-4.5481,-4.5911,-4.7008,-4.7497,-4.7497,-4.7497,-4.7497,-4.7497,-4.7497,-4.7497,-4.7497,-4.7497,-4.7497,-4.7497,-4.7497,-4.7497,-4.7497,-4.7497,-4.7497,-4.7497,-4.7497,-4.7497,-4.7497,-4.7497,-4.7593,-4.769,-4.769,-4.8074,-4.8603,-4.9133,-4.9686,-5.0191,-5.06,-5.0696,-5.0696,-5.0696,-5.0696,-5.0696,-5.0696,-5.0696,-5.0625,-5.0483,-5.0412,-4.989,-4.8546,-4.8033,-4.7121,-4.5296,-4.3731,-4.245,-4.1437,-4.0694,-3.9953,-3.9144,-3.8814,-3.7796,-3.5889,-3.5753,-3.5431,-3.4558,-3.4283,-3.4144,-3.4144,-3.3937,-3.3817,-3.3817,-3.3817,-3.3817,-3.1499,-3.0932,-3.0967,-3.1261,0.0,0.0,0.0,0.0,0.0,0.0,0.0,0.0,0.0,0.0,0.0,0.0,0.0,0.0,0.0,0.0,0.0,0.0,0.0,0.0,0.0,0.0,0.0,0.0,0.0,0.0,-4.7298,-4.4527,-4.3562,-4.4937,-4.3631,-4.2844,-4.2683,-4.2892,-4.2263,-4.08,-4.2193,-4.3656,-4.5142,-4.5278,-4.6046,-4.7364,-4.7431,-4.7497,-4.7497,-4.7497,-4.7497,-4.7497,-4.7497,-4.7497,-4.7497,-4.7497,-4.7497,-4.7497,-4.7497,-4.7497,-4.7497,-4.7497,-4.7497,-4.7497,-4.7497,-4.7497,-4.7497,-4.7497,-4.7858,-4.8243,-4.8243,-4.8628,-4.9157,-4.9686,-5.0239,-5.0648,-5.0696,-5.0696,-5.0696,-5.0696,-5.0696,-5.0696,-5.0696,-5.0696,-5.0483,-4.9723,-4.958,-4.9293,-4.8523,-4.8354,-4.7869,-4.6742,-4.5136,-4.315,-4.0607,-4.0323,-4.0279,-4.0214,-3.9276,-3.8129,-3.6924,-3.6836,-3.6856,-3.6789,-3.5753,-3.5275,-3.5275,-3.4283,-3.3817,-3.3817,-3.3817,-3.3817,-3.1856,-3.1182,-3.0826,-3.1291,0.0,0.0,0.0,0.0,0.0,0.0,0.0,0.0,0.0,0.0,0.0,0.0,0.0,0.0,0.0,0.0,0.0,0.0,0.0,0.0,0.0,0.0,0.0,0.0,0.0,0.0,0.0,-4.5549,-4.4709,-4.5278,-4.3794,-4.3032,-4.3032,-4.3932,-4.4161,-4.3609,-4.4161,-4.521,-4.6674,-4.6674,-4.6941,-4.7497,-4.7497,-4.7497,-4.7497,-4.7497,-4.7497,-4.7497,-4.7497,-4.7497,-4.7497,-4.7497,-4.7497,-4.7497,-4.7497,-4.7497,-4.7497,-4.7497,-4.7497,-4.7497,-4.7497,-4.7738,-4.8002,-4.8002,-4.8363,-4.87,-4.8387,-4.894,-4.9614,-4.983,-5.0287,-5.0696,-5.0696,-5.0696,-5.0696,-5.0696,-5.0696,-5.0696,-5.0696,-5.0696,-5.0625,-5.0317,-5.0246,-4.9961,-4.915,-4.9078,-4.8467,-4.6954,-4.4754,-4.2505,-4.0454,-4.0279,-4.0279,-4.0279,-3.9953,-3.921,-3.8063,-3.8063,-3.7729,-3.6991,-3.6567,-3.6093,-3.5412,-3.5002,-3.4471,-3.3817,-3.3817,-3.3817,-3.1729,-3.1138,-3.0834,0.0,0.0,0.0,0.0,0.0,0.0,0.0,0.0,0.0,0.0,0.0,0.0,0.0,0.0,0.0,0.0,0.0,0.0,0.0,0.0,0.0,0.0,0.0,0.0,0.0,0.0,0.0,0.0,-4.6113,-4.5481,-4.5978,-4.4504,-4.3932,-4.4413,-4.5481,-4.5978,-4.5978,-4.5978,-4.6516,-4.7497,-4.7497,-4.7497,-4.7497,-4.7497,-4.7497,-4.7497,-4.7497,-4.7497,-4.7497,-4.7497,-4.7497,-4.7497,-4.7497,-4.7497,-4.7497,-4.7497,-4.7497,-4.7497,-4.7497,-4.7617,-4.7762,-4.7762,-4.8122,-4.8531,-4.8531,-4.8916,-4.9253,-4.8892,-4.9325,-4.9902,-5.0095,-5.0431,-5.0696,-5.0696,-5.0696,-5.0696,-5.0696,-5.0696,-5.0696,-5.0696,-5.0696,-5.0696,-5.0696,-5.0696,-5.0483,-4.9961,-4.989,-4.9133,-4.7167,-4.4686,-4.2502,-4.1021,-4.0497,-4.0279,-4.0279,-4.0279,-3.9801,-3.8747,-3.9012,-3.8681,-3.7528,-3.7193,-3.6856,-3.6431,-3.5412,-3.4677,-3.4283,-3.3937,-3.3817,-3.0943,-3.0633,0.0,0.0,0.0,0.0,0.0,0.0,0.0,0.0,0.0,0.0,0.0,0.0,0.0,0.0,0.0,0.0,0.0,0.0,0.0,0.0,0.0,0.0,0.0,0.0,0.0,0.0,0.0,0.0,0.0,-4.6113,-4.5978,-4.7431,-4.6113,-4.6046,-4.7497,-4.7497,-4.7497,-4.7497,-4.7497,-4.7497,-4.7497,-4.7497,-4.7497,-4.7497,-4.7497,-4.7497,-4.7497,-4.7497,-4.7497,-4.7497,-4.7497,-4.7497,-4.7497,-4.7497,-4.7497,-4.7497,-4.7497,-4.7497,-4.7497,-4.7521,-4.7858,-4.8291,-4.8291,-4.8676,-4.9084,-4.9084,-4.9469,-4.9948,-4.9948,-4.9948,-5.0022,-5.0576,-5.0696,-5.0696,-5.0696,-5.0696,-5.0696,-5.0696,-5.0696,-5.0696,-5.0696,-5.0696,-5.0696,-5.0696,-5.0696,-5.0696,-5.0696,-5.0696,-4.979,-4.753,-4.5285,-4.3428,-4.2208,-4.0999,-4.0344,-4.0344,-4.0279,-3.9801,-3.8747,-3.9735,-3.9822,-3.8747,-3.7595,-3.7528,-3.8681,-3.5363,-3.4352,-3.5344,-3.4283,-3.3817,-3.2137,0.0,0.0,0.0,0.0,0.0,0.0,0.0,0.0,0.0,0.0,0.0,0.0,0.0,0.0,0.0,0.0,0.0,0.0,0.0,0.0,0.0,0.0,0.0,0.0,0.0,0.0,0.0,0.0,0.0,0.0,-4.7074,-4.7008,-4.7497,-4.7074,-4.7074,-4.7497,-4.7497,-4.7497,-4.7497,-4.7497,-4.7497,-4.7497,-4.7497,-4.7497,-4.7497,-4.7497,-4.7497,-4.7497,-4.7497,-4.7497,-4.7497,-4.7497,-4.7497,-4.7497,-4.7497,-4.7497,-4.7497,-4.7497,-4.7497,-4.7569,-4.793,-4.8171,-4.8363,-4.8724,-4.9205,-4.9638,-4.9638,-5.0022,-5.0455,-5.0455,-5.0455,-5.0503,-5.0672,-5.0696,-5.0696,-5.0696,-5.0696,-5.0696,-5.0696,-5.0696,-5.0696,-5.0696,-5.0696,-5.0696,-5.0696,-5.0696,-5.0696,-5.0696,-5.0046,-4.8953,-4.7436,-4.5662,-4.4124,-4.2902,-4.1714,-4.0993,-4.0993,-4.0539,-4.0149,-3.9822,-4.0149,-3.9822,-3.8747,-3.835,-3.7595,-3.6364,-3.5412,-3.4677,-3.4283,-3.3955,-3.3817,0.0,0.0,0.0,0.0,0.0,0.0,0.0,0.0,0.0,0.0,0.0,0.0,0.0,0.0,0.0,0.0,0.0,0.0,0.0,0.0,0.0,0.0,0.0,0.0,0.0,0.0,0.0,0.0,0.0,0.0,0.0,-4.7497,-4.7497,-4.7497,-4.7497,-4.7497,-4.7497,-4.7497,-4.7497,-4.7497,-4.7497,-4.7497,-4.7497,-4.7497,-4.7497,-4.7497,-4.7497,-4.7497,-4.7497,-4.7497,-4.7497,-4.7497,-4.7497,-4.7497,-4.7497,-4.7497,-4.7497,-4.7497,-4.7497,-4.7642,-4.7858,-4.8195,-4.8579,-4.8988,-4.9301,-4.9758,-5.0191,-5.0191,-5.0455,-5.0696,-5.0696,-5.0696,-5.0696,-5.0696,-5.0696,-5.0696,-5.0696,-5.0696,-5.0696,-5.0696,-5.0696,-5.0696,-5.0696,-5.0696,-5.0696,-5.0696,-5.0696,-5.0696,-5.0696,-4.9758,-4.8827,-4.8106,-4.6111,-4.4607,-4.3891,-4.2514,-4.155,-4.1315,-4.1164,-4.0971,-4.0734,-4.0474,-3.9822,-3.8747,-3.8681,-3.8063,-3.6702,-3.5821,-3.5089,-3.4421,-3.4024,-3.3817,0.0,0.0,0.0,0.0,0.0,0.0,0.0,0.0,0.0,0.0,0.0,0.0,0.0,0.0,0.0,0.0,0.0,0.0,0.0,0.0,0.0,0.0,0.0,0.0,0.0,0.0,0.0,0.0,0.0,0.0,0.0,-4.7497,-4.7497,-4.7497,-4.7497,-4.7497,-4.7497,-4.7497,-4.7497,-4.7497,-4.7497,-4.7497,-4.7497,-4.7497,-4.7497,-4.7497,-4.7497,-4.7497,-4.7497,-4.7497,-4.7497,-4.7497,-4.7497,-4.7497,-4.7497,-4.7497,-4.7497,-4.7497,-4.7497,-4.7858,-4.8291,-4.8339,-4.9036,-4.9948,-4.9926,-5.0287,-5.0696,-5.0696,-5.0696,-5.0696,-5.0696,-5.0696,-5.0696,-5.0696,-5.0696,-5.0696,-5.0696,-5.0696,-5.0696,-5.0696,-5.0696,-5.0696,-5.0696,-5.0696,-5.0696,-5.0696,-5.0696,-5.0696,-5.0624,-4.971,-4.9036,-4.894,-4.6584,-4.496,-4.4913,-4.3357,-4.2102,-4.1486,-4.1998,-4.2038,-4.1444,-4.0799,-3.9931,-3.8793,-3.8814,-3.8747,-3.8549,-3.6567,-3.5549,-3.5412,-3.454,-3.4006,0.0,0.0,0.0,0.0,0.0,0.0,0.0,0.0,0.0,0.0,0.0,0.0,0.0,0.0,0.0,0.0,0.0,0.0,0.0,0.0,0.0,0.0,0.0,0.0,0.0,0.0,0.0,0.0,0.0,0.0,-4.7497,-4.7497,-4.7497,-4.7497,-4.7497,-4.7497,-4.7497,-4.7497,-4.7497,0.0,-4.7497,-4.7497,-4.7497,-4.7497,-4.7497,-4.7497,-4.7497,-4.7497,-4.7497,-4.7497,-4.7497,-4.7497,-4.7497,-4.7497,-4.7497,-4.7497,-4.7497,-4.7497,-4.7497,-4.7858,-4.8363,-4.8772,-4.9349,-4.995,-5.0383,-5.06,-5.0696,-5.0696,-5.0696,-5.0696,-5.0696,-5.0696,-5.0696,-5.0696,-5.0696,-5.0696,-5.0696,-5.0696,-5.0696,-5.0696,-5.0696,-5.0696,-5.0696,-5.0696,-5.0696,-5.0696,-5.0696,-5.0551,-5.0095,-4.9469,-4.8772,-4.793,-4.6549,-4.5486,-4.5079,-4.3868,-4.2988,-4.2886,-4.2483,-4.2229,-4.2102,-4.1975,-4.1119,-3.954,-3.9474,-3.8772,-3.7394,-3.7488,-3.6951,-3.5908,-3.6141,-3.5549,0.0,0.0,0.0,0.0,0.0,0.0,0.0,0.0,0.0,0.0,0.0,0.0,0.0,0.0,0.0,0.0,0.0,0.0,0.0,0.0,0.0,0.0,0.0,0.0,0.0,0.0,0.0,0.0,0.0,-4.7497,-4.7497,-4.7497,-4.7497,-4.7497,-4.7497,-4.7497,-4.7497,-4.7497,-4.7497,-4.7497,-4.7497,-4.7497,-4.7497,-4.7497,-4.7497,-4.7497,-4.7497,-4.7497,-4.7497,-4.7497,-4.7497,-4.7497,-4.7497,-4.7497,-4.7497,-4.7497,-4.7497,-4.7497,-4.7497,-4.8002,-4.8724,-4.8988,-4.9614,-5.0335,-5.0624,-5.0696,-5.0696,-5.0696,-5.0696,-5.0696,-5.0696,-5.0696,-5.0696,-5.0696,-5.0696,-5.0696,-5.0696,-5.0696,-5.0696,-5.0696,-5.0696,-5.0696,-5.0696,-5.0696,-5.0696,-5.0696,-5.0479,-5.0191,-4.9902,-4.8964,-4.8098,-4.7569,-4.6319,-4.5366,-4.5101,-4.426,-4.3639,-4.3326,-4.3263,-4.3114,-4.2799,-4.3075,-4.2546,-4.0968,-4.0904,-4.0257,-3.875,-3.919,-3.8333,-3.6499,-3.6816,-3.6161,0.0,0.0,0.0,0.0,0.0,0.0,0.0,0.0,0.0,0.0,0.0,0.0,0.0,0.0,0.0,0.0,0.0,0.0,0.0,0.0,0.0,0.0,0.0,0.0,0.0,0.0,0.0,0.0,0.0,-4.7497,-4.7497,-4.7497,-4.7497,-4.7563,-4.7497,-4.7497,-4.7563,-4.7497,-4.7497,-4.7497,-4.7497,-4.7497,-4.7497,-4.7497,-4.7497,-4.7497,-4.7497,-4.7497,-4.7497,-4.7497,-4.7497,-4.7497,-4.7497,-4.7497,-4.7497,-4.7497,-4.7497,-4.7521,-4.7617,-4.8267,-4.9084,-4.9181,-4.9902,-5.0696,-5.0696,-5.0696,-5.0696,-5.0696,-5.0696,-5.0696,-5.0696,-5.0696,-5.0696,-5.0696,-5.0696,-5.0696,-5.0696,-5.0696,-5.0696,-5.0696,-5.0696,-5.0696,-5.0696,-5.0696,-5.0672,-5.0576,-5.0167,-4.9758,-4.9493,-4.8315,-4.7401,-4.7112,-4.591,-4.5029,-4.4957,-4.4549,-4.4037,-4.3514,-4.395,-4.4037,-4.3514,-4.4037,-4.3764,-4.2673,-4.2546,-4.1952,-4.0968,-4.1097,-3.9845,-3.7421,-3.7467,-3.6634,0.0,0.0,0.0,0.0,0.0,0.0,0.0,0.0,0.0,0.0,0.0,0.0,0.0,0.0,0.0,0.0,0.0,0.0,0.0,0.0,0.0,0.0,0.0,0.0,0.0,0.0,0.0,0.0,-4.7497,-4.7497,-4.7497,-4.7497,-4.763,-4.7894,-4.763,-4.763,-4.7894,-4.763,-4.7497,-4.7497,-4.7497,-4.7497,-4.7497,-4.7497,-4.7497,-4.7497,-4.7497,-4.7497,-4.7497,-4.7497,-4.7497,-4.7497,-4.7497,-4.7497,-4.7497,-4.7497,-4.7497,-4.7569,-4.8026,-4.8579,-4.9157,-4.9614,-5.0191,-5.0696,-5.0696,-5.0696,-5.0696,-5.0696,-5.0696,-5.0696,-5.0696,-5.0696,-5.0696,-5.0696,-5.0696,-5.0696,-5.0696,-5.0696,-5.0696,-5.0696,-5.0696,-5.0696,-5.0696,-5.0696,-5.0527,-5.0046,-4.9996,-4.9373,-4.8002,-4.7642,-4.6968,-4.5597,-4.5197,-4.4885,-4.4429,-4.4333,-4.4285,-4.4161,-4.4223,-4.4285,-4.4161,-4.4223,-4.4223,-4.4037,-4.3451,-4.2799,-4.2079,-4.2673,-4.1569,-3.8904,-3.9474,-3.8221,0.0,0.0,0.0,0.0,0.0,0.0,0.0,0.0,0.0,0.0,0.0,0.0,0.0,0.0,0.0,0.0,0.0,0.0,0.0,0.0,0.0,0.0,0.0,0.0,0.0,0.0,0.0,0.0,-4.7762,-4.7894,-4.8116,-4.8116,-4.8182,-4.8313,-4.796,-4.7828,-4.8026,-4.7696,-4.7497,-4.7497,-4.7497,-4.7497,-4.7497,-4.7497,-4.7497,-4.7497,-4.7497,-4.7497,-4.7497,-4.7497,-4.7497,-4.7497,-4.7497,-4.7497,-4.7497,-4.7497,-4.7497,-4.7569,-4.8098,-4.8628,-4.9157,-4.9686,-5.0239,-5.0696,-5.0696,-5.0696,-5.0696,-5.0696,-5.0696,-5.0696,-5.0696,-5.0696,-5.0696,-5.0696,-5.0696,-5.0696,-5.0696,-5.0696,-5.0696,-5.0696,-5.0696,-5.0696,-5.0696,-5.0696,-5.0503,-4.995,-4.9614,-4.8964,-4.7666,-4.6992,-4.6247,-4.5237,-4.4813,-4.4549,-4.4309,-4.4285,-4.4285,-4.4285,-4.4285,-4.4285,-4.4285,-4.4285,-4.4285,-4.4285,-4.4037,-4.3701,-4.3451,-4.3701,-4.2862,-4.0926,-4.0409,-3.9014,0.0,0.0,0.0,0.0,0.0,0.0,0.0,0.0,0.0,0.0,0.0,0.0,0.0,0.0,0.0,0.0,0.0,0.0,0.0,0.0,0.0,0.0,0.0,0.0,0.0,0.0,0.0,0.0,-4.8158,-4.8313,-4.86,-4.86,-4.8666,-4.8706,-4.8379,-4.8158,-4.8289,-4.796,-4.7786,-4.7786,-4.7696,-4.763,-4.763,-4.7563,-4.7497,-4.7497,-4.7497,-4.7569,-4.769,-4.769,-4.7786,-4.7882,-4.7762,-4.769,-4.769,-4.7545,-4.7497,-4.7593,-4.8267,-4.8748,-4.9181,-4.9854,-5.0359,-5.0696,-5.0696,-5.0696,-5.0696,-5.0696,-5.0696,-5.0696,-5.0696,-5.0696,-5.0696,-5.0696,-5.0696,-5.0696,-5.0696,-5.0696,-5.0696,-5.0696,-5.0696,-5.0696,-5.0696,-5.0576,-5.0311,-4.9758,-4.9109,-4.8291,-4.7233,-4.6295,-4.5525,-4.4933,-4.4525,-4.4285,-4.4285,-4.4285,-4.4285,-4.4285,-4.4285,-4.4285,-4.4285,-4.4285,-4.4285,-4.4285,-4.4285,-4.4285,-4.4285,-4.4285,-4.3451,-4.1761,-4.071,-3.9212,0.0,0.0,0.0,0.0,0.0,0.0,0.0,0.0,0.0,0.0,0.0,0.0,0.0,0.0,0.0,0.0,0.0,0.0,0.0,0.0,0.0,0.0,0.0,0.0,0.0,0.0,0.0,0.0,-4.86,-4.86,-4.86,-4.86,-4.8772,-4.9072,-4.8772,-4.8706,-4.9072,-4.8706,-4.8535,-4.8535,-4.8182,-4.796,-4.796,-4.763,-4.7497,-4.7497,-4.7497,-4.7786,-4.8243,-4.8243,-4.8555,-4.894,-4.8459,-4.8243,-4.8195,-4.769,-4.7497,-4.7642,-4.8676,-4.906,-4.9253,-5.0311,-5.0672,-5.0696,-5.0696,-5.0696,-5.0696,-5.0696,-5.0696,-5.0696,-5.0696,-5.0696,-5.0696,-5.0696,-5.0696,-5.0696,-5.0696,-5.0696,-5.0696,-5.0696,-5.0696,-5.0696,-5.0696,-5.0263,-4.9734,-4.9205,-4.8243,-4.7209,-4.615,-4.5525,-4.4909,-4.4381,-4.4309,-4.4285,-4.4285,-4.4285,-4.4285,-4.4285,-4.4285,-4.4285,-4.4285,-4.4285,-4.4285,-4.4285,-4.4285,-4.4285,-4.4285,-4.4285,-4.2925,-4.0322,-4.0192,-3.8705,0.0,0.0,0.0,0.0,0.0,0.0,0.0,0.0,0.0,0.0,0.0,0.0,0.0,0.0,0.0,0.0,0.0,0.0,0.0,0.0,0.0,0.0,0.0,0.0,0.0,0.0,0.0,0.0,0.0,-4.9007,-4.9227,-4.9227,-4.9292,-4.9396,-4.9072,-4.8902,-4.8772,-4.8641,-4.86,-4.86,-4.8158,-4.8158,-4.8379,-4.796,-4.7828,-4.7828,-4.7828,-4.7986,-4.8291,-4.8291,-4.8603,-4.906,-4.8868,-4.8579,-4.8267,-4.8074,-4.7786,-4.7642,-4.87,-4.9084,-4.9253,-5.0359,-5.0696,-5.0696,-5.0696,-5.0696,-5.0696,-5.0696,-5.0696,-5.0696,-5.0696,-5.0696,-5.0696,-5.0696,-5.0696,-5.0696,-5.0696,-5.0696,-5.0696,-5.0696,-5.0696,-5.06,-5.0239,-4.9998,-4.9445,-4.8243,-4.7738,-4.6992,-4.5597,-4.5197,-4.4861,-4.4333,-4.4285,-4.4285,-4.4285,-4.4285,-4.4285,-4.4285,-4.4285,-4.4285,-4.4285,-4.4285,-4.4285,-4.4285,-4.4285,-4.4285,-4.4285,-4.4285,-4.3389,-4.1505,-4.0603,-3.9146,-3.8421,0.0,0.0,0.0,0.0,0.0,0.0,0.0,0.0,0.0,0.0,0.0,0.0,0.0,0.0,0.0,0.0,0.0,0.0,0.0,0.0,0.0,0.0,0.0,0.0,0.0,0.0,0.0,0.0,0.0,-4.959,-4.959,-4.959,-4.959,-4.9396,-4.9137,-4.8902,-4.8902,-4.8902,-4.8902,-4.8551,-4.8486,-4.8772,-4.8379,-4.8092,-4.8026,-4.8026,-4.8119,-4.8315,-4.8483,-4.8868,-4.9349,-4.9349,-4.9133,-4.8796,-4.8628,-4.8219,-4.7906,-4.8988,-4.9229,-4.9253,-5.0359,-5.0696,-5.0696,-5.0696,-5.0696,-5.0696,-5.0696,-5.0696,-5.0696,-5.0696,-5.0696,-5.0696,-5.0696,-5.0696,-5.0696,-5.0696,-5.0696,-5.0696,-5.0696,-5.0551,-5.0311,-4.9926,-4.9421,-4.8724,-4.7666,-4.704,-4.6319,-4.5197,-4.4909,-4.4669,-4.4333,-4.4285,-4.4285,-4.4285,-4.4285,-4.4285,-4.4285,-4.4285,-4.4285,-4.4285,-4.4285,-4.4285,-4.4285,-4.4285,-4.4099,-4.3639,-4.3639,-4.2925,-4.1569,-4.0127,-3.8772,0.0,0.0,0.0,0.0,0.0,0.0,0.0,0.0,0.0,0.0,0.0,0.0,0.0,0.0,0.0,0.0,0.0,0.0,0.0,0.0,0.0,0.0,0.0,0.0,0.0,0.0,0.0,0.0,-4.9264,-4.9565,-4.959,-4.959,-4.959,-4.959,-4.959,-4.959,-4.959,-4.959,-4.959,-4.959,-4.9267,-4.9137,-4.9072,-4.8772,-4.8379,-4.8026,-4.8026,-4.8119,-4.8382,-4.8912,-4.9466,-4.9948,-4.9948,-4.9948,-4.9875,-4.9301,-4.8772,-4.8459,-4.9493,-4.9517,-4.9277,-5.0359,-5.0696,-5.0696,-5.0696,-5.0696,-5.0696,-5.0696,-5.0696,-5.0696,-5.0696,-5.0696,-5.0696,-5.0696,-5.0696,-5.0696,-5.0696,-5.0696,-5.0672,-5.0672,-5.0239,-4.9854,-4.9875,-4.8507,-4.7473,-4.7449,-4.6126,-4.5053,-4.5053,-4.4597,-4.4285,-4.4285,-4.4285,-4.4285,-4.4285,-4.4285,-4.4285,-4.4285,-4.4285,-4.4285,-4.4285,-4.4285,-4.4285,-4.4285,-4.4285,-4.3576,-4.2293,-4.2356,-4.1569,-4.0127,-3.8705,-3.7327,-3.8492,0.0,0.0,0.0,0.0,0.0,0.0,0.0,0.0,0.0,0.0,0.0,0.0,0.0,0.0,0.0,0.0,0.0,0.0,0.0,0.0,0.0,0.0,0.0,0.0,0.0,0.0,0.0,-4.8912,-4.9163,-4.9565,-4.959,-4.959,-4.959,-4.959,-4.959,-4.959,-4.959,-4.959,-4.959,-4.9267,-4.9202,-4.9461,-4.9072,-4.8877,-4.8812,-4.8812,-4.8715,-4.8541,-4.9266,-4.981,-5.0319,-5.0707,-5.061,-5.0201,-4.9848,-4.9325,-4.8964,-4.9638,-4.9782,-4.9758,-5.0479,-5.0696,-5.0696,-5.0696,-5.0696,-5.0696,-5.0696,-5.0696,-5.0696,-5.0696,-5.0696,-5.0696,-5.0696,-5.0696,-5.0696,-5.0696,-5.0383,-5.0095,-5.0095,-4.9974,-4.9493,-4.8363,-4.7786,-4.7112,-4.5958,-4.5429,-4.4933,-4.4549,-4.4381,-4.4285,-4.4285,-4.4285,-4.4285,-4.4285,-4.4285,-4.4285,-4.4285,-4.4285,-4.4285,-4.4285,-4.4285,-4.4285,-4.4285,-4.3326,-4.2673,-4.2293,-4.3263,-4.2016,-3.8639,-3.726,-3.6336,-3.8202,-3.8202,-3.8202,0.0,0.0,0.0,0.0,-3.6697,0.0,0.0,0.0,0.0,0.0,0.0,0.0,0.0,0.0,0.0,0.0,0.0,0.0,0.0,0.0,0.0,0.0,-4.6326,-4.7054,-4.7707,-4.8159,-4.8661,-4.9213,-4.9464,-4.959,-4.959,-4.959,-4.959,-4.959,-4.959,-4.959,-4.959,-4.9396,-4.9396,-4.959,-4.9396,-4.9267,-4.9072,-4.9072,-4.8902,-4.8674,-4.9664,-5.0166,-5.0372,-5.1153,-5.1181,-5.068,-5.054,-4.9993,-4.9493,-5.0022,-5.007,-4.995,-5.0527,-5.0696,-5.0696,-5.0696,-5.0696,-5.0696,-5.0696,-5.0696,-5.0696,-5.0696,-5.0696,-5.0696,-5.0696,-5.0696,-5.0696,-5.0696,-5.0263,-4.9878,-4.9878,-4.9325,-4.8579,-4.7666,-4.6944,-4.6199,-4.5221,-4.4885,-4.4621,-4.4333,-4.4285,-4.4285,-4.4285,-4.4285,-4.4285,-4.4285,-4.4285,-4.4285,-4.4285,-4.4285,-4.4285,-4.4285,-4.4285,-4.4037,-4.3451,-4.2673,-4.2016,-4.1441,-4.1633,-4.0192,-3.7193,-3.6355,-3.6016,-3.8202,-3.8202,-3.8202,-3.8202,0.0,0.0,-3.6227,-3.6647,-3.6941,0.0,0.0,0.0,0.0,0.0,0.0,0.0,0.0,0.0,0.0,0.0,0.0,0.0,0.0,0.0,-4.4468,-4.5447,-4.6075,-4.62,-4.7205,-4.8109,-4.8736,-4.9238,-4.954,-4.959,-4.959,-4.959,-4.959,-4.959,-4.959,-4.959,-4.959,-4.959,-4.959,-4.959,-4.9461,-4.9137,-4.9137,-4.9007,-4.8805,-5.0198,-5.0578,-5.0364,-5.1447,-5.1586,-5.1282,-5.1211,-5.071,-5.0022,-5.0527,-5.0383,-5.0046,-5.0551,-5.0696,-5.0696,-5.0696,-5.0696,-5.0696,-5.0696,-5.0696,-5.0696,-5.0696,-5.0696,-5.0696,-5.0696,-5.0696,-5.0696,-5.0624,-5.0167,-4.9803,-4.9638,-4.8459,-4.7473,-4.7353,-4.6102,-4.5053,-4.5005,-4.4597,-4.4285,-4.4285,-4.4285,-4.4285,-4.4285,-4.4285,-4.4285,-4.4285,-4.4285,-4.4285,-4.4285,-4.4161,-4.4099,-4.4099,-4.3912,-4.324,-4.2102,-4.1888,-4.1119,-3.9736,-3.8507,-3.7327,-3.6219,-3.6084,-3.6016,-3.8202,-3.8202,-3.8202,0.0,0.0,0.0,-3.7758,-3.7709,-3.7742,0.0,0.0,0.0,0.0,0.0,0.0,0.0,0.0,0.0,0.0,0.0,0.0,0.0,0.0,0.0,-4.3915,-4.4166,-4.4669,-4.5573,-4.6677,-4.7732,-4.8711,-4.8862,-4.9138,-4.959,-4.959,-4.959,-4.959,-4.959,-4.959,-4.959,-4.959,-4.959,-4.959,-4.959,-4.9525,-4.9525,-4.9525,-4.9461,-4.9496,-5.0688,-5.0913,-5.0677,-5.1861,-5.203,-5.1656,-5.1282,-5.0882,-5.0551,-5.0672,-5.0624,-5.0551,-5.0672,-5.0696,-5.0696,-5.0696,-5.0696,-5.0696,-5.0696,-5.0696,-5.0696,-5.0696,-5.0696,-5.0696,-5.0696,-5.0696,-5.0576,-5.0119,-4.9614,-4.8988,-4.8122,-4.7714,-4.7233,-4.6391,-4.5558,-4.4933,-4.4501,-4.4357,-4.4285,-4.4285,-4.4285,-4.4285,-4.4285,-4.4285,-4.4285,-4.4285,-4.4285,-4.4285,-4.4285,-4.3326,-4.2673,-4.2673,-4.1633,-4.0839,-4.0581,-3.9474,-3.8242,-3.6809,-3.6539,-3.6876,-3.7662,-3.6539,-3.6016,0.0,0.0,0.0,-3.8202,0.0,0.0,0.0,-3.7692,-3.7761,0.0,0.0,0.0,0.0,0.0,0.0,0.0,0.0,0.0,0.0,0.0,0.0,0.0,0.0,0.0,-4.3363,-4.3639,-4.4141,-4.4995,-4.5824,-4.6677,-4.7506,-4.7807,-4.8335,-4.9163,-4.9188,-4.9314,-4.959,-4.959,-4.959,-4.959,-4.959,-4.959,-4.959,-4.959,-4.959,-4.959,-4.959,-4.959,-4.969,-5.082,-5.1206,-5.1105,-5.2204,-5.2308,-5.1751,-5.1586,-5.119,-5.0696,-5.0696,-5.0696,-5.0696,-5.0696,-5.0696,-5.0696,-5.0696,-5.0696,-5.0696,-5.0696,-5.0696,-5.0696,-5.0696,-5.0696,-5.0696,-5.0696,-5.0696,-5.0551,-4.9998,-4.9445,-4.8772,-4.7714,-4.7064,-4.6463,-4.5669,-4.5029,-4.4597,-4.4333,-4.4285,-4.4285,-4.4285,-4.4285,-4.4285,-4.4285,-4.4285,-4.4285,-4.4285,-4.4285,-4.4285,-4.4285,-4.3639,-4.2988,-4.2356,-4.1633,-4.0581,-3.9146,-3.7796,-3.6742,-3.6016,-3.6016,-3.6355,-3.7079,-3.6355,-3.6016,0.0,0.0,0.0,0.0,0.0,-3.8014,0.0,0.0,0.0,0.0,0.0,0.0,0.0,0.0,0.0,0.0,0.0,0.0,0.0,0.0,0.0,0.0,0.0,0.0,0.0,-4.3062,-4.3564,-4.4116,-4.4669,-4.5296,-4.5949,-4.6602,-4.7431,-4.8435,-4.856,-4.8862,-4.9439,-4.9439,-4.949,-4.959,-4.959,-4.959,-4.959,-4.959,-4.959,-4.959,-4.959,-4.959,-4.969,-5.082,-5.1272,-5.1398,-5.2503,-5.2446,-5.182,-5.182,-5.133,-5.0696,-5.0696,-5.0696,-5.0696,-5.0696,-5.0696,-5.0696,-5.0696,-5.0696,-5.0696,-5.0696,-5.0696,-5.0696,-5.0696,-5.0696,-5.0696,-5.0696,-5.0696,-5.0527,-4.9854,-4.9301,-4.8579,-4.7425,-4.6439,-4.5645,-4.5149,-4.4645,-4.4285,-4.4285,-4.4285,-4.4285,-4.4285,-4.4285,-4.4285,-4.4285,-4.4285,-4.4285,-4.4285,-4.4037,-4.3888,-4.3888,-4.3451,-4.261,-4.1505,-4.1248,-3.9997,-3.7729,-3.6606,-3.6016,-3.6016,-3.6016,-3.6016,-3.6016,-3.6016,-3.6016,0.0,0.0,0.0,0.0,-3.8202,0.0,0.0,0.0,-3.8274,-3.8803,0.0,0.0,0.0,0.0,0.0,0.0,0.0,0.0,0.0,0.0,0.0,0.0,0.0,0.0,0.0,-4.1526,-4.1856,-4.2439,-4.3017,-4.3714,-4.4769,-4.5824,-4.6677,-4.7305,-4.7757,-4.8284,-4.8862,-4.8862,-4.9113,-4.959,-4.959,-4.959,-4.959,-4.959,-4.959,-4.959,-4.959,-4.959,-4.969,-5.082,-5.1272,-5.1398,-5.2503,-5.2446,-5.182,-5.182,-5.133,-5.0696,-5.0696,-5.0696,-5.0696,-5.0696,-5.0696,-5.0696,-5.0696,-5.0696,-5.0696,-5.0696,-5.0696,-5.0696,-5.0696,-5.0696,-5.0696,-5.0696,-5.0696,-5.0431,-4.9397,-4.8748,-4.793,-4.6391,-4.5621,-4.5149,-4.5077,-4.4645,-4.4285,-4.4285,-4.4285,-4.4285,-4.4285,-4.4285,-4.4285,-4.4285,-4.4285,-4.4285,-4.4285,-4.32,-4.2546,-4.2546,-4.0192,-3.8772,-3.8573,-3.7394,-3.6539,-3.6219,-3.6084,-3.6016,-3.6016,-3.6016,-3.6016,-3.6016,-3.6016,-3.6016,0.0,0.0,0.0,0.0,0.0,0.0,-3.8202,0.0,-3.8405,0.0,0.0,0.0,0.0,0.0,0.0,0.0,-3.9884,0.0,0.0,0.0,0.0,0.0,0.0,0.0,0.0,0.0,0.0,0.0,-4.1907,-4.2509,-4.3614,-4.4116,-4.492,-4.6125,-4.6702,-4.7255,-4.7807,-4.8109,-4.856,-4.9113,-4.9113,-4.9289,-4.959,-4.959,-4.959,-4.959,-4.959,-4.959,-4.969,-5.082,-5.1272,-5.1398,-5.2503,-5.2585,-5.2169,-5.2169,-5.182,-5.133,-5.1095,-5.0954,-5.0954,-5.0767,-5.0696,-5.0696,-5.0696,-5.0696,-5.0696,-5.0696,-5.0696,-5.0696,-5.0696,-5.0696,-5.0696,-5.0696,-5.0455,-4.9998,-4.9229,-4.8411,-4.7449,-4.6175,-4.5501,-4.4981,-4.4669,-4.4429,-4.4285,-4.4285,-4.4285,-4.4285,-4.4285,-4.4285,-4.4285,-4.4285,-4.4285,-4.4285,-4.4285,-4.3051,-4.2293,-4.2293,-3.967,-3.8109,-3.8109,-3.6742,-3.6016,-3.6016,-3.6016,-3.6016,-3.6016,-3.6016,-3.6016,-3.6016,-3.6016,-3.6016,-4.0408,0.0,0.0,0.0,0.0,0.0,0.0,0.0,0.0,0.0,0.0,0.0,0.0,0.0,-4.09,-4.0609,0.0,-4.0142,0.0,0.0,0.0,0.0,0.0,0.0,0.0,0.0,0.0,-4.0651,-4.0802,-4.1304,-4.2258,-4.2735,-4.3539,-4.4769,-4.5472,-4.6125,-4.6677,-4.7205,-4.7757,-4.8335,-4.8636,-4.8987,-4.9364,-4.9515,-4.959,-4.959,-4.959,-4.959,-4.969,-5.082,-5.1272,-5.1398,-5.2503,-5.2723,-5.2515,-5.2446,-5.2099,-5.1586,-5.1282,-5.1141,-5.1025,-5.0767,-5.0696,-5.0696,-5.0696,-5.0696,-5.0696,-5.0696,-5.0696,-5.0696,-5.0696,-5.0696,-5.0696,-5.0696,-5.0287,-4.9734,-4.9181,-4.8122,-4.7016,-4.6102,-4.5381,-4.4741,-4.4357,-4.4285,-4.4285,-4.4285,-4.4285,-4.4285,-4.4285,-4.4285,-4.4285,-4.4285,-4.4285,-4.4285,-4.4285,-4.2736,-4.1377,-4.0603,-3.8639,-3.7528,-3.7528,-3.6539,-3.6016,-3.6016,-3.6016,-3.6016,-3.6016,-3.6016,-3.6016,-3.6016,-3.6016,-3.6016,0.0,0.0,0.0,-4.006,0.0,0.0,0.0,0.0,-4.0031,0.0,0.0,0.0,-4.1065,-4.1587,-4.2051,-4.2038,-4.1241,0.0,0.0,0.0,0.0,0.0,0.0,0.0,0.0,0.0,0.0,-3.8919,-3.9446,-3.9998,-4.0576,-4.2108,-4.3011,-4.3062,-4.4116,-4.4945,-4.5547,-4.6075,-4.6652,-4.7143,-4.8259,-4.8786,-4.8812,-4.9339,-4.959,-4.959,-4.959,-4.959,-4.969,-5.082,-5.1272,-5.1398,-5.2503,-5.2861,-5.2861,-5.2515,-5.1866,-5.1211,-5.1211,-5.0954,-5.0696,-5.0696,-5.0696,-5.0696,-5.0696,-5.0696,-5.0696,-5.0696,-5.0696,-5.0696,-5.0696,-5.0696,-5.0696,-5.0696,-5.0287,-4.9734,-4.9181,-4.7858,-4.6583,-4.603,-4.5029,-4.4309,-4.4285,-4.4285,-4.4285,-4.4285,-4.4285,-4.4285,-4.4285,-4.4285,-4.4285,-4.4285,-4.4285,-4.4285,-4.4285,-4.1824,-3.908,-3.6336,-3.6152,-3.6084,-3.6084,-3.6016,-3.6016,-3.6016,-3.6016,-3.6016,-3.6016,-3.6016,-3.6016,-3.6016,-3.6016,-3.6016,-4.3079,-4.2237,-4.1424,-4.1424,0.0,0.0,0.0,0.0,0.0,0.0,0.0,0.0,-4.2353,-4.2528,-4.2557,-4.215,-4.1814,-4.1213,0.0,0.0,0.0,0.0,0.0,0.0,0.0,0.0,0.0,-3.8291,-3.8818,-3.9396,-3.9948,-4.0852,-4.1505,-4.1882,-4.2961,-4.3639,-4.3815,-4.4744,-4.5673,-4.6602,-4.6954,-4.7506,-4.8209,-4.8786,-4.9063,-4.9063,-4.9439,-4.959,-4.969,-5.082,-5.1272,-5.1398,-5.2503,-5.2929,-5.2861,-5.2792,-5.256,-5.2283,-5.1796,-5.119,-5.0696,-5.0696,-5.0696,-5.0696,-5.0696,-5.0696,-5.0696,-5.0696,-5.0696,-5.0696,-5.0696,-5.0696,-5.0696,-5.0696,-4.9998,-4.9205,-4.8676,-4.7305,-4.603,-4.5438,-4.4765,-4.4285,-4.4285,-4.4285,-4.4285,-4.4285,-4.4285,-4.4285,-4.4285,-4.4285,-4.4285,-4.4285,-4.4285,-4.4285,-4.4285,-4.1761,-3.9035,-3.6152,-3.6016,-3.6016,-3.6016,-3.6016,-3.6016,-3.6016,-3.6016,-3.6016,-3.6016,-3.6016,-3.6016,-3.6016,-3.6016,-3.6016,-4.4298,-4.3544,-4.276,-4.276,-4.2121,-4.1482,-4.1482,0.0,-4.2237,0.0,0.0,0.0,-4.334,-4.3137,-4.2876,-4.2469,-4.2237,-4.1409,0.0,-3.7887,0.0,0.0,0.0,0.0,0.0,0.0,-3.7513,-3.7688,-3.8065,-3.8592,0.0,-3.9923,-4.0475,-4.0974,-4.1932,-4.2484,-4.274,-4.3589,-4.4493,-4.5422,-4.5824,-4.6476,-4.7355,-4.7933,-4.841,-4.8786,-4.9163,-4.9414,-4.969,-5.082,-5.1272,-5.1398,-5.2503,-5.2929,-5.2929,-5.2929,-5.2723,-5.2446,-5.1796,-5.119,-5.0696,-5.0696,-5.0696,-5.0696,-5.0696,-5.0696,-5.0696,-5.0696,-5.0696,-5.0696,-5.0696,-5.0696,-5.0648,-5.0455,-4.9734,-4.8892,-4.8171,-4.692,-4.5766,-4.5173,-4.4645,-4.4285,-4.4285,-4.4285,-4.4285,-4.4285,-4.4285,-4.4285,-4.4285,-4.4285,-4.4285,-4.4285,-4.4285,-4.4099,-4.3639,-4.1505,-3.9212,-3.6876,-3.6287,-3.6016,-3.6016,-3.6016,-3.6016,-3.6016,-3.6016,-3.6016,-3.6016,-3.6016,-3.6016,-3.6016,-3.6471,-3.6471]},{"header":{"parameterUnit":"m.s-1","parameterCategory":1,"la1":30.6,"la2":29.2853,"lo1":-89.7004,"lo2":-87.6739,"dy":0.0162,"dx":0.0183,"nx":112,"ny":82,"refTime":"2023-06-12T12:00:00:Z","depth":0,"parameterNumber":3,"parameterNumberName":"V-component_of_WINDS"},"data":[0.0,0.0,0.0,0.0,0.0,0.0,0.0,0.0,0.0,0.0,0.0,0.0,0.0,0.0,0.0,0.0,0.0,0.0,0.0,0.0,0.0,0.0,0.0,0.0,0.0,0.0,0.0,0.0,0.0,0.0,0.0,0.0,0.0,0.0,0.0,0.0,0.0,0.0,0.0,0.0,0.0,0.0,0.0,0.0,0.0,0.0,0.0,0.0,0.0,0.0,0.0,0.0,0.0,0.0,0.0,0.0,0.0,0.0,0.0,0.0,0.0,0.0,0.0,0.0,0.0,0.0,0.0,0.0,0.0,0.0,0.0,0.0,0.0,0.0,0.0,0.0,0.0,0.0,0.0,0.0,0.0,0.0,0.0,0.0,0.0,0.0,0.0,0.0,0.0,0.0,0.0,-3.18,-3.18,-3.18,-3.18,-3.18,-3.18,-3.18,0.0,0.0,0.0,0.0,0.0,0.0,0.0,0.0,0.0,0.0,0.0,0.0,0.0,0.0,0.0,0.0,0.0,0.0,0.0,0.0,0.0,0.0,0.0,0.0,0.0,0.0,0.0,0.0,0.0,0.0,0.0,0.0,0.0,0.0,0.0,0.0,0.0,0.0,0.0,0.0,0.0,0.0,0.0,0.0,0.0,0.0,0.0,0.0,0.0,0.0,0.0,0.0,0.0,0.0,0.0,0.0,0.0,0.0,0.0,0.0,0.0,0.0,0.0,0.0,0.0,0.0,0.0,0.0,0.0,0.0,0.0,0.0,0.0,0.0,0.0,0.0,0.0,0.0,0.0,0.0,0.0,0.0,0.0,0.0,0.0,0.0,0.0,0.0,0.0,0.0,0.0,0.0,0.0,0.0,0.0,0.0,0.0,0.0,0.0,0.0,0.0,0.0,0.0,0.0,-3.18,-3.18,-3.18,-3.18,-3.18,-3.18,-3.18,-3.18,0.0,0.0,0.0,0.0,0.0,0.0,0.0,0.0,0.0,0.0,0.0,0.0,0.0,0.0,0.0,0.0,0.0,0.0,0.0,0.0,0.0,0.0,0.0,0.0,0.0,0.0,0.0,0.0,0.0,0.0,0.0,0.0,0.0,0.0,0.0,0.0,0.0,0.0,0.0,0.0,0.0,0.0,0.0,0.0,0.0,0.0,0.0,0.0,0.0,0.0,0.0,0.0,0.0,0.0,0.0,0.0,0.0,0.0,0.0,0.0,0.0,0.0,0.0,0.0,0.0,0.0,0.0,0.0,0.0,0.0,0.0,0.0,0.0,0.0,0.0,0.0,0.0,0.0,0.0,0.0,0.0,0.0,0.0,0.0,0.0,0.0,0.0,0.0,0.0,0.0,0.0,0.0,0.0,0.0,0.0,0.0,0.0,0.0,0.0,0.0,0.0,0.0,0.0,-3.3041,-3.3041,-3.3041,-3.3041,-3.3041,-3.3041,-3.2662,-3.2386,-3.2386,-3.2007,0.0,0.0,0.0,0.0,0.0,0.0,0.0,0.0,0.0,0.0,0.0,0.0,0.0,0.0,0.0,0.0,0.0,0.0,0.0,0.0,0.0,0.0,0.0,0.0,0.0,0.0,0.0,0.0,0.0,0.0,0.0,0.0,0.0,0.0,0.0,0.0,0.0,0.0,0.0,0.0,0.0,0.0,0.0,0.0,0.0,0.0,0.0,0.0,0.0,0.0,0.0,0.0,0.0,0.0,0.0,0.0,0.0,0.0,0.0,0.0,0.0,0.0,0.0,0.0,0.0,0.0,0.0,0.0,0.0,0.0,0.0,0.0,0.0,0.0,0.0,0.0,0.0,0.0,0.0,0.0,0.0,0.0,0.0,0.0,0.0,0.0,0.0,0.0,0.0,0.0,0.0,0.0,0.0,0.0,0.0,0.0,0.0,0.0,0.0,0.0,0.0,0.0,-3.4096,-3.4096,-3.4096,-3.4096,-3.4096,-3.4096,-3.3524,-3.3179,-3.3179,-3.2662,0.0,0.0,0.0,0.0,0.0,0.0,0.0,0.0,0.0,0.0,0.0,0.0,0.0,0.0,0.0,0.0,0.0,0.0,0.0,0.0,0.0,0.0,0.0,0.0,0.0,0.0,0.0,0.0,0.0,0.0,0.0,0.0,0.0,0.0,0.0,0.0,0.0,0.0,0.0,0.0,0.0,0.0,0.0,0.0,0.0,0.0,0.0,0.0,0.0,0.0,0.0,0.0,0.0,0.0,0.0,0.0,0.0,0.0,0.0,0.0,0.0,0.0,0.0,0.0,0.0,0.0,0.0,0.0,0.0,0.0,0.0,0.0,0.0,0.0,0.0,0.0,0.0,0.0,0.0,0.0,0.0,0.0,0.0,0.0,0.0,0.0,0.0,0.0,0.0,0.0,0.0,0.0,0.0,0.0,0.0,0.0,0.0,0.0,0.0,0.0,0.0,0.0,-3.4096,-3.4096,-3.4096,-3.4096,-3.4096,-3.4096,-3.4061,-3.4027,-3.4027,-3.3992,0.0,0.0,0.0,0.0,0.0,0.0,0.0,0.0,0.0,0.0,0.0,0.0,0.0,0.0,0.0,0.0,0.0,0.0,0.0,0.0,0.0,0.0,0.0,0.0,0.0,0.0,0.0,0.0,0.0,0.0,0.0,0.0,0.0,0.0,0.0,0.0,0.0,0.0,0.0,0.0,0.0,0.0,0.0,0.0,0.0,0.0,0.0,0.0,0.0,0.0,0.0,0.0,0.0,0.0,0.0,0.0,0.0,0.0,0.0,0.0,0.0,0.0,0.0,0.0,0.0,0.0,0.0,0.0,0.0,0.0,0.0,0.0,0.0,0.0,0.0,0.0,0.0,0.0,0.0,0.0,0.0,0.0,0.0,0.0,0.0,0.0,0.0,0.0,0.0,0.0,0.0,0.0,0.0,0.0,0.0,0.0,0.0,0.0,0.0,0.0,0.0,0.0,-3.5456,-3.5456,0.0,-3.5456,-3.5456,-3.5456,-3.5042,-3.4786,-3.4786,0.0,0.0,0.0,0.0,0.0,0.0,0.0,0.0,0.0,0.0,0.0,0.0,0.0,0.0,0.0,0.0,0.0,0.0,0.0,0.0,0.0,0.0,0.0,0.0,0.0,0.0,0.0,0.0,0.0,0.0,0.0,0.0,0.0,0.0,0.0,0.0,0.0,0.0,0.0,0.0,0.0,0.0,0.0,0.0,0.0,0.0,0.0,0.0,0.0,0.0,0.0,0.0,0.0,0.0,0.0,0.0,0.0,0.0,0.0,0.0,0.0,0.0,0.0,0.0,0.0,0.0,0.0,0.0,0.0,0.0,0.0,0.0,0.0,0.0,0.0,0.0,0.0,0.0,0.0,0.0,0.0,0.0,0.0,0.0,0.0,0.0,0.0,0.0,0.0,0.0,0.0,0.0,0.0,0.0,0.0,0.0,0.0,0.0,0.0,0.0,0.0,0.0,-3.6284,-3.6284,-3.6284,0.0,-3.6284,-3.6284,-3.6284,-3.5835,-3.5559,-3.5559,0.0,0.0,0.0,0.0,0.0,0.0,0.0,0.0,0.0,0.0,0.0,0.0,0.0,0.0,0.0,0.0,0.0,0.0,0.0,0.0,0.0,0.0,0.0,0.0,0.0,0.0,0.0,0.0,0.0,0.0,0.0,0.0,0.0,0.0,0.0,0.0,0.0,0.0,0.0,0.0,0.0,0.0,0.0,0.0,0.0,0.0,0.0,0.0,0.0,0.0,0.0,0.0,0.0,0.0,0.0,0.0,0.0,0.0,0.0,0.0,0.0,0.0,0.0,0.0,0.0,0.0,0.0,0.0,0.0,0.0,0.0,0.0,0.0,0.0,0.0,0.0,0.0,0.0,0.0,0.0,0.0,0.0,0.0,0.0,0.0,0.0,0.0,0.0,0.0,0.0,0.0,0.0,0.0,0.0,0.0,0.0,0.0,0.0,0.0,0.0,0.0,0.0,-3.6318,-3.6318,-3.6318,-3.6318,-3.6318,-3.6318,-3.6284,-3.6284,-3.6284,0.0,0.0,0.0,0.0,0.0,0.0,0.0,0.0,0.0,0.0,0.0,0.0,0.0,0.0,0.0,0.0,0.0,0.0,0.0,0.0,0.0,0.0,0.0,0.0,0.0,0.0,0.0,0.0,0.0,0.0,0.0,0.0,0.0,0.0,0.0,0.0,0.0,0.0,0.0,0.0,0.0,0.0,0.0,0.0,0.0,0.0,0.0,0.0,0.0,0.0,0.0,0.0,0.0,0.0,0.0,0.0,0.0,0.0,0.0,0.0,0.0,0.0,0.0,0.0,0.0,0.0,0.0,0.0,0.0,0.0,0.0,0.0,0.0,0.0,0.0,0.0,0.0,0.0,0.0,0.0,0.0,0.0,0.0,0.0,0.0,0.0,0.0,0.0,0.0,0.0,0.0,0.0,0.0,0.0,0.0,0.0,0.0,0.0,0.0,0.0,0.0,0.0,0.0,-3.7905,-3.7905,-3.7698,-3.7202,-3.7167,-3.6904,-3.6353,-3.6284,-3.6284,-3.6284,0.0,0.0,0.0,0.0,0.0,0.0,0.0,0.0,0.0,0.0,0.0,0.0,0.0,0.0,0.0,0.0,0.0,0.0,0.0,0.0,0.0,0.0,0.0,0.0,0.0,0.0,0.0,0.0,0.0,0.0,0.0,0.0,0.0,0.0,0.0,0.0,0.0,0.0,0.0,0.0,0.0,0.0,0.0,0.0,0.0,0.0,0.0,0.0,0.0,0.0,0.0,0.0,0.0,0.0,0.0,0.0,0.0,0.0,0.0,0.0,0.0,0.0,0.0,0.0,0.0,0.0,0.0,0.0,0.0,0.0,0.0,0.0,0.0,0.0,0.0,0.0,0.0,0.0,0.0,0.0,0.0,0.0,0.0,0.0,0.0,0.0,0.0,0.0,0.0,0.0,0.0,0.0,0.0,0.0,0.0,0.0,0.0,0.0,0.0,0.0,0.0,0.0,-3.8594,-3.8594,-3.8422,-3.7996,-3.7961,-3.7754,-3.7249,-3.6939,-3.6766,-3.6766,0.0,0.0,0.0,0.0,0.0,0.0,0.0,0.0,0.0,0.0,0.0,0.0,0.0,0.0,0.0,0.0,0.0,0.0,0.0,0.0,0.0,0.0,0.0,0.0,0.0,0.0,0.0,0.0,0.0,0.0,0.0,0.0,0.0,0.0,0.0,0.0,0.0,0.0,0.0,0.0,0.0,0.0,0.0,0.0,0.0,0.0,0.0,0.0,0.0,0.0,0.0,0.0,0.0,0.0,0.0,0.0,0.0,0.0,0.0,0.0,0.0,0.0,0.0,0.0,0.0,0.0,0.0,0.0,0.0,0.0,0.0,0.0,0.0,0.0,0.0,0.0,0.0,0.0,0.0,0.0,0.0,0.0,0.0,0.0,0.0,0.0,0.0,0.0,0.0,0.0,0.0,0.0,0.0,0.0,0.0,0.0,0.0,0.0,0.0,0.0,0.0,0.0,-3.8801,-3.8801,-3.8767,-3.8698,-3.8698,-3.8663,-3.8617,-3.7996,-3.7616,-3.7616,0.0,0.0,0.0,0.0,0.0,0.0,0.0,0.0,0.0,0.0,0.0,0.0,0.0,0.0,0.0,0.0,0.0,0.0,0.0,0.0,0.0,0.0,0.0,0.0,0.0,0.0,0.0,0.0,0.0,0.0,0.0,0.0,0.0,0.0,0.0,0.0,0.0,0.0,0.0,0.0,0.0,0.0,0.0,0.0,0.0,0.0,0.0,0.0,0.0,0.0,0.0,0.0,0.0,0.0,0.0,0.0,0.0,0.0,0.0,0.0,-3.4044,0.0,0.0,0.0,0.0,0.0,0.0,0.0,0.0,0.0,0.0,0.0,0.0,0.0,0.0,0.0,0.0,0.0,0.0,0.0,0.0,0.0,0.0,0.0,0.0,0.0,0.0,0.0,0.0,0.0,0.0,0.0,0.0,0.0,0.0,0.0,0.0,0.0,0.0,0.0,0.0,0.0,-4.0411,-4.0411,-4.017,-3.9526,-3.9457,-3.9215,-3.8629,-3.8479,-3.8375,-3.8375,-3.765,0.0,0.0,0.0,0.0,0.0,0.0,0.0,0.0,0.0,0.0,0.0,0.0,0.0,0.0,0.0,0.0,0.0,0.0,0.0,0.0,0.0,0.0,0.0,0.0,0.0,0.0,0.0,0.0,0.0,0.0,0.0,0.0,0.0,0.0,0.0,0.0,0.0,0.0,0.0,0.0,0.0,0.0,0.0,0.0,0.0,0.0,0.0,0.0,0.0,0.0,0.0,0.0,0.0,0.0,0.0,0.0,0.0,0.0,0.0,0.0,-3.5603,0.0,0.0,0.0,0.0,0.0,0.0,0.0,0.0,0.0,0.0,0.0,0.0,0.0,0.0,0.0,0.0,0.0,0.0,0.0,0.0,0.0,0.0,0.0,0.0,0.0,0.0,0.0,0.0,0.0,0.0,0.0,0.0,0.0,0.0,0.0,0.0,0.0,0.0,0.0,0.0,-4.0894,-4.0894,-4.0756,-4.0342,-4.0284,-4.0135,-3.9756,-3.9353,-3.9112,-3.9112,-3.8444,0.0,0.0,0.0,0.0,0.0,0.0,0.0,0.0,0.0,0.0,0.0,0.0,0.0,0.0,0.0,0.0,0.0,0.0,0.0,0.0,0.0,0.0,0.0,0.0,0.0,0.0,0.0,0.0,0.0,0.0,0.0,0.0,0.0,0.0,0.0,0.0,0.0,0.0,0.0,0.0,0.0,0.0,0.0,0.0,0.0,0.0,0.0,0.0,0.0,0.0,0.0,0.0,0.0,-3.7048,-3.7339,-3.7857,-3.7913,-3.8525,-3.9446,-3.9068,-3.8547,-3.792,-3.7193,0.0,0.0,0.0,0.0,0.0,0.0,0.0,0.0,0.0,0.0,0.0,0.0,0.0,0.0,0.0,0.0,0.0,0.0,0.0,0.0,0.0,0.0,0.0,0.0,-3.941,-3.941,0.0,0.0,0.0,0.0,0.0,0.0,0.0,0.0,0.0,0.0,0.0,0.0,-4.0918,-4.0894,-4.0894,-4.0894,-4.0894,-4.0894,-4.0894,-4.0284,-3.9905,-3.9905,-3.9215,-3.8767,0.0,0.0,0.0,0.0,0.0,0.0,0.0,0.0,0.0,0.0,0.0,0.0,0.0,0.0,0.0,0.0,0.0,0.0,0.0,0.0,0.0,0.0,0.0,0.0,0.0,0.0,0.0,0.0,0.0,0.0,0.0,0.0,-3.1743,-3.1305,0.0,0.0,0.0,0.0,0.0,0.0,0.0,0.0,0.0,0.0,0.0,0.0,0.0,-3.6853,-3.8922,-3.8954,-3.925,-3.993,-3.993,-3.9994,-4.0089,-4.0438,-4.1033,-4.1778,-4.2066,0.0,-3.9827,-3.9398,0.0,0.0,0.0,0.0,0.0,0.0,0.0,0.0,0.0,0.0,0.0,0.0,0.0,0.0,0.0,0.0,0.0,0.0,0.0,0.0,0.0,0.0,-4.2585,-4.2585,-4.2585,-4.2585,0.0,-4.0998,-3.9767,-4.048,-4.0687,0.0,0.0,0.0,0.0,0.0,0.0,0.0,-4.0894,-4.0894,-4.0894,-4.0894,-4.0894,-4.0894,-4.0894,-4.0791,-4.0756,-4.0756,-3.9997,-3.956,-3.956,-3.8836,0.0,0.0,0.0,0.0,0.0,0.0,0.0,0.0,0.0,0.0,0.0,0.0,0.0,0.0,0.0,0.0,0.0,0.0,0.0,0.0,0.0,0.0,0.0,0.0,0.0,0.0,0.0,0.0,0.0,-3.2139,-3.2998,-3.3149,-3.3029,-3.2721,0.0,0.0,0.0,0.0,0.0,0.0,0.0,0.0,0.0,-3.8051,-3.8051,-3.8893,-4.0672,-4.0672,-4.0998,-4.1678,-4.1678,-4.1905,-4.2294,-4.248,-4.2963,-4.3679,-4.4144,-4.3883,-4.3056,-4.1485,-4.0637,-4.0272,0.0,0.0,0.0,0.0,-4.0117,-4.0758,-4.0927,-4.1792,0.0,-4.2827,0.0,0.0,0.0,0.0,0.0,0.0,0.0,0.0,0.0,0.0,-4.4423,-4.4423,-4.4423,-4.432,-4.3897,-4.3,-4.2324,0.0,-4.216,-4.194,-4.1893,0.0,0.0,0.0,0.0,-4.1035,-4.0894,-4.0894,-4.0894,-4.0894,-4.1012,-4.1035,-4.0894,-4.1012,-4.1035,-4.0894,-4.0584,-4.0353,-4.0353,-3.9629,-3.9215,0.0,0.0,0.0,0.0,0.0,0.0,0.0,0.0,0.0,0.0,0.0,0.0,0.0,0.0,0.0,0.0,0.0,0.0,0.0,0.0,0.0,0.0,0.0,0.0,0.0,0.0,0.0,0.0,-3.3398,-3.4137,-3.469,-3.4502,-3.4315,0.0,0.0,0.0,0.0,0.0,0.0,-3.752,-3.8444,-3.9336,-4.0254,-4.0448,-4.1128,-4.2422,-4.2422,-4.2747,-4.3428,-4.3428,-4.3816,-4.4528,-4.4528,-4.4917,-4.5663,-4.5996,-4.6127,-4.5962,-4.3551,-4.2356,-4.2031,-4.1264,-4.123,-4.1562,-4.1663,-4.2243,-4.3021,-4.3156,-4.4044,-4.5147,-4.5147,-4.5527,-4.5983,-4.5983,0.0,0.0,0.0,0.0,-4.5983,-4.5983,-4.5983,-4.5983,-4.5983,-4.5983,-4.5845,-4.5285,-4.5226,-4.4888,0.0,-4.3125,-4.2836,-4.2718,0.0,0.0,0.0,0.0,-4.1383,-4.1012,-4.1035,-4.1082,-4.1082,-4.114,-4.114,-4.0989,-4.1047,-4.1082,-4.0894,-4.0894,-4.0894,-4.0894,-4.0342,-4.0008,-4.0008,0.0,0.0,0.0,0.0,0.0,0.0,0.0,0.0,0.0,0.0,0.0,0.0,0.0,0.0,0.0,0.0,0.0,0.0,0.0,0.0,0.0,0.0,0.0,0.0,0.0,0.0,0.0,0.0,0.0,-3.546,-3.6257,0.0,0.0,0.0,0.0,-3.7229,-3.8159,-3.8932,-3.935,-4.0675,-4.1743,-4.2424,-4.3104,-4.3848,-4.4625,-4.4625,-4.4982,-4.5629,-4.5629,-4.6018,-4.673,-4.673,-4.7151,-4.7864,-4.7831,-4.7867,-4.771,-4.5651,-4.4607,-4.4174,-4.3452,-4.3185,-4.3333,-4.3681,-4.4637,-4.5794,-4.622,-4.6906,-4.7527,-4.7527,-4.7534,-4.7569,-4.7569,-4.7569,0.0,0.0,-4.7569,-4.7569,-4.7569,-4.7569,-4.7569,-4.7569,-4.7569,-4.7569,-4.7562,-4.7719,-4.6986,0.0,-4.3197,-4.3237,-4.3423,0.0,-4.295,-4.2415,-4.2323,-4.2079,-4.129,-4.1426,-4.156,-4.156,-4.1346,-4.1209,-4.1186,-4.1035,-4.0894,-4.0894,-4.0894,-4.0894,-4.0894,-4.086,-4.086,-4.086,-4.0043,0.0,0.0,0.0,0.0,0.0,0.0,0.0,0.0,0.0,0.0,0.0,0.0,0.0,0.0,0.0,0.0,0.0,0.0,0.0,0.0,0.0,0.0,0.0,0.0,0.0,0.0,0.0,0.0,-3.7338,-3.7742,0.0,-3.8089,-3.8716,-3.9156,-3.9377,-4.1082,-4.2039,-4.182,-4.3292,-4.4101,-4.401,-4.4269,-4.4949,-4.6115,-4.6147,-4.673,-4.7896,-4.835,-4.8706,-4.9001,-4.985,-5.0174,-5.0103,-5.0471,-5.0435,-5.0006,-4.929,-4.7963,-4.6485,-4.6572,-4.6781,-4.715,-4.7661,-4.8123,-4.8472,-4.7786,-4.8272,-4.9183,-4.9183,-4.9183,-4.9183,-4.9183,-4.9183,-4.9183,-4.9183,-4.9183,-4.9183,-4.9183,-4.9183,-4.9183,-4.9183,-4.9183,-4.9045,-4.8499,-4.848,-4.8052,-4.6416,-4.5571,-4.5102,-4.4993,-4.4241,-4.3533,-4.3147,-4.3112,-4.3008,-4.2729,-4.2658,-4.2645,-4.2645,-4.2658,-4.2634,-4.249,-4.2538,-4.2514,-4.2403,-4.2378,-4.2378,-4.2378,-4.2378,-4.2378,-4.2378,-4.2102,-4.1964,0.0,0.0,0.0,0.0,0.0,0.0,0.0,0.0,0.0,0.0,0.0,0.0,0.0,0.0,0.0,0.0,0.0,0.0,0.0,0.0,0.0,0.0,0.0,0.0,0.0,0.0,-3.7923,-3.9062,-3.9501,-3.9851,-4.02,-4.0939,-4.1456,-4.1555,-4.3072,-4.3913,-4.3683,-4.4887,-4.5538,-4.544,-4.583,-4.6547,-4.7492,-4.7839,-4.8576,-4.9775,-5.0487,-5.094,-5.1199,-5.2104,-5.2296,-5.195,-5.2594,-5.2655,-5.2268,-5.2268,-5.1322,-4.9859,-4.9486,-4.9626,-5.0086,-5.0505,-5.062,-5.0404,-4.9532,-4.9752,-5.0463,-5.04,-5.039,-5.0321,-5.008,-5.0011,-5.0011,-5.0011,-5.0011,-5.0011,-5.0011,-5.0011,-5.0011,-5.0011,-5.0011,-4.9873,-4.9292,-4.9189,-4.9079,-4.8568,-4.7523,-4.6655,-4.6465,-4.5734,-4.4998,-4.4366,-4.4296,-4.4112,-4.3685,-4.3541,-4.3454,-4.3454,-4.3492,-4.3468,-4.3296,-4.337,-4.3346,-4.3232,-4.3207,-4.3207,-4.3207,-4.3272,-4.3321,-4.3321,-4.3321,-4.3272,-4.3172,0.0,0.0,0.0,0.0,0.0,0.0,0.0,0.0,0.0,0.0,0.0,0.0,0.0,0.0,0.0,0.0,0.0,0.0,0.0,0.0,0.0,0.0,0.0,-3.6815,-3.8323,-3.9797,-4.0474,-4.1469,-4.2256,-4.2613,-4.357,-4.4086,-4.3809,-4.4084,-4.4422,-4.4852,-4.5501,-4.6124,-4.665,-4.7866,-4.8587,-4.8756,-4.9707,-5.0556,-5.1264,-5.1982,-5.2689,-5.3402,-5.3434,-5.3466,-5.3499,-5.4179,-5.4503,-5.4503,-5.4503,-5.4503,-5.4276,-5.2144,-5.1569,-5.1977,-5.2013,-5.1841,-5.163,-5.1522,-5.1444,-5.1403,-5.121,-5.1149,-5.1011,-5.0287,-5.008,-5.008,-5.0045,-5.0045,-5.0045,-5.0011,-5.0011,-5.0011,-5.0011,-5.0011,-5.0011,-5.0011,-5.0011,-5.0011,-5.0011,-4.8803,-4.7741,-4.7741,-4.7734,-4.7291,-4.6056,-4.5873,0.0,-4.419,-4.4015,-4.3991,-4.3991,-4.3801,-4.3621,-4.3621,-4.3435,-4.3345,-4.3345,-4.3345,-4.3345,-4.3345,-4.3523,-4.3635,-4.3635,-4.3635,-4.3523,-4.331,0.0,0.0,0.0,0.0,0.0,0.0,0.0,0.0,0.0,0.0,0.0,0.0,0.0,0.0,0.0,0.0,0.0,0.0,0.0,0.0,0.0,0.0,-3.9797,-3.9428,-4.0355,-4.1278,-4.1955,-4.2273,-4.2785,-4.3677,-4.3764,-4.4264,-4.5501,-4.5511,-4.5835,-4.6782,-4.7144,-4.7572,-4.8099,-4.8895,-4.9551,-5.0,-5.1421,-5.2171,-5.2251,-5.4235,-5.5038,-5.4859,-5.6384,-5.6833,-5.6455,-5.707,-5.7127,-5.6705,-5.6705,-5.6705,-5.6487,-5.4195,-5.3381,-5.3531,-5.3974,-5.3543,-5.2741,-5.291,-5.2402,-5.1629,-5.1843,-5.1877,-5.1873,-5.1666,-5.1597,-5.1464,-5.0976,-5.0804,-5.0666,-5.0149,-5.0011,-5.0011,-5.0011,-5.0011,-5.0011,-5.0011,-5.0011,-5.0011,-5.0011,-4.9666,-4.9183,-4.8603,-4.8218,-4.7862,-4.7517,-4.7482,0.0,-4.6995,-4.6777,-4.6645,-4.6645,-4.6592,-4.6565,-4.6565,-4.6485,-4.6458,-4.6458,-4.6458,-4.6458,-4.6458,-4.6539,-4.6565,-4.6565,-4.6565,-4.6262,0.0,0.0,0.0,0.0,0.0,0.0,0.0,0.0,0.0,0.0,0.0,0.0,0.0,0.0,0.0,0.0,0.0,0.0,0.0,0.0,0.0,0.0,-4.0655,-4.1801,-4.1801,-4.2171,-4.2716,-4.3412,-4.3468,-4.3806,-4.4741,-4.4911,-4.531,-4.6246,-4.657,-4.7028,-4.7696,-4.8133,-4.8564,-4.912,-5.0326,-5.1188,-5.1586,-5.3136,-5.3962,-5.4059,-5.5726,-5.6449,-5.6349,-5.7575,-5.7925,-5.7621,-5.8293,-5.8339,-5.8032,-5.8032,-5.8032,0.0,0.0,0.0,0.0,0.0,-5.4541,-5.3667,-5.3759,-5.3332,-5.2726,-5.284,-5.2866,-5.2794,-5.2438,-5.233,-5.2221,-5.1714,-5.1563,-5.139,-5.0666,-5.0459,-5.039,-5.008,-5.0011,-5.0011,-5.0011,-5.0011,-5.0011,-5.0011,-5.0011,0.0,-4.939,-4.9054,-4.8841,-4.8603,-4.8487,-4.832,-4.8116,-4.7865,-4.7672,-4.7672,-4.7672,-4.7672,-4.7672,-4.7672,0.0,0.0,0.0,-4.7727,-4.7865,-4.7865,0.0,0.0,0.0,-4.7603,-4.7079,-4.7079,0.0,0.0,-4.5354,-4.5039,0.0,0.0,0.0,0.0,0.0,0.0,0.0,0.0,0.0,0.0,0.0,0.0,0.0,0.0,0.0,0.0,-4.2386,-4.3624,-4.3716,-4.3716,-4.3975,-4.4602,-4.4693,-4.4955,-4.5624,-4.6375,-4.6724,-4.648,-4.7302,-4.79,-4.8176,0.0,0.0,0.0,0.0,-5.3207,-5.327,-5.493,-5.5944,-5.6195,-5.6912,-5.742,-5.7751,-5.7816,-5.7763,-5.771,-5.841,-5.8702,-5.8658,-5.8788,-5.8788,-5.8637,-5.7871,-5.7621,-5.7417,-5.6122,-5.528,-5.4712,-5.4421,0.0,0.0,-5.4023,-5.3971,-5.3878,-5.3111,-5.2936,-5.2929,-5.265,-5.2498,-5.2291,-5.1563,-5.1287,-5.108,-5.0424,-5.0252,-5.0252,-5.0149,-5.0114,-5.0114,-5.0011,-5.0011,-5.0011,-5.0011,-5.0011,-4.9855,-4.9354,-4.9083,-4.8819,-4.8479,-4.8218,-4.812,-4.8189,0.0,0.0,-4.8189,-4.8189,-4.8189,-4.8189,-4.8189,-4.8329,-4.8603,-4.863,-4.8657,-4.8684,-4.8684,-4.8576,-4.8329,-4.8329,-4.8674,-4.9234,-4.7727,-4.679,0.0,0.0,0.0,0.0,0.0,0.0,0.0,0.0,0.0,0.0,0.0,0.0,0.0,0.0,0.0,-4.2817,-4.3347,-4.3809,-4.4332,-4.4425,-4.4463,-4.4582,-4.5122,-4.5515,-4.5697,-4.6375,-4.7001,-4.7539,-4.7174,-4.7839,-4.9814,-4.9456,-5.0175,-5.2368,-5.389,-5.4542,-5.4309,-5.7258,-5.8047,-5.668,0.0,0.0,-5.8421,-5.8972,-5.8836,-5.8119,-5.9197,-5.9381,-5.9004,-5.9891,-5.9967,-5.936,-5.8065,-5.7621,-5.7589,-5.7255,-5.7061,-5.6895,-5.6126,-5.5863,-5.5749,-5.5025,-5.5095,-5.5482,-5.5315,-5.5586,0.0,-5.5152,-5.4529,-5.3908,-5.3149,-5.2494,-5.1946,-5.1808,-5.1774,-5.1602,-5.1045,-5.0907,-5.0735,-5.0114,-5.0011,-5.0011,-5.0011,-5.0011,-4.9942,-4.9861,-4.9798,-4.9942,-5.0448,-5.0488,-5.0671,-5.1257,-5.1326,-5.1326,-5.1326,-5.1326,-5.1326,-5.1326,-5.1326,-5.1474,-5.179,-5.179,-5.1933,-5.2187,-5.2214,-5.2187,-5.2131,-5.2131,-5.2201,-5.2278,-5.0269,-4.9608,0.0,0.0,0.0,0.0,0.0,0.0,0.0,0.0,0.0,0.0,0.0,-4.0419,0.0,0.0,-4.2817,-4.3501,-4.3901,-4.424,-4.4579,-4.461,-4.4761,-4.5104,-4.5478,-4.5841,-4.6234,-4.6907,-4.7623,-4.8398,-4.8378,-4.9038,-5.0659,-5.1127,-5.2089,-5.3732,-5.5545,-5.6612,-5.683,-5.8742,-5.9397,-5.8716,-6.001,-6.0332,-5.9788,-6.0148,-6.0108,-5.9762,-6.0054,-6.0259,-6.043,-6.0978,-6.0844,-6.0141,-5.9422,-5.872,-5.8097,-5.8097,-5.7871,-5.7566,-5.711,-5.6931,-5.6874,-5.6441,-5.6453,-5.662,-5.6578,-5.6707,-5.6781,-5.6327,-5.5943,-5.546,-5.4701,-5.3942,-5.3287,-5.2908,-5.2463,-5.2084,-5.1735,-5.1636,-5.1563,-5.1183,-5.1114,-5.1114,-5.1114,-5.1114,-5.0873,-5.0114,-5.0321,-5.07,-5.1045,-5.1395,-5.1774,-5.2153,-5.2188,-5.2188,-5.2188,-5.2188,-5.2188,-5.2188,-5.2188,-5.2278,-5.2458,-5.2458,-5.2547,-5.2724,-5.2724,-5.2724,-5.2724,-5.2724,-5.2933,-5.3251,-5.2196,-5.179,0.0,0.0,0.0,0.0,0.0,0.0,0.0,0.0,-3.9194,-3.9385,-4.067,-4.174,-4.174,-4.2867,-4.3809,-4.3809,-4.4271,-4.461,-4.461,-4.4723,-4.5055,-4.5594,-4.5828,-4.6195,-4.692,-4.7783,-4.852,-4.916,-4.9822,-5.0585,-5.1521,-5.2771,-5.3981,-5.5122,-5.7083,-5.845,-5.9174,-5.9977,-6.0484,-6.0685,-6.068,-6.082,-6.0986,-6.0986,-6.0986,-6.0945,-6.0558,-6.0894,-6.1756,-6.1554,-6.1103,-6.0633,-6.0548,-5.9804,-5.8799,-5.8799,-5.8486,-5.7968,-5.7838,-5.7773,-5.7773,-5.7654,-5.7617,-5.7602,-5.763,-5.7628,-5.7631,-5.7465,-5.7357,-5.7047,-5.6253,-5.5495,-5.4805,-5.4218,-5.3563,-5.308,-5.2877,-5.2739,-5.2601,-5.2459,-5.2321,-5.2188,-5.2188,-5.2188,-5.1774,-5.0631,-5.0942,-5.139,-5.1528,-5.208,-5.2463,-5.2632,-5.2666,-5.2666,-5.2666,-5.2666,-5.2666,-5.2666,-5.2666,-5.2697,-5.2758,-5.2758,-5.2788,-5.2848,-5.2848,-5.2848,-5.2848,-5.2848,-5.316,-5.3783,-5.3783,-5.3528,-3.3853,-3.4667,-3.6159,-3.7682,-3.8501,-3.923,0.0,0.0,-4.1024,-4.196,-4.2811,-4.334,-4.334,-4.3956,-4.4517,-4.4517,-4.4579,-4.461,-4.461,-4.5179,-4.5583,-4.5634,-4.6258,-4.695,-4.7705,-4.9028,-4.9854,-4.9957,-5.0618,-5.1658,-5.3146,-5.3367,-5.4667,-5.7434,-5.842,-5.9161,-5.9783,-6.1333,-6.1736,-6.097,-6.1797,-6.179,-6.0986,-6.0986,-6.0567,-5.9805,-6.0141,-6.0945,-6.1917,-6.0936,-6.0506,-6.0378,-5.9979,-5.9696,-5.9587,-5.9587,-5.9555,-5.9393,-5.8702,-5.8475,-5.8421,-5.7773,-5.7943,-5.8467,-5.9003,-5.9519,-5.9947,-5.9838,-5.9323,-5.8599,-5.784,-5.7116,-5.6529,-5.6426,-5.6357,-5.6081,-5.5359,-5.4736,-5.4046,-5.3391,-5.2701,-5.2188,-5.2188,-5.2188,-5.2119,-5.1981,-5.2015,-5.2356,-5.3046,-5.3218,-5.3529,-5.4184,-5.4253,-5.4253,-5.4253,-5.4253,-5.4253,-5.4253,-5.4253,-5.4378,-5.4652,-5.4687,-5.4839,-5.5138,-5.5138,-5.5138,-5.5138,-5.5138,-5.5173,-5.5278,-5.5278,-5.4909,-3.6772,-3.7825,0.0,0.0,-4.0337,-4.0673,-4.1129,-4.1714,-4.2264,-4.2755,-4.356,-4.4209,-4.4209,-4.4425,-4.461,0.0,-4.461,-4.461,-4.461,-4.5184,-4.5978,-4.6824,-4.7569,-4.8155,-4.8447,-4.9817,-5.0894,-5.1363,-5.2023,-5.2961,-5.4092,-5.5333,-5.6777,-5.849,-5.9708,-6.0666,-6.1361,-6.2054,-6.2223,-6.183,-6.2223,-6.2223,-6.183,-6.183,-6.1432,-6.0861,-6.1561,-6.1602,-6.116,-6.1111,-6.0694,-6.0098,-5.9881,-5.9739,-5.9716,-5.9716,-5.9716,-5.9684,-5.9317,-5.9219,-5.9198,-5.8907,-5.9207,-5.9711,-5.999,-6.0423,-6.0863,-6.0839,-6.0599,-6.0289,-5.9978,-5.9323,-5.8771,-5.8771,-5.8426,-5.7874,-5.7116,-5.6702,-5.6253,-5.5529,-5.4736,-5.4152,-5.4152,-5.3839,-5.3563,-5.3563,-5.3184,-5.3011,-5.3356,-5.377,-5.4149,-5.4494,-5.4494,-5.4494,-5.4494,-5.4494,-5.4494,-5.4494,-5.4494,-5.4557,-5.4683,-5.4714,-5.4776,-5.493,-5.493,-5.493,-5.493,-5.493,-5.493,-5.493,-5.5113,-5.4961,-3.9037,0.0,0.0,-4.1496,-4.1773,-4.1961,-4.2,-4.2658,-4.3182,-4.3259,-4.393,-4.4496,-4.4496,-4.4572,0.0,-4.461,-4.461,-4.4671,-4.4856,-4.5472,-4.6485,-4.7951,-4.894,-4.9613,-4.9808,-5.081,-5.1662,-5.2236,-5.3168,-5.4004,-5.4523,-5.6691,-5.8321,-5.9268,-6.0622,-6.1637,-6.2381,-6.2381,-6.2381,-6.2381,-6.2381,-6.2381,-6.2381,-6.2381,-6.2223,-6.1911,-6.2576,-6.2156,-6.1119,-6.1487,-6.0995,-5.9979,-5.9849,-5.9575,-5.9286,-5.9452,-5.9584,-5.9716,-5.9716,-5.9716,-5.9716,-5.9716,-5.9942,-6.0355,-6.0719,-6.1095,-6.1439,-6.1597,-6.1634,-6.1565,-6.1358,-6.0909,-6.0496,-6.0496,-6.0047,-5.9495,-5.8944,-5.8668,-5.8392,-5.784,-5.6943,-5.6253,-5.6253,-5.5632,-5.5081,-5.4839,-5.4356,-5.3942,-5.3736,-5.4184,-5.4494,-5.4494,-5.4494,-5.4494,-5.4494,-5.4494,-5.4598,-5.4805,-5.4805,-5.4908,-5.515,-5.515,-5.515,-5.515,-5.515,-5.515,-5.515,-5.515,-5.515,-5.515,-5.5369,-5.5372,0.0,0.0,-4.128,-4.2157,-4.2821,-4.3309,-4.3576,-4.3645,-4.3723,-4.3918,-4.4151,-4.4335,-4.4335,-4.4458,-4.461,-4.461,-4.461,-4.4856,-4.5464,-4.6216,-4.7176,-4.8579,-5.0087,-5.1343,0.0,-5.2235,-5.227,-5.2279,-5.3713,-5.4557,-5.4509,-5.6673,-5.8558,-6.0013,-6.0858,-6.1637,-6.2381,-6.2381,-6.2381,-6.2381,-6.2381,-6.2381,-6.2381,-6.2381,-6.2381,-6.2381,-6.2381,-6.2381,-6.2302,-6.187,-6.1144,-6.0226,-5.9794,-5.9043,-5.8303,-5.8837,-5.9318,-5.9716,-5.9716,-5.9716,-5.9716,-5.9716,-5.9684,-5.9957,-6.1276,-6.1649,-6.1801,-6.2341,-6.2461,-6.2255,-6.1496,-6.1289,-6.1254,-6.1254,-6.1254,-6.122,-6.122,-6.0634,-6.0116,-6.0082,-5.8875,-5.784,-5.784,-5.7219,-5.646,-5.5701,-5.5563,-5.5288,-5.4563,-5.4494,-5.4494,-5.4494,-5.4494,-5.4494,-5.4494,-5.4494,-5.4805,-5.5497,-5.5598,-5.5943,-5.6702,-5.6736,-5.6736,-5.6736,-5.6736,-5.6736,-5.6736,-5.6736,-5.6736,-5.6736,-5.6736,-5.6736,-4.0642,0.0,-4.2119,-4.2802,-4.314,-4.3329,-4.3409,-4.3557,-4.3714,-4.3793,-4.3585,-4.3434,-4.3434,-4.3586,-4.3738,-4.3738,-4.4219,-4.4818,-4.5495,-4.6191,-4.7401,-4.9358,-5.0501,0.0,0.0,0.0,0.0,-5.311,-5.4496,-5.5543,-5.6001,-5.8177,-5.9844,-6.0858,-6.1637,-6.2144,-6.2381,-6.2381,-6.2381,-6.2381,-6.2381,-6.2381,-6.2381,-6.2381,-6.2381,-6.2381,-6.2381,-6.203,-6.1473,-6.1309,-6.0525,-5.9411,-5.9881,-5.9311,-5.8349,-5.9508,-5.9419,-5.8805,-5.9496,-5.9716,-5.9716,-5.9716,-5.999,-6.0463,-6.0894,-6.1635,-6.2324,-6.251,-6.289,-6.3151,-6.291,-6.2841,-6.2841,-6.2841,-6.2841,-6.2668,-6.2186,-6.1875,-6.1565,-6.1013,-6.0116,-5.9254,-5.8737,-5.8012,-5.7288,-5.6529,-5.5529,-5.4977,-5.5219,-5.5253,-5.5426,-5.5977,-5.6046,-5.6046,-5.6046,-5.6046,-5.6115,-5.6391,-5.6391,-5.6529,-5.6771,-5.6805,-5.6805,-5.6805,-5.6805,-5.6805,-5.6805,-5.6805,-5.6805,-5.6805,-5.7034,-5.6999,-4.1267,-4.2261,-4.2791,-4.32,-4.329,-4.329,-4.329,-4.3438,-4.3497,-4.3296,-4.3059,-4.2811,-4.2607,-4.2772,-4.305,-4.3264,-4.4028,-4.4949,-4.5803,-4.6542,-4.7793,-5.0112,-5.0816,0.0,0.0,0.0,0.0,-5.3076,-5.4697,-5.5879,-5.6371,-5.8747,-6.0486,-6.1264,-6.2009,-6.2381,-6.2381,-6.2381,-6.2381,-6.2381,-6.2381,-6.2381,-6.2381,-6.2381,-6.2381,-6.2381,-6.2381,-6.207,-6.1547,-6.1814,-6.0929,-5.9608,-6.0488,-5.9826,-5.8546,-5.9676,-5.9493,-5.8735,-5.9479,-5.9584,-5.9496,-5.9628,-5.999,-6.0378,-6.0633,-6.1268,-6.1963,-6.2201,-6.2945,-6.368,-6.368,-6.4036,-6.4427,-6.4427,-6.4427,-6.4289,-6.3807,-6.3703,-6.3462,-6.2668,-6.191,-6.1151,-6.0392,-5.915,-5.8047,-5.7288,-5.6115,-5.5495,-5.5977,-5.6046,-5.6219,-5.6736,-5.6805,-5.6805,-5.6805,-5.6805,-5.6909,-5.7185,-5.7185,-5.7322,-5.7598,-5.7598,-5.7598,-5.7598,-5.7598,-5.7598,-5.7598,-5.7598,-5.7598,-5.7598,-5.7831,-5.7763,-4.1774,-4.2851,-4.329,-4.329,-4.329,-4.329,-4.329,-4.329,-4.315,-4.253,-4.2496,-4.2439,0.0,0.0,-4.2432,-4.3104,-4.3966,-4.5041,-4.6419,-4.7157,-4.8417,0.0,0.0,0.0,0.0,0.0,0.0,-5.248,0.0,-5.5701,-5.5771,-5.8522,-6.0486,-6.1332,-6.2042,-6.2381,-6.2381,-6.2415,-6.2482,-6.2516,-6.2516,-6.2516,-6.2516,-6.2516,-6.2516,-6.2516,-6.2516,-6.2516,-6.255,-6.3294,-6.2441,-6.083,-6.1568,-6.066,-5.9012,-5.9523,-5.967,-5.9579,-5.973,-5.9459,-5.9146,-5.9593,-5.9725,-5.9858,-6.0476,-6.0689,-6.0859,-6.1532,-6.2683,-6.3775,-6.3775,-6.4791,-6.5799,-6.5838,-6.5838,-6.5838,-6.5876,-6.5876,-6.5669,-6.491,-6.4117,-6.3358,-6.2634,-6.0634,-5.8875,-5.815,-5.7426,-5.6943,-5.6874,-5.6874,-5.6874,-5.6909,-5.6909,-5.6909,-5.6909,-5.6909,-5.7219,-5.7909,-5.7978,-5.8288,-5.8978,-5.9012,-5.9047,-5.9081,-5.9081,-5.9081,-5.9116,-5.9116,-5.9116,-5.9116,-5.9116,-5.9116,-4.2049,-4.2851,-4.329,-4.329,-4.329,-4.329,-4.329,-4.329,-4.315,-4.253,-4.2059,-4.152,0.0,0.0,0.0,-4.221,-4.3216,0.0,-4.6326,-4.6757,0.0,0.0,0.0,-5.0761,-5.2164,-5.2485,0.0,0.0,-5.5071,-5.6387,-5.8062,-5.9359,-6.0723,-6.2076,-6.2279,-6.2381,-6.2381,-6.2956,-6.3497,-6.4038,-6.4038,-6.4038,-6.4038,-6.4038,-6.4038,-6.4038,-6.4038,-6.4038,-6.4038,-6.4241,-6.3618,-6.2616,-6.3533,-6.2706,-6.1174,-6.2353,-6.1633,-6.0202,-6.1005,-6.0679,-6.0012,-6.0106,-6.0153,-6.0168,-6.0355,-6.0706,-6.1219,-6.1753,-6.2537,-6.3266,-6.3709,-6.4084,-6.4464,-6.4948,-6.5068,-6.5226,-6.5799,-6.5876,-6.5807,-6.5635,-6.4496,-6.3358,-6.2634,-6.1496,-6.0461,-5.9702,-5.9461,-5.8909,-5.7771,-5.7633,-5.784,-5.8392,-5.8461,-5.8461,-5.8461,-5.8461,-5.853,-5.8737,-5.8737,-5.8806,-5.9012,-5.9012,-5.9288,-5.9875,-5.9909,-6.0151,-6.0703,-6.0703,-6.0703,-6.0703,-6.0703,-6.0703,-4.2505,-4.306,-4.329,-4.329,-4.329,-4.323,-4.297,-4.291,-4.2641,-4.1722,-4.1205,0.0,0.0,0.0,0.0,0.0,0.0,0.0,-4.6296,-4.685,-4.7725,0.0,-5.0221,0.0,-5.1696,-5.2414,-5.3303,0.0,-5.527,-5.6662,-5.8896,-5.9708,-6.096,-6.2821,-6.2888,-6.3024,-6.3362,-6.3768,-6.4208,-6.4613,-6.4613,-6.4613,-6.4613,-6.4613,-6.4613,-6.4613,0.0,-6.4613,-6.4613,-6.4952,-6.4481,-6.3713,-6.4562,-6.4013,-6.2769,-6.3538,-6.2723,-6.1247,-6.1806,-6.1359,-6.0563,-6.0646,-6.0803,-6.0991,-6.0991,-6.116,-6.1496,-6.1847,-6.2626,-6.3473,-6.3766,-6.4546,-6.5361,-6.5732,-6.6057,-6.6376,-6.6764,-6.6876,-6.6773,-6.6428,-6.5164,-6.3882,-6.3115,-6.2599,-6.1872,-6.0484,-6.0251,-5.977,-5.8632,-5.8428,-5.8564,-5.8978,-5.9012,-5.915,-5.9495,-5.953,-5.9668,-6.0013,-6.0013,-6.0013,-6.0013,-6.0013,-6.022,-6.0668,-6.0668,-6.0875,-6.1289,-6.1289,-6.1289,-6.1289,-6.1289,-6.1289,-4.2952,-4.329,-4.329,-4.329,-4.329,-4.311,-4.256,-4.241,-4.1991,-4.0546,0.0,0.0,-3.9409,0.0,-4.04,-4.1771,0.0,-4.4172,-4.6296,-4.7096,-4.8066,-4.9694,-5.0499,-5.1065,-5.1387,-5.2653,-5.3848,-5.4752,-5.553,-5.6934,-5.9032,-5.9742,-6.1129,-6.3463,-6.3599,-6.4005,-6.4749,-6.4749,-6.4783,-6.4884,-6.4884,-6.4884,-6.4884,-6.4884,-6.4884,-6.4884,-6.4884,-6.4884,-6.4952,-6.5561,-6.5252,-6.4388,-6.5061,-6.4675,-6.3797,-6.3797,-6.3132,-6.2319,-6.2319,-6.1702,-6.0887,-6.104,-6.1372,-6.1666,-6.1666,-6.1666,-6.1666,-6.1759,-6.2776,-6.3821,-6.3866,-6.5387,-6.6904,-6.7029,-6.7523,-6.7965,-6.8083,-6.8004,-6.7718,-6.6883,-6.5761,-6.4716,-6.3779,-6.3689,-6.3062,-6.1,-6.0617,-6.0247,-5.9575,-5.9216,-5.9047,-5.915,-5.9185,-5.9495,-6.0289,-6.0358,-6.0634,-6.1254,-6.1289,-6.1289,-6.1289,-6.1289,-6.1358,-6.1461,-6.1461,-6.1496,-6.1599,-6.1599,-6.1599,-6.1599,-6.1599,-6.1599,-4.322,-4.329,-4.329,-4.329,-4.329,-4.311,-4.256,-4.241,0.0,0.0,0.0,-4.0038,-3.8811,-3.9198,0.0,-4.1771,0.0,0.0,0.0,0.0,-4.7539,0.0,0.0,0.0,0.0,0.0,0.0,0.0,0.0,-5.822,-5.981,-6.0047,-6.1129,-6.3463,-6.4106,-6.4749,-6.5493,-6.5493,-6.5831,-6.644,-6.644,-6.644,-6.644,-6.644,-6.644,-6.644,-6.644,0.0,-6.644,-6.6576,-6.6024,-6.5127,-6.526,-6.4675,-6.3797,-6.3797,-6.3132,-6.2319,-6.2319,-6.1953,-6.1399,-6.0978,-6.0885,-6.0986,-6.0986,-6.0986,-6.1088,-6.154,-6.2409,-6.3338,-6.3793,-6.4766,-6.5878,-6.6694,-6.6946,-6.7236,-6.7925,-6.7644,-6.6874,-6.5514,-6.5561,-6.5386,-6.4024,-6.422,-6.4063,-6.2489,-6.2187,-6.1869,-6.104,-5.9805,-5.9254,-5.9909,-5.9978,-6.0289,-6.1047,-6.1116,-6.1151,-6.1289,-6.1289,-6.1289,-6.1289,-6.1289,-6.1599,-6.2255,-6.2289,-6.2565,-6.3186,-6.3186,-6.3186,-6.3186,-6.3186,-6.3186,-4.329,-4.329,-4.329,-4.329,-4.329,-4.3021,-4.2111,0.0,0.0,0.0,0.0,-3.9589,-3.8571,0.0,0.0,0.0,0.0,0.0,0.0,0.0,0.0,0.0,0.0,0.0,0.0,0.0,0.0,0.0,0.0,-5.8524,-6.0013,-6.1603,-6.3125,-6.4613,-6.5358,-6.5933,-6.6271,-6.6271,-6.644,-6.6812,-6.6812,-6.6812,-6.6812,-6.6812,-6.6812,-6.6812,-6.6812,0.0,-6.677,-6.6235,-6.5724,-6.5248,-6.472,-6.4216,-6.3797,-6.3797,-6.3132,-6.2319,-6.2319,-6.1803,-6.1155,-6.0897,-6.1206,-6.1734,-6.2252,-6.2085,-6.1683,-6.1935,-6.2351,-6.2793,-6.3036,-6.4235,-6.5326,-6.5459,-6.5942,-6.6567,-6.6954,-6.6491,-6.6005,-6.6019,-6.574,-6.5368,-6.5008,-6.5203,-6.4945,-6.3472,-6.3514,-6.3289,-6.2087,-6.1317,-6.0806,-6.0771,-6.0771,-6.1082,-6.1841,-6.191,-6.2082,-6.2461,-6.2496,-6.2496,-6.2496,-6.2496,-6.2668,-6.3048,-6.3048,-6.3255,-6.36,-6.36,-6.36,-6.36,-6.36,-6.36,-4.326,-4.329,-4.329,-4.329,-4.329,-4.2961,-4.1683,-4.1422,0.0,0.0,0.0,-3.917,-3.8332,0.0,0.0,0.0,0.0,0.0,0.0,0.0,0.0,0.0,0.0,0.0,0.0,0.0,0.0,0.0,0.0,0.0,-6.052,-6.3125,-6.4918,-6.5662,-6.644,-6.6812,-6.6812,-6.6812,-6.6812,-6.6812,-6.6812,-6.6812,-6.6812,-6.6812,-6.6812,-6.6812,-6.6812,0.0,0.0,-6.5855,-6.5337,-6.4934,-6.4124,-6.3656,-6.3466,-6.3228,-6.268,-6.1972,-6.1972,-6.145,-6.0845,-6.1021,-6.1531,-6.2184,-6.2987,-6.2695,-6.2035,-6.2035,-6.2234,-6.2383,-6.2383,-6.3688,-6.4844,-6.4341,-6.5147,-6.6052,-6.5757,-6.5315,-6.527,-6.6235,-6.5669,-6.5116,-6.5496,-6.569,-6.5413,-6.4262,-6.4477,-6.438,-6.3435,-6.2984,-6.252,-6.1901,-6.1665,-6.1875,-6.2668,-6.2737,-6.2979,-6.3565,-6.36,-6.36,-6.36,-6.36,-6.36,-6.36,-6.36,-6.36,-6.36,-6.36,-6.36,-6.36,-6.36,-6.36,-4.314,-4.329,-4.329,-4.329,-4.329,-4.2961,-4.1683,0.0,0.0,0.0,-3.8512,-3.8985,-3.7734,-3.8542,0.0,0.0,0.0,0.0,0.0,0.0,0.0,0.0,0.0,0.0,0.0,0.0,0.0,0.0,0.0,0.0,-6.2144,-6.37,-6.4918,-6.5662,-6.644,-6.6812,-6.6812,-6.6812,-6.6812,-6.6812,-6.6812,-6.6812,-6.6812,-6.6812,-6.6812,-6.6812,-6.6812,0.0,0.0,-6.632,-6.5592,-6.3937,-6.3844,-6.3228,-6.2319,-6.1399,-6.1052,-6.0949,-6.0949,-6.0897,-6.0949,-6.1853,-6.1602,-6.0949,-6.1052,-6.1052,-6.0949,-6.0949,-6.1602,-6.2319,-6.2319,-6.3116,-6.3984,-6.4091,-6.5114,-6.5757,-6.4617,-6.4695,-6.4864,-6.4412,-6.4669,-6.4819,-6.4268,-6.4662,-6.5039,-6.4829,-6.4832,-6.5073,-6.5508,-6.4483,-6.366,-6.3592,-6.2856,-6.2668,-6.3427,-6.3496,-6.3531,-6.36,-6.36,-6.36,-6.36,-6.36,-6.36,-6.36,-6.36,-6.36,-6.36,-6.36,-6.36,-6.36,-6.36,-6.36,-4.2554,-4.303,-4.329,-4.329,-4.303,-4.2491,-4.1594,0.0,0.0,-3.8392,-3.8751,-3.914,-3.8182,-3.8781,-3.9768,0.0,0.0,0.0,0.0,0.0,0.0,0.0,0.0,0.0,0.0,0.0,0.0,0.0,0.0,0.0,-6.3666,-6.4681,-6.5595,-6.6339,-6.6643,-6.6812,-6.6812,-6.6812,-6.6812,-6.6812,-6.6812,-6.6812,-6.6812,-6.6812,-6.6812,-6.6812,-6.6812,0.0,0.0,-6.5975,-6.5459,-6.4584,-6.3371,-6.2632,-6.2171,-6.1175,-6.0794,-6.0794,-6.0794,-6.0794,-6.0845,-6.1277,-6.1124,-6.0897,-6.15,-6.1277,-6.0794,-6.0794,-6.1072,-6.143,-6.143,-6.1922,-6.268,-6.3514,-6.3782,-6.372,-6.3196,-6.3292,-6.3563,-6.4035,-6.3988,-6.4035,-6.4531,-6.5213,-6.5481,-6.505,-6.6019,-6.6609,-6.6046,-6.5471,-6.4926,-6.4393,-6.3289,-6.27,-6.2973,-6.338,-6.36,-6.36,-6.36,-6.36,-6.36,-6.36,-6.36,-6.36,-6.36,-6.36,-6.36,-6.36,-6.36,-6.36,-6.36,-6.36,-4.1696,-4.2395,-4.2821,-4.3,-4.2551,-4.1931,0.0,0.0,0.0,-3.8661,-3.8931,-3.92,-3.8512,-3.896,-3.9798,-4.0905,0.0,0.0,0.0,0.0,0.0,0.0,0.0,0.0,0.0,0.0,0.0,0.0,0.0,0.0,-6.4546,-6.5493,-6.6271,-6.6779,-6.6812,-6.6812,-6.6812,-6.6812,-6.6812,-6.6812,-6.6812,-6.6812,-6.6812,-6.6812,-6.6812,-6.6812,-6.6812,0.0,0.0,-6.5898,-6.5382,-6.472,-6.3276,-6.2534,-6.2171,-6.1175,-6.0794,-6.0794,-6.0794,-6.0794,-6.0794,-6.0794,-6.0794,-6.0949,-6.1652,-6.1379,-6.0794,-6.0794,-6.0794,-6.0794,-6.0794,-6.1206,-6.1753,-6.2485,-6.2516,-6.2383,-6.2383,-6.2531,-6.2922,-6.3941,-6.3785,-6.3723,-6.4577,-6.5288,-6.5735,-6.5657,-6.7082,-6.7776,-6.6772,-6.6466,-6.5874,-6.461,-6.3373,-6.2712,-6.2855,-6.3343,-6.36,-6.36,-6.36,-6.36,-6.36,-6.36,-6.36,-6.36,-6.36,-6.36,-6.36,-6.36,-6.36,-6.36,-6.36,-6.36,-4.0615,-4.1253,-4.1602,-4.2261,-4.1931,-4.1205,0.0,0.0,0.0,-3.8661,-3.8931,-3.92,-3.8512,-3.896,-3.9649,-4.0307,-4.0965,0.0,0.0,0.0,0.0,0.0,0.0,0.0,0.0,0.0,0.0,0.0,0.0,0.0,-6.4546,-6.6,-6.6812,-6.6812,-6.6812,-6.6812,-6.6812,-6.6812,-6.6812,-6.6812,-6.6812,-6.6812,-6.6812,-6.6812,-6.6812,0.0,0.0,0.0,0.0,-6.6397,-6.5636,-6.3844,-6.3797,-6.318,-6.2171,-6.1175,-6.0794,-6.0794,-6.0794,-6.0794,-6.0794,-6.0794,-6.0794,-6.0794,-6.0794,-6.0794,-6.0794,-6.0794,-6.0794,-6.0794,-6.0794,-6.1206,-6.1481,-6.0949,-6.1633,-6.2383,-6.2383,-6.2825,-6.3341,-6.3897,-6.4024,-6.4024,-6.4024,-6.4574,-6.5516,-6.699,-6.7848,-6.827,-6.8184,-6.7596,-6.637,-6.4137,-6.3224,-6.3012,-6.3523,-6.36,-6.36,-6.36,-6.36,-6.36,-6.36,-6.36,-6.36,-6.36,-6.36,-6.36,-6.36,-6.36,-6.36,-6.36,-6.36,-6.36,-3.9188,-4.012,-4.0733,-4.1509,-4.1205,-4.0666,-4.0457,0.0,0.0,-3.917,-3.926,-3.9349,-3.914,-3.9649,-4.0307,-4.0965,-4.1662,0.0,0.0,0.0,0.0,0.0,0.0,0.0,0.0,0.0,0.0,0.0,0.0,0.0,-6.458,-6.6,-6.6812,-6.6812,-6.6812,-6.6812,-6.6812,-6.6812,-6.6812,-6.6812,-6.6812,-6.6812,-6.6812,-6.6812,-6.644,0.0,0.0,0.0,0.0,-6.4629,-6.4355,-6.375,-6.3036,-6.2583,-6.2171,-6.1175,-6.0794,-6.0794,-6.0794,-6.0794,-6.0794,-6.0794,-6.0794,-6.0794,-6.0794,-6.0794,-6.0794,-6.0794,-6.0794,-6.0794,-6.0794,-6.0949,-6.1,-6.0845,-6.1052,-6.141,-6.1784,-6.1985,-6.2383,-6.3293,-6.3822,-6.424,-6.4608,-6.5636,-6.6612,-6.7135,-6.779,-6.8216,-6.828,-6.7179,-6.5968,-6.4747,-6.353,-6.2816,-6.2919,-6.2931,-6.3083,-6.3563,-6.36,-6.36,-6.36,-6.36,-6.36,-6.36,-6.36,-6.36,-6.36,-6.36,-6.36,-6.36,-6.36,-6.36,0.0,-3.8303,-3.8894,-4.0003,-3.9768,0.0,0.0,0.0,0.0,0.0,0.0,-3.9373,-3.9373,-3.9948,-4.0606,-4.1265,-4.1961,0.0,0.0,0.0,0.0,0.0,0.0,0.0,0.0,0.0,0.0,0.0,0.0,0.0,-6.4613,-6.6,-6.6812,-6.6812,-6.6812,-6.6812,-6.6812,-6.6812,-6.6812,-6.6812,-6.6812,-6.6567,-6.6235,-6.6643,-6.6062,0.0,0.0,0.0,0.0,-6.4355,-6.417,-6.3703,-6.268,-6.2072,-6.1652,-6.1021,-6.0794,-6.0794,-6.0794,-6.0794,-6.0794,-6.0794,-6.0794,-6.0794,-6.0794,-6.0794,-6.0794,-6.0794,-6.0794,-6.0794,-6.0794,-6.0794,-6.0794,-6.0794,-6.0794,-6.0949,-6.1481,-6.1801,-6.221,-6.3108,-6.3829,-6.4356,-6.4735,-6.6128,-6.7207,-6.7254,-6.8281,-6.8872,-6.8378,-6.7497,-6.6545,-6.544,-6.3813,-6.2922,-6.3057,-6.2761,-6.2783,-6.3193,-6.3454,-6.36,-6.36,-6.36,-6.36,-6.36,-6.36,-6.36,-6.36,-6.36,-6.36,-6.36,-6.36,-6.36,0.0,0.0,0.0,0.0,0.0,0.0,0.0,0.0,0.0,0.0,0.0,0.0,0.0,0.0,-4.0666,-4.1294,0.0,0.0,0.0,0.0,0.0,0.0,0.0,0.0,0.0,0.0,0.0,0.0,0.0,0.0,-6.4681,-6.6034,-6.6812,-6.6812,-6.6812,-6.6812,-6.6812,-6.6812,-6.6812,-6.6812,-6.6812,-6.6311,-6.5426,-6.6397,-6.5724,0.0,0.0,0.0,0.0,-6.5024,-6.4447,-6.3514,-6.2534,-6.1602,-6.0794,-6.0794,-6.0794,-6.0794,-6.0794,-6.0794,-6.0794,-6.0794,-6.0794,-6.0794,-6.0794,-6.0794,-6.0794,-6.0794,-6.0794,-6.0794,-6.0794,-6.0794,-6.0794,-6.0794,-6.0824,-6.101,-6.1574,-6.2206,-6.2828,-6.3388,-6.4007,-6.448,-6.448,-6.6053,-6.7362,-6.746,-6.9093,-6.9796,-6.8554,-6.8227,-6.7558,-6.6078,-6.4057,-6.3036,-6.3537,-6.2916,-6.2552,-6.2591,-6.323,-6.36,-6.36,-6.36,-6.36,-6.36,-6.36,-6.36,-6.36,-6.36,-6.36,-6.36,-6.36,-6.36,-3.2717,0.0,-3.5601,-3.6568,0.0,0.0,0.0,0.0,0.0,0.0,0.0,0.0,0.0,0.0,0.0,0.0,0.0,0.0,0.0,0.0,0.0,0.0,0.0,0.0,0.0,0.0,0.0,0.0,0.0,-6.485,-6.5392,-6.6305,-6.6812,-6.6812,-6.6812,-6.6812,-6.6812,-6.6812,-6.6812,-6.6812,-6.6812,-6.6686,-6.644,-6.6686,-6.6105,0.0,0.0,0.0,-6.2972,-6.2171,-6.1753,-6.15,-6.1226,-6.1,-6.0794,-6.0794,-6.0794,-6.0794,-6.0794,-6.0794,-6.0794,-6.0794,-6.0794,-6.0794,-6.0794,-6.0794,-6.0794,-6.0794,-6.0794,-6.0794,-6.0794,-6.0794,-6.0794,-6.0794,-6.1194,-6.172,-6.2259,-6.2924,-6.3548,-6.4063,-6.4733,-6.5258,-6.5258,-6.6087,-6.71,-6.8093,-6.8189,-6.8354,-6.8989,-6.7618,-6.6267,-6.5306,-6.3356,-6.1934,-6.1568,-6.175,-6.2082,-6.2552,-6.323,-6.36,-6.36,-6.36,-6.36,-6.36,-6.36,-6.36,-6.36,-6.36,-6.36,-6.36,-6.36,-6.36,-3.1919,-3.3146,-3.4405,-3.5183,-3.6207,-3.7135,0.0,0.0,0.0,0.0,0.0,0.0,0.0,0.0,0.0,0.0,0.0,0.0,0.0,0.0,0.0,0.0,0.0,0.0,0.0,0.0,0.0,0.0,0.0,-6.472,-6.5009,-6.65,-6.7151,-6.6812,-6.669,-6.669,-6.6812,-6.6812,-6.6812,-6.6812,-6.6812,-6.6567,-6.6105,-6.6105,-6.5293,0.0,0.0,0.0,-6.227,-6.1702,-6.15,-6.145,-6.1,-6.0794,-6.0794,-6.0794,-6.0794,-6.0794,-6.0794,-6.0794,-6.0794,-6.0794,-6.0794,-6.0794,-6.0794,-6.0794,-6.0794,-6.0794,-6.0794,-6.0794,-6.0794,-6.0794,-6.0886,-6.1194,-6.1532,-6.1955,-6.2548,-6.322,-6.3792,-6.4056,-6.4724,-6.5223,-6.5223,-6.6038,-6.6806,-6.7137,-6.7375,-6.7733,-6.8369,-6.6872,-6.5788,-6.5944,-6.3464,-6.1795,-6.1762,-6.1438,-6.1391,-6.1683,-6.2625,-6.3121,-6.3121,-6.3417,-6.36,-6.36,-6.36,-6.36,-6.36,-6.36,-6.36,-6.36,-6.36,-6.36,-3.1882,-3.2648,-3.3388,-3.4109,-3.5406,-3.6656,0.0,0.0,0.0,0.0,0.0,0.0,0.0,0.0,0.0,0.0,0.0,0.0,0.0,0.0,0.0,0.0,0.0,0.0,0.0,0.0,0.0,0.0,0.0,-6.4397,-6.4156,-6.6253,-6.7208,-6.6601,-6.6324,-6.6401,-6.677,-6.6686,-6.6686,-6.6812,-6.6812,-6.6278,-6.5293,-6.5293,-6.4262,-6.2534,0.0,0.0,-6.227,-6.2121,-6.2072,-6.1972,-6.1124,-6.0794,-6.0794,-6.0794,-6.0794,-6.0794,-6.0794,-6.0794,-6.0794,-6.0794,-6.0794,-6.0794,-6.0794,-6.0794,-6.0794,-6.0794,-6.0794,-6.0794,-6.0794,-6.0886,-6.1101,-6.1656,-6.1963,-6.2271,-6.2856,-6.3502,-6.3995,-6.3995,-6.4487,-6.4888,-6.4888,-6.583,-6.6354,-6.5915,-6.6806,-6.7529,-6.7542,-6.6369,-6.5932,-6.6879,-6.3975,-6.2191,-6.2716,-6.1369,-6.0548,-6.0548,-6.1843,-6.2629,-6.2745,-6.3305,-6.36,-6.36,-6.36,-6.36,-6.36,-6.36,-6.36,-6.36,-6.36,-6.36,-3.1846,-3.2648,-3.3388,-3.4109,-3.5406,-3.6656,0.0,0.0,0.0,0.0,0.0,0.0,0.0,0.0,0.0,0.0,0.0,0.0,0.0,0.0,0.0,0.0,0.0,0.0,0.0,0.0,0.0,0.0,0.0,0.0,-6.3882,-6.5012,-6.5647,-6.5548,-6.5514,-6.5901,-6.677,-6.5975,-6.5975,-6.6812,-6.6812,-6.6278,-6.5293,-6.5293,-6.4675,-6.3514,0.0,-6.2467,-6.2221,-6.1379,-6.1021,-6.1021,-6.0845,-6.0794,-6.0794,-6.0794,-6.0794,-6.0794,-6.0794,-6.0794,-6.0794,-6.0794,-6.0794,-6.0794,-6.0794,-6.0794,-6.0794,-6.0794,-6.0794,-6.0794,-6.0794,-6.1225,-6.1686,-6.1779,-6.2671,-6.3533,-6.3656,-6.4241,-6.4734,-6.4734,-6.4826,-6.4888,-6.4888,-6.5022,-6.546,-6.6321,-6.6638,-6.7078,-6.7949,-6.7422,-6.6727,-6.6307,-6.415,-6.2515,-6.199,-6.0659,-5.9848,-5.9848,-6.1602,-6.2821,-6.3417,-6.3563,-6.36,-6.36,-6.36,-6.36,-6.36,-6.36,-6.36,-6.36,-6.36,-6.36,-3.247,-3.3248,-3.4059,-3.5184,-3.6242,-3.7135,0.0,0.0,0.0,0.0,0.0,0.0,0.0,0.0,0.0,0.0,0.0,0.0,0.0,0.0,0.0,0.0,0.0,0.0,0.0,0.0,0.0,0.0,0.0,0.0,-6.3004,-6.4839,-6.5724,-6.5326,-6.569,-6.6168,-6.677,-6.5248,-6.5024,-6.6019,-6.6019,-6.5426,-6.4447,-6.3937,-6.3419,-6.2923,0.0,-6.15,-6.145,-6.1,-6.0794,-6.0794,-6.0794,-6.0794,-6.0794,-6.0794,-6.0794,-6.0794,-6.0794,-6.0794,-6.0794,-6.0794,-6.0794,-6.0794,-6.0794,-6.0794,-6.0794,-6.0794,-6.0794,-6.0794,-6.0794,-6.1317,-6.1902,-6.2271,-6.3102,-6.3933,-6.4334,-6.4672,-6.4888,-6.4888,-6.4888,-6.4888,-6.4888,-6.4888,-6.5053,-6.56,-6.5708,-6.6054,-6.7181,-6.6729,-6.6227,-6.6145,-6.4185,-6.2599,-6.1854,-6.0526,-5.9848,-6.0206,-6.1103,-6.2003,-6.3007,-6.3045,-6.323,-6.36,-6.36,-6.36,-6.36,-6.36,-6.36,-6.36,-6.36,-6.36,-3.3178,-3.3871,-3.4685,-3.6309,0.0,-3.7584,0.0,0.0,0.0,0.0,0.0,0.0,0.0,0.0,0.0,0.0,0.0,0.0,0.0,0.0,0.0,0.0,0.0,0.0,0.0,0.0,0.0,0.0,0.0,0.0,-6.194,-6.4362,-6.5403,-6.4617,-6.537,-6.5889,-6.6105,-6.4584,-6.4309,-6.5293,-6.5069,-6.4401,-6.3419,-6.2632,-6.2171,-6.1903,-6.1124,-6.0794,-6.0794,-6.0794,-6.0794,-6.0794,-6.0794,-6.0794,-6.0794,-6.0794,-6.0794,-6.0794,-6.0794,-6.0794,-6.0794,-6.0794,-6.0794,-6.0794,-6.0794,-6.0794,-6.0794,-6.0794,-6.0917,-6.104,-6.104,-6.1532,-6.221,-6.2887,-6.3595,-6.4241,-6.4764,-6.4888,-6.4888,-6.4888,-6.4888,-6.4888,-6.4888,-6.4888,-6.4943,-6.5053,-6.5108,-6.546,-6.6512,-6.6112,-6.5758,-6.5752,-6.4077,-6.2492,-6.1433,-6.0332,-5.9935,-6.042,-6.0633,-6.1227,-6.2318,-6.2397,-6.2625,-6.3155,-6.3305,-6.338,-6.338,-6.3491,-6.36,-6.36,-6.36,-6.36,-3.3705,-3.4279,-3.4772,-3.6845,0.0,0.0,0.0,0.0,0.0,0.0,0.0,0.0,0.0,0.0,0.0,0.0,0.0,0.0,0.0,0.0,0.0,0.0,0.0,0.0,0.0,0.0,0.0,0.0,0.0,0.0,-6.0949,-6.2858,-6.3531,-6.2565,-6.3483,-6.397,-6.4031,-6.3891,-6.4309,-6.5293,-6.4355,-6.3371,-6.2418,-6.2319,-6.1803,-6.0897,-6.0845,-6.0794,-6.0794,-6.0794,-6.0794,-6.0794,-6.0794,-6.0794,-6.0794,-6.0794,-6.0794,-6.0794,-6.0794,-6.0794,-6.0794,-6.0794,-6.0794,-6.0794,-6.0794,-6.0794,-6.0794,-6.0794,-6.1255,-6.1748,-6.1748,-6.224,-6.2918,-6.3595,-6.4303,-6.4826,-6.4888,-6.4888,-6.4888,-6.4888,-6.4888,-6.4888,-6.4888,-6.4888,-6.5053,-6.5538,-6.5646,-6.5862,-6.648,-6.6554,-6.6038,-6.478,-6.3719,-6.2201,-6.0061,-5.9781,-5.9716,-5.976,-6.0335,-6.102,-6.1756,-6.1763,-6.1797,-6.1837,-6.2397,-6.2668,-6.2668,-6.3305,-6.36,-6.36,-6.36,-6.36,-3.3422,-3.4632,-3.5933,-3.7127,0.0,0.0,0.0,0.0,0.0,0.0,0.0,0.0,0.0,0.0,0.0,0.0,0.0,0.0,0.0,0.0,0.0,0.0,0.0,0.0,0.0,0.0,0.0,0.0,0.0,0.0,0.0,-6.2121,-6.268,-6.2319,-6.3276,-6.3797,-6.3797,-6.318,-6.3068,-6.3451,-6.3068,-6.2369,-6.1379,-6.1379,-6.1175,-6.0794,-6.0794,-6.0794,-6.0794,-6.0794,-6.0794,-6.0794,-6.0794,-6.0794,-6.0794,-6.0794,-6.0794,-6.0794,-6.0794,-6.0794,-6.0794,-6.0794,-6.0794,-6.0794,-6.0794,-6.1101,-6.144,-6.144,-6.1902,-6.2333,-6.1933,-6.2641,-6.3502,-6.3779,-6.4364,-6.4888,-6.4888,-6.4888,-6.4888,-6.4888,-6.4888,-6.4888,-6.4888,-6.4888,-6.4943,-6.5132,-6.5187,-6.5406,-6.5969,-6.6023,-6.5649,-6.4626,-6.2888,-6.127,-5.9834,-5.9716,-5.9716,-5.9716,-5.9935,-6.0378,-6.1061,-6.1061,-6.1268,-6.1716,-6.1923,-6.2201,-6.2591,-6.2821,-6.3158,-6.36,-6.36,-6.36,-3.4025,-3.5351,-3.6746,0.0,0.0,0.0,0.0,0.0,0.0,0.0,0.0,0.0,0.0,0.0,0.0,0.0,0.0,0.0,0.0,0.0,0.0,0.0,0.0,0.0,0.0,0.0,0.0,0.0,0.0,0.0,0.0,-6.1753,-6.2171,-6.1853,-6.2826,-6.318,-6.2843,-6.2171,-6.1853,-6.1853,-6.1853,-6.145,-6.0794,-6.0794,-6.0794,-6.0794,-6.0794,-6.0794,-6.0794,-6.0794,-6.0794,-6.0794,-6.0794,-6.0794,-6.0794,-6.0794,-6.0794,-6.0794,-6.0794,-6.0794,-6.0794,-6.0794,-6.0948,-6.1132,-6.1132,-6.1594,-6.2117,-6.2117,-6.261,-6.3041,-6.2579,-6.3133,-6.3872,-6.4118,-6.4549,-6.4888,-6.4888,-6.4888,-6.4888,-6.4888,-6.4888,-6.4888,-6.4888,-6.4888,-6.4888,-6.4888,-6.4888,-6.5053,-6.5406,-6.546,-6.5054,-6.4035,-6.2073,-6.0558,-5.9826,-5.9758,-5.9716,-5.9716,-5.9716,-5.999,-6.0675,-6.0506,-6.0717,-6.1391,-6.1595,-6.1797,-6.2003,-6.2591,-6.3045,-6.3305,-6.3491,-6.36,-3.5832,-3.6507,0.0,0.0,0.0,0.0,0.0,0.0,0.0,0.0,0.0,0.0,0.0,0.0,0.0,0.0,0.0,0.0,0.0,0.0,0.0,0.0,0.0,0.0,0.0,0.0,0.0,0.0,0.0,0.0,0.0,-6.1753,-6.1853,-6.0845,-6.1753,-6.1803,-6.0794,-6.0794,-6.0794,-6.0794,-6.0794,-6.0794,-6.0794,-6.0794,-6.0794,-6.0794,-6.0794,-6.0794,-6.0794,-6.0794,-6.0794,-6.0794,-6.0794,-6.0794,-6.0794,-6.0794,-6.0794,-6.0794,-6.0794,-6.0794,-6.0794,-6.0824,-6.1255,-6.1809,-6.1809,-6.2302,-6.2825,-6.2825,-6.3318,-6.3787,-6.3787,-6.3787,-6.4026,-6.4734,-6.4888,-6.4888,-6.4888,-6.4888,-6.4888,-6.4888,-6.4888,-6.4888,-6.4888,-6.4888,-6.4888,-6.4888,-6.4888,-6.4888,-6.4888,-6.4888,-6.4305,-6.2789,-6.12,-6.0187,-6.0,-5.9794,-5.9673,-5.9673,-5.9716,-5.999,-6.0675,-6.0033,-6.0022,-6.0675,-6.135,-6.1391,-6.0717,-6.2663,-6.3268,-6.2629,-6.3305,-6.36,-3.5927,0.0,0.0,0.0,0.0,0.0,0.0,0.0,0.0,0.0,0.0,0.0,0.0,0.0,0.0,0.0,0.0,0.0,0.0,0.0,0.0,0.0,0.0,0.0,0.0,0.0,0.0,0.0,0.0,0.0,0.0,-6.1072,-6.1124,-6.0794,-6.1072,-6.1072,-6.0794,-6.0794,-6.0794,-6.0794,-6.0794,-6.0794,-6.0794,-6.0794,-6.0794,-6.0794,-6.0794,-6.0794,-6.0794,-6.0794,-6.0794,-6.0794,-6.0794,-6.0794,-6.0794,-6.0794,-6.0794,-6.0794,-6.0794,-6.0794,-6.0886,-6.1348,-6.1656,-6.1902,-6.2364,-6.2979,-6.3533,-6.3533,-6.4026,-6.458,-6.458,-6.458,-6.4641,-6.4857,-6.4888,-6.4888,-6.4888,-6.4888,-6.4888,-6.4888,-6.4888,-6.4888,-6.4888,-6.4888,-6.4888,-6.4888,-6.4888,-6.4888,-6.4888,-6.4057,-6.3224,-6.2664,-6.0871,-5.963,-5.9458,-5.9298,-5.9229,-5.9229,-5.954,-5.9804,-6.0022,-5.9804,-6.0022,-6.0675,-6.0928,-6.135,-6.2043,-6.2591,-6.3045,-6.3305,-6.3526,-6.36,0.0,0.0,0.0,0.0,0.0,0.0,0.0,0.0,0.0,0.0,0.0,0.0,0.0,0.0,0.0,0.0,0.0,0.0,0.0,0.0,0.0,0.0,0.0,0.0,0.0,0.0,0.0,0.0,0.0,0.0,0.0,-6.0794,-6.0794,-6.0794,-6.0794,-6.0794,-6.0794,-6.0794,-6.0794,-6.0794,-6.0794,-6.0794,-6.0794,-6.0794,-6.0794,-6.0794,-6.0794,-6.0794,-6.0794,-6.0794,-6.0794,-6.0794,-6.0794,-6.0794,-6.0794,-6.0794,-6.0794,-6.0794,-6.0794,-6.0978,-6.1255,-6.1686,-6.2179,-6.2702,-6.3102,-6.3687,-6.4241,-6.4241,-6.458,-6.4888,-6.4888,-6.4888,-6.4888,-6.4888,-6.4888,-6.4888,-6.4888,-6.4888,-6.4888,-6.4888,-6.4888,-6.4888,-6.4888,-6.4888,-6.4888,-6.4888,-6.4888,-6.4888,-6.4888,-6.3687,-6.2778,-6.2693,-6.0776,-5.9465,-5.9316,-5.8919,-5.8792,-5.9004,-5.9062,-5.9197,-5.9407,-5.9584,-6.0022,-6.0675,-6.0717,-6.1061,-6.1843,-6.2358,-6.2817,-6.323,-6.3489,-6.36,0.0,0.0,0.0,0.0,0.0,0.0,0.0,0.0,0.0,0.0,0.0,0.0,0.0,0.0,0.0,0.0,0.0,0.0,0.0,0.0,0.0,0.0,0.0,0.0,0.0,0.0,0.0,0.0,0.0,0.0,0.0,-6.0794,-6.0794,-6.0794,-6.0794,-6.0794,-6.0794,-6.0794,-6.0794,-6.0794,-6.0794,-6.0794,-6.0794,-6.0794,-6.0794,-6.0794,-6.0794,-6.0794,-6.0794,-6.0794,-6.0794,-6.0794,-6.0794,-6.0794,-6.0794,-6.0794,-6.0794,-6.0794,-6.0794,-6.1255,-6.1809,-6.1871,-6.2764,-6.3787,-6.3903,-6.4364,-6.4888,-6.4888,-6.4888,-6.4888,-6.4888,-6.4888,-6.4888,-6.4888,-6.4888,-6.4888,-6.4888,-6.4888,-6.4888,-6.4888,-6.4888,-6.4888,-6.4888,-6.4888,-6.4888,-6.4888,-6.4888,-6.4888,-6.4795,-6.3626,-6.2764,-6.2641,-6.071,-5.9394,-5.9332,-5.8593,-5.8349,-5.8837,-5.8473,-5.8395,-5.8914,-5.9363,-5.9903,-6.06,-6.0633,-6.0675,-6.0802,-6.1923,-6.2513,-6.2591,-6.3121,-6.3454,0.0,0.0,0.0,0.0,0.0,0.0,0.0,0.0,0.0,0.0,0.0,0.0,0.0,0.0,0.0,0.0,0.0,0.0,0.0,0.0,0.0,0.0,0.0,0.0,0.0,0.0,0.0,0.0,0.0,0.0,-6.0794,-6.0794,-6.0794,-6.0794,-6.0794,-6.0794,-6.0794,-6.0794,-6.0794,0.0,-6.0794,-6.0794,-6.0794,-6.0794,-6.0794,-6.0794,-6.0794,-6.0794,-6.0794,-6.0794,-6.0794,-6.0794,-6.0794,-6.0794,-6.0794,-6.0794,-6.0794,-6.0794,-6.0794,-6.1255,-6.1902,-6.2425,-6.3164,-6.3933,-6.4487,-6.4764,-6.4888,-6.4888,-6.4888,-6.4888,-6.4888,-6.4888,-6.4888,-6.4888,-6.4888,-6.4888,-6.4888,-6.4888,-6.4888,-6.4888,-6.4888,-6.4888,-6.4888,-6.4888,-6.4888,-6.4888,-6.4888,-6.4703,-6.4118,-6.3318,-6.2425,-6.1348,-5.9849,-5.8746,-5.8221,-5.782,-5.77,-5.7825,-5.8072,-5.8257,-5.8349,-5.8441,-5.8998,-6.0022,-6.0065,-6.0567,-6.1473,-6.1324,-6.1649,-6.2352,-6.2127,-6.2513,0.0,0.0,0.0,0.0,0.0,0.0,0.0,0.0,0.0,0.0,0.0,0.0,0.0,0.0,0.0,0.0,0.0,0.0,0.0,0.0,0.0,0.0,0.0,0.0,0.0,0.0,0.0,0.0,0.0,-6.0794,-6.0794,-6.0794,-6.0794,-6.0794,-6.0794,-6.0794,-6.0794,-6.0794,-6.0794,-6.0794,-6.0794,-6.0794,-6.0794,-6.0794,-6.0794,-6.0794,-6.0794,-6.0794,-6.0794,-6.0794,-6.0794,-6.0794,-6.0794,-6.0794,-6.0794,-6.0794,-6.0794,-6.0794,-6.0794,-6.144,-6.2364,-6.2702,-6.3502,-6.4426,-6.4795,-6.4888,-6.4888,-6.4888,-6.4888,-6.4888,-6.4888,-6.4888,-6.4888,-6.4888,-6.4888,-6.4888,-6.4888,-6.4888,-6.4888,-6.4888,-6.4888,-6.4888,-6.4888,-6.4888,-6.4888,-6.4888,-6.4611,-6.4241,-6.3872,-6.2671,-6.1563,-6.0886,-5.9285,-5.8196,-5.7857,-5.7422,-5.7258,-5.7495,-5.7543,-5.7606,-5.784,-5.7684,-5.8026,-5.9056,-5.91,-5.9543,-6.0534,-6.0204,-6.0754,-6.1963,-6.173,-6.2161,0.0,0.0,0.0,0.0,0.0,0.0,0.0,0.0,0.0,0.0,0.0,0.0,0.0,0.0,0.0,0.0,0.0,0.0,0.0,0.0,0.0,0.0,0.0,0.0,0.0,0.0,0.0,0.0,0.0,-6.0794,-6.0794,-6.0794,-6.0794,-6.0742,-6.0794,-6.0794,-6.0742,-6.0794,-6.0794,-6.0794,-6.0794,-6.0794,-6.0794,-6.0794,-6.0794,-6.0794,-6.0794,-6.0794,-6.0794,-6.0794,-6.0794,-6.0794,-6.0794,-6.0794,-6.0794,-6.0794,-6.0794,-6.0824,-6.0948,-6.1779,-6.2825,-6.2948,-6.3872,-6.4888,-6.4888,-6.4888,-6.4888,-6.4888,-6.4888,-6.4888,-6.4888,-6.4888,-6.4888,-6.4888,-6.4888,-6.4888,-6.4888,-6.4888,-6.4888,-6.4888,-6.4888,-6.4888,-6.4888,-6.4888,-6.4857,-6.4734,-6.421,-6.3687,-6.3349,-6.184,-6.0671,-6.0301,-5.8762,-5.7765,-5.7672,-5.7148,-5.7002,-5.7353,-5.7019,-5.7002,-5.7353,-5.7002,-5.7163,-5.7933,-5.8026,-5.8409,-5.9056,-5.8966,-5.9773,-6.1365,-6.1291,-6.1883,0.0,0.0,0.0,0.0,0.0,0.0,0.0,0.0,0.0,0.0,0.0,0.0,0.0,0.0,0.0,0.0,0.0,0.0,0.0,0.0,0.0,0.0,0.0,0.0,0.0,0.0,0.0,0.0,-6.0794,-6.0794,-6.0794,-6.0794,-6.069,-6.0481,-6.069,-6.069,-6.0481,-6.069,-6.0794,-6.0794,-6.0794,-6.0794,-6.0794,-6.0794,-6.0794,-6.0794,-6.0794,-6.0794,-6.0794,-6.0794,-6.0794,-6.0794,-6.0794,-6.0794,-6.0794,-6.0794,-6.0794,-6.0886,-6.1471,-6.2179,-6.2918,-6.3502,-6.4241,-6.4888,-6.4888,-6.4888,-6.4888,-6.4888,-6.4888,-6.4888,-6.4888,-6.4888,-6.4888,-6.4888,-6.4888,-6.4888,-6.4888,-6.4888,-6.4888,-6.4888,-6.4888,-6.4888,-6.4888,-6.4888,-6.4672,-6.4057,-6.3848,-6.3195,-6.144,-6.0978,-6.0116,-5.8362,-5.798,-5.758,-5.6994,-5.6871,-5.681,-5.6906,-5.6858,-5.681,-5.6906,-5.6858,-5.6858,-5.7002,-5.7401,-5.784,-5.8318,-5.7933,-5.8683,-6.0482,-6.0065,-6.087,0.0,0.0,0.0,0.0,0.0,0.0,0.0,0.0,0.0,0.0,0.0,0.0,0.0,0.0,0.0,0.0,0.0,0.0,0.0,0.0,0.0,0.0,0.0,0.0,0.0,0.0,0.0,0.0,-6.0586,-6.0481,-6.0355,-6.0355,-6.0302,-6.0197,-6.0429,-6.0534,-6.0377,-6.0638,-6.0794,-6.0794,-6.0794,-6.0794,-6.0794,-6.0794,-6.0794,-6.0794,-6.0794,-6.0794,-6.0794,-6.0794,-6.0794,-6.0794,-6.0794,-6.0794,-6.0794,-6.0794,-6.0794,-6.0886,-6.1563,-6.224,-6.2918,-6.3595,-6.4303,-6.4888,-6.4888,-6.4888,-6.4888,-6.4888,-6.4888,-6.4888,-6.4888,-6.4888,-6.4888,-6.4888,-6.4888,-6.4888,-6.4888,-6.4888,-6.4888,-6.4888,-6.4888,-6.4888,-6.4888,-6.4888,-6.4641,-6.3933,-6.3502,-6.2671,-6.1009,-6.0147,-5.9193,-5.79,-5.7487,-5.7148,-5.684,-5.681,-5.681,-5.681,-5.681,-5.681,-5.681,-5.681,-5.681,-5.681,-5.7002,-5.7211,-5.7401,-5.7211,-5.7793,-5.9133,-5.9487,-6.0365,0.0,0.0,0.0,0.0,0.0,0.0,0.0,0.0,0.0,0.0,0.0,0.0,0.0,0.0,0.0,0.0,0.0,0.0,0.0,0.0,0.0,0.0,0.0,0.0,0.0,0.0,0.0,0.0,-6.0272,-6.0197,-6.0016,-6.0016,-5.9963,-5.988,-6.0144,-6.0272,-6.0167,-6.0429,-6.0617,-6.0617,-6.0638,-6.069,-6.069,-6.0742,-6.0794,-6.0794,-6.0794,-6.0886,-6.104,-6.104,-6.1163,-6.1286,-6.1132,-6.104,-6.104,-6.0855,-6.0794,-6.0917,-6.1779,-6.2394,-6.2948,-6.381,-6.4457,-6.4888,-6.4888,-6.4888,-6.4888,-6.4888,-6.4888,-6.4888,-6.4888,-6.4888,-6.4888,-6.4888,-6.4888,-6.4888,-6.4888,-6.4888,-6.4888,-6.4888,-6.4888,-6.4888,-6.4888,-6.4734,-6.4395,-6.3687,-6.2856,-6.1809,-6.0455,-5.9255,-5.827,-5.7641,-5.7118,-5.681,-5.681,-5.681,-5.681,-5.681,-5.681,-5.681,-5.681,-5.681,-5.681,-5.681,-5.681,-5.681,-5.681,-5.681,-5.7401,-5.8546,-5.9234,-6.0237,0.0,0.0,0.0,0.0,0.0,0.0,0.0,0.0,0.0,0.0,0.0,0.0,0.0,0.0,0.0,0.0,0.0,0.0,0.0,0.0,0.0,0.0,0.0,0.0,0.0,0.0,0.0,0.0,-6.0016,-6.0016,-6.0016,-6.0016,-5.9827,-5.9529,-5.9827,-5.988,-5.9529,-5.988,-6.0069,-6.0069,-6.0302,-6.0429,-6.0429,-6.069,-6.0794,-6.0794,-6.0794,-6.1163,-6.1748,-6.1748,-6.2148,-6.2641,-6.2025,-6.1748,-6.1686,-6.104,-6.0794,-6.0978,-6.2302,-6.2794,-6.3041,-6.4395,-6.4857,-6.4888,-6.4888,-6.4888,-6.4888,-6.4888,-6.4888,-6.4888,-6.4888,-6.4888,-6.4888,-6.4888,-6.4888,-6.4888,-6.4888,-6.4888,-6.4888,-6.4888,-6.4888,-6.4888,-6.4888,-6.4334,-6.3656,-6.2979,-6.1748,-6.0424,-5.907,-5.827,-5.7611,-5.6933,-5.684,-5.681,-5.681,-5.681,-5.681,-5.681,-5.681,-5.681,-5.681,-5.681,-5.681,-5.681,-5.681,-5.681,-5.681,-5.681,-5.7746,-5.9499,-5.9587,-6.0609,0.0,0.0,0.0,0.0,0.0,0.0,0.0,0.0,0.0,0.0,0.0,0.0,0.0,0.0,0.0,0.0,0.0,0.0,0.0,0.0,0.0,0.0,0.0,0.0,0.0,0.0,0.0,0.0,0.0,-5.9583,-5.9452,-5.9452,-5.9399,-5.9261,-5.9529,-5.972,-5.9827,-5.9933,-6.0016,-6.0016,-6.0272,-6.0272,-6.0144,-6.0429,-6.0534,-6.0534,-6.0534,-6.1006,-6.1809,-6.1809,-6.221,-6.2794,-6.2548,-6.2179,-6.1779,-6.1532,-6.1163,-6.0978,-6.2333,-6.2825,-6.3041,-6.4457,-6.4888,-6.4888,-6.4888,-6.4888,-6.4888,-6.4888,-6.4888,-6.4888,-6.4888,-6.4888,-6.4888,-6.4888,-6.4888,-6.4888,-6.4888,-6.4888,-6.4888,-6.4888,-6.4888,-6.4764,-6.4303,-6.3995,-6.3287,-6.1748,-6.1101,-6.0147,-5.8362,-5.798,-5.7549,-5.6871,-5.681,-5.681,-5.681,-5.681,-5.681,-5.681,-5.681,-5.681,-5.681,-5.681,-5.681,-5.681,-5.681,-5.681,-5.681,-5.681,-5.7448,-5.8728,-5.9355,-6.0279,-3.6064,0.0,0.0,0.0,0.0,0.0,0.0,0.0,0.0,0.0,0.0,0.0,0.0,0.0,0.0,0.0,0.0,0.0,0.0,0.0,0.0,0.0,0.0,0.0,0.0,0.0,0.0,0.0,0.0,0.0,-5.9099,-5.9099,-5.9099,-5.9099,-5.9261,-5.9476,-5.972,-5.972,-5.972,-5.972,-5.9955,-6.0008,-5.9827,-6.0144,-6.0324,-6.0377,-6.0377,-6.0901,-6.184,-6.2056,-6.2548,-6.3164,-6.3164,-6.2887,-6.2456,-6.224,-6.1717,-6.1317,-6.2702,-6.301,-6.3041,-6.4457,-6.4888,-6.4888,-6.4888,-6.4888,-6.4888,-6.4888,-6.4888,-6.4888,-6.4888,-6.4888,-6.4888,-6.4888,-6.4888,-6.4888,-6.4888,-6.4888,-6.4888,-6.4888,-6.4703,-6.4395,-6.3903,-6.3256,-6.2364,-6.1009,-6.0209,-5.9285,-5.798,-5.7611,-5.7303,-5.6871,-5.681,-5.681,-5.681,-5.681,-5.681,-5.681,-5.681,-5.681,-5.681,-5.681,-5.681,-5.681,-5.681,-5.6954,-5.7258,-5.7258,-5.7746,-5.8683,-5.9631,-6.0567,0.0,0.0,0.0,0.0,0.0,0.0,0.0,0.0,0.0,0.0,0.0,0.0,0.0,0.0,0.0,0.0,0.0,0.0,0.0,0.0,0.0,0.0,0.0,0.0,0.0,0.0,0.0,0.0,-5.871,-5.9069,-5.9099,-5.9099,-5.9099,-5.9099,-5.9099,-5.9099,-5.9099,-5.9099,-5.9099,-5.9099,-5.9369,-5.9476,-5.9529,-5.9827,-6.0144,-6.0377,-6.0377,-6.0901,-6.1787,-6.2464,-6.3171,-6.3787,-6.3787,-6.3787,-6.3694,-6.3102,-6.2425,-6.2025,-6.3349,-6.3379,-6.3071,-6.4457,-6.4888,-6.4888,-6.4888,-6.4888,-6.4888,-6.4888,-6.4888,-6.4888,-6.4888,-6.4888,-6.4888,-6.4888,-6.4888,-6.4888,-6.4888,-6.4888,-6.4857,-6.4857,-6.4303,-6.381,-6.3694,-6.2086,-6.0763,-6.0732,-5.9039,-5.7795,-5.7795,-5.721,-5.681,-5.681,-5.681,-5.681,-5.681,-5.681,-5.681,-5.681,-5.681,-5.681,-5.681,-5.681,-5.681,-5.681,-5.681,-5.7306,-5.8211,-5.8165,-5.8683,-5.9631,-6.0609,-6.1513,-3.4659,0.0,0.0,0.0,0.0,0.0,0.0,0.0,0.0,0.0,0.0,0.0,0.0,0.0,0.0,0.0,0.0,0.0,0.0,0.0,0.0,0.0,0.0,0.0,0.0,0.0,0.0,0.0,-5.8291,-5.859,-5.9069,-5.9099,-5.9099,-5.9099,-5.9099,-5.9099,-5.9099,-5.9099,-5.9099,-5.9099,-5.9369,-5.9422,-5.9207,-5.9529,-5.969,-5.9743,-5.9743,-6.0024,-6.0616,-6.1936,-6.2901,-6.3544,-6.4034,-6.3911,-6.3537,-6.3517,-6.3133,-6.2671,-6.3533,-6.3718,-6.3687,-6.4611,-6.4888,-6.4888,-6.4888,-6.4888,-6.4888,-6.4888,-6.4888,-6.4888,-6.4888,-6.4888,-6.4888,-6.4888,-6.4888,-6.4888,-6.4888,-6.4487,-6.4118,-6.4118,-6.3964,-6.3349,-6.1902,-6.1163,-6.0301,-5.8824,-5.8146,-5.7641,-5.7148,-5.6933,-5.681,-5.681,-5.681,-5.681,-5.681,-5.681,-5.681,-5.681,-5.681,-5.681,-5.681,-5.681,-5.681,-5.681,-5.7495,-5.7933,-5.8211,-5.7543,-5.8363,-6.0652,-6.1554,-6.215,-3.4397,-3.4397,-3.4397,0.0,0.0,0.0,0.0,-3.8251,0.0,0.0,0.0,0.0,0.0,0.0,0.0,0.0,0.0,0.0,0.0,0.0,0.0,0.0,0.0,0.0,0.0,-5.5209,-5.6077,-5.6855,-5.7393,-5.7992,-5.865,-5.8949,-5.9099,-5.9099,-5.9099,-5.9099,-5.9099,-5.9099,-5.9099,-5.9099,-5.9261,-5.9261,-5.9099,-5.9261,-5.9369,-5.9529,-5.9529,-5.972,-6.0107,-6.1467,-6.2366,-6.2903,-6.3878,-6.4056,-6.3856,-6.3966,-6.3701,-6.3349,-6.4026,-6.4087,-6.3933,-6.4672,-6.4888,-6.4888,-6.4888,-6.4888,-6.4888,-6.4888,-6.4888,-6.4888,-6.4888,-6.4888,-6.4888,-6.4888,-6.4888,-6.4888,-6.4888,-6.4334,-6.3841,-6.3841,-6.3133,-6.2179,-6.1009,-6.0086,-5.9131,-5.8011,-5.758,-5.7241,-5.6871,-5.681,-5.681,-5.681,-5.681,-5.681,-5.681,-5.681,-5.681,-5.681,-5.681,-5.681,-5.681,-5.681,-5.7002,-5.7401,-5.7933,-5.8363,-5.8773,-5.8637,-5.9587,-6.1595,-6.2183,-6.2381,-3.4397,-3.4397,-3.4397,-3.4397,0.0,0.0,-3.6306,-3.7702,-3.9098,0.0,0.0,0.0,0.0,0.0,0.0,0.0,0.0,0.0,0.0,0.0,0.0,0.0,0.0,0.0,-5.2995,-5.4162,-5.491,-5.5059,-5.6256,-5.7334,-5.8082,-5.868,-5.9039,-5.9099,-5.9099,-5.9099,-5.9099,-5.9099,-5.9099,-5.9099,-5.9099,-5.9099,-5.9099,-5.9099,-5.9207,-5.9476,-5.9476,-5.9583,-6.0001,-6.1031,-6.1629,-6.2056,-6.339,-6.4132,-6.4326,-6.4382,-6.4181,-6.4026,-6.4672,-6.4487,-6.4057,-6.4703,-6.4888,-6.4888,-6.4888,-6.4888,-6.4888,-6.4888,-6.4888,-6.4888,-6.4888,-6.4888,-6.4888,-6.4888,-6.4888,-6.4888,-6.4795,-6.421,-6.3602,-6.3533,-6.2025,-6.0763,-6.0609,-5.9008,-5.7795,-5.7734,-5.721,-5.681,-5.681,-5.681,-5.681,-5.681,-5.681,-5.681,-5.681,-5.681,-5.681,-5.681,-5.6906,-5.6954,-5.6954,-5.7098,-5.7511,-5.8349,-5.8455,-5.8998,-5.9892,-6.0736,-6.1513,-6.2263,-6.2341,-6.2381,-3.4397,-3.4397,-3.4397,0.0,0.0,0.0,-3.4827,-3.602,-3.7332,0.0,0.0,0.0,0.0,0.0,0.0,0.0,0.0,0.0,0.0,0.0,0.0,0.0,0.0,0.0,-5.2336,-5.2636,-5.3234,-5.4311,-5.5628,-5.6885,-5.8052,-5.8231,-5.856,-5.9099,-5.9099,-5.9099,-5.9099,-5.9099,-5.9099,-5.9099,-5.9099,-5.9099,-5.9099,-5.9099,-5.9153,-5.9153,-5.9153,-5.9207,-5.9381,-6.0676,-6.1353,-6.175,-6.3052,-6.3823,-6.4075,-6.4326,-6.4543,-6.4703,-6.4857,-6.4795,-6.4703,-6.4857,-6.4888,-6.4888,-6.4888,-6.4888,-6.4888,-6.4888,-6.4888,-6.4888,-6.4888,-6.4888,-6.4888,-6.4888,-6.4888,-6.4734,-6.4149,-6.3502,-6.2702,-6.1594,-6.1071,-6.0455,-5.9378,-5.8442,-5.7641,-5.7087,-5.6902,-5.681,-5.681,-5.681,-5.681,-5.681,-5.681,-5.681,-5.681,-5.681,-5.681,-5.681,-5.7495,-5.7933,-5.7933,-5.8637,-5.9145,-5.9323,-6.0065,-6.0903,-6.187,-6.203,-6.183,-6.1309,-6.203,-6.2381,0.0,0.0,0.0,-3.4397,0.0,0.0,0.0,-3.5925,-3.6866,0.0,0.0,0.0,0.0,0.0,0.0,0.0,0.0,0.0,0.0,0.0,0.0,0.0,0.0,0.0,-5.1678,-5.2007,-5.2606,-5.3623,-5.461,-5.5628,-5.6615,-5.6974,-5.7603,-5.859,-5.862,-5.877,-5.9099,-5.9099,-5.9099,-5.9099,-5.9099,-5.9099,-5.9099,-5.9099,-5.9099,-5.9099,-5.9099,-5.9099,-5.9219,-6.0565,-6.116,-6.1447,-6.2769,-6.3595,-6.4049,-6.4132,-6.4499,-6.4888,-6.4888,-6.4888,-6.4888,-6.4888,-6.4888,-6.4888,-6.4888,-6.4888,-6.4888,-6.4888,-6.4888,-6.4888,-6.4888,-6.4888,-6.4888,-6.4888,-6.4888,-6.4703,-6.3995,-6.3287,-6.2425,-6.1071,-6.024,-5.947,-5.8454,-5.7765,-5.721,-5.6871,-5.681,-5.681,-5.681,-5.681,-5.681,-5.681,-5.681,-5.681,-5.681,-5.681,-5.681,-5.681,-5.7258,-5.77,-5.8165,-5.8637,-5.9323,-6.0279,-6.1227,-6.1911,-6.2381,-6.2381,-6.2183,-6.1709,-6.2183,-6.2381,0.0,0.0,0.0,0.0,0.0,-3.4605,0.0,0.0,0.0,0.0,0.0,0.0,0.0,0.0,0.0,0.0,0.0,0.0,0.0,0.0,0.0,0.0,0.0,0.0,0.0,-5.1319,-5.1917,-5.2576,-5.3234,-5.3982,-5.476,-5.5538,-5.6526,-5.7723,-5.7872,-5.8231,-5.8919,-5.8919,-5.8979,-5.9099,-5.9099,-5.9099,-5.9099,-5.9099,-5.9099,-5.9099,-5.9099,-5.9099,-5.9219,-6.0565,-6.1104,-6.1253,-6.257,-6.3481,-6.3993,-6.3993,-6.4387,-6.4888,-6.4888,-6.4888,-6.4888,-6.4888,-6.4888,-6.4888,-6.4888,-6.4888,-6.4888,-6.4888,-6.4888,-6.4888,-6.4888,-6.4888,-6.4888,-6.4888,-6.4888,-6.4672,-6.381,-6.3102,-6.2179,-6.0701,-5.9439,-5.8423,-5.7919,-5.7272,-5.681,-5.681,-5.681,-5.681,-5.681,-5.681,-5.681,-5.681,-5.681,-5.681,-5.681,-5.7002,-5.7067,-5.7067,-5.7401,-5.798,-5.8728,-5.8908,-5.9718,-6.1268,-6.1991,-6.2381,-6.2381,-6.2381,-6.2381,-6.2381,-6.2381,-6.2381,0.0,0.0,0.0,0.0,-3.4397,0.0,0.0,0.0,-3.4842,-3.5479,0.0,0.0,0.0,0.0,0.0,0.0,0.0,0.0,0.0,0.0,0.0,0.0,0.0,0.0,0.0,-4.9599,-4.9883,-5.0465,-5.1152,-5.2097,-5.3354,-5.461,-5.5628,-5.6376,-5.6915,-5.7543,-5.8231,-5.8231,-5.853,-5.9099,-5.9099,-5.9099,-5.9099,-5.9099,-5.9099,-5.9099,-5.9099,-5.9099,-5.9219,-6.0565,-6.1104,-6.1253,-6.257,-6.3481,-6.3993,-6.3993,-6.4387,-6.4888,-6.4888,-6.4888,-6.4888,-6.4888,-6.4888,-6.4888,-6.4888,-6.4888,-6.4888,-6.4888,-6.4888,-6.4888,-6.4888,-6.4888,-6.4888,-6.4888,-6.4888,-6.4549,-6.3225,-6.2394,-6.1348,-5.9378,-5.8393,-5.7919,-5.7826,-5.7272,-5.681,-5.681,-5.681,-5.681,-5.681,-5.681,-5.681,-5.681,-5.681,-5.681,-5.681,-5.759,-5.8026,-5.8026,-5.9587,-6.0567,-6.0694,-6.1473,-6.203,-6.2263,-6.2341,-6.2381,-6.2381,-6.2381,-6.2381,-6.2381,-6.2381,-6.2381,0.0,0.0,0.0,0.0,0.0,0.0,-3.4397,0.0,-3.458,0.0,0.0,0.0,0.0,0.0,0.0,0.0,-4.2121,0.0,0.0,0.0,0.0,0.0,0.0,0.0,0.0,0.0,0.0,0.0,-4.9942,-5.0661,-5.1977,-5.2576,-5.3533,-5.497,-5.5658,-5.6316,-5.6974,-5.7334,-5.7872,-5.853,-5.853,-5.874,-5.9099,-5.9099,-5.9099,-5.9099,-5.9099,-5.9099,-5.9219,-6.0565,-6.1104,-6.1253,-6.257,-6.3367,-6.3709,-6.3709,-6.3993,-6.4387,-6.4524,-6.4635,-6.4635,-6.4832,-6.4888,-6.4888,-6.4888,-6.4888,-6.4888,-6.4888,-6.4888,-6.4888,-6.4888,-6.4888,-6.4888,-6.4888,-6.458,-6.3995,-6.301,-6.1963,-6.0732,-5.9101,-5.8239,-5.7703,-5.7303,-5.6994,-5.681,-5.681,-5.681,-5.681,-5.681,-5.681,-5.681,-5.681,-5.681,-5.681,-5.681,-5.7653,-5.8211,-5.8211,-5.9935,-6.0986,-6.0986,-6.1911,-6.2381,-6.2381,-6.2381,-6.2381,-6.2381,-6.2381,-6.2381,-6.2381,-6.2381,-6.2381,-3.6384,0.0,0.0,0.0,0.0,0.0,0.0,0.0,0.0,0.0,0.0,0.0,0.0,0.0,-3.9239,-4.0432,0.0,-4.1387,0.0,0.0,0.0,0.0,0.0,0.0,0.0,0.0,0.0,-4.8446,-4.8626,-4.9224,-5.0361,-5.093,-5.1887,-5.3354,-5.4192,-5.497,-5.5628,-5.6256,-5.6915,-5.7603,-5.7962,-5.8381,-5.883,-5.9009,-5.9099,-5.9099,-5.9099,-5.9099,-5.9219,-6.0565,-6.1104,-6.1253,-6.257,-6.3252,-6.3424,-6.3481,-6.3766,-6.4132,-6.4326,-6.4437,-6.4579,-6.4832,-6.4888,-6.4888,-6.4888,-6.4888,-6.4888,-6.4888,-6.4888,-6.4888,-6.4888,-6.4888,-6.4888,-6.4888,-6.4364,-6.3656,-6.2948,-6.1594,-6.0178,-5.9008,-5.8085,-5.7395,-5.6902,-5.681,-5.681,-5.681,-5.681,-5.681,-5.681,-5.681,-5.681,-5.681,-5.681,-5.681,-5.681,-5.7887,-5.8818,-5.9355,-6.0652,-6.1391,-6.1391,-6.203,-6.2381,-6.2381,-6.2381,-6.2381,-6.2381,-6.2381,-6.2381,-6.2381,-6.2381,-6.2381,0.0,0.0,0.0,-3.607,0.0,0.0,0.0,0.0,-3.6044,0.0,0.0,0.0,-3.7056,-3.7527,-3.7946,-3.8018,-3.8711,0.0,0.0,0.0,0.0,0.0,0.0,0.0,0.0,0.0,0.0,-4.6381,-4.701,-4.7668,-4.8356,-5.0182,-5.1259,-5.1319,-5.2576,-5.3563,-5.4281,-5.491,-5.5598,-5.6308,-5.7513,-5.8141,-5.8171,-5.88,-5.9099,-5.9099,-5.9099,-5.9099,-5.9219,-6.0565,-6.1104,-6.1253,-6.257,-6.3137,-6.3137,-6.3424,-6.3906,-6.4382,-6.4382,-6.4635,-6.4888,-6.4888,-6.4888,-6.4888,-6.4888,-6.4888,-6.4888,-6.4888,-6.4888,-6.4888,-6.4888,-6.4888,-6.4888,-6.4888,-6.4364,-6.3656,-6.2948,-6.1255,-5.9624,-5.8916,-5.7765,-5.684,-5.681,-5.681,-5.681,-5.681,-5.681,-5.681,-5.681,-5.681,-5.681,-5.681,-5.681,-5.681,-5.681,-5.8501,-6.0322,-6.215,-6.2302,-6.2341,-6.2341,-6.2381,-6.2381,-6.2381,-6.2381,-6.2381,-6.2381,-6.2381,-6.2381,-6.2381,-6.2381,-6.2381,-3.8789,-3.8031,-3.7299,-3.7299,0.0,0.0,0.0,0.0,0.0,0.0,0.0,0.0,-3.8135,-3.8292,-3.8318,-3.7952,-3.8148,-3.8854,0.0,0.0,0.0,0.0,0.0,0.0,0.0,0.0,0.0,-4.5633,-4.6262,-4.695,-4.7608,-4.8686,-4.9464,-4.9912,-5.1199,-5.2007,-5.2217,-5.3324,-5.4431,-5.5538,-5.5957,-5.6615,-5.7453,-5.8141,-5.8471,-5.8471,-5.8919,-5.9099,-5.9219,-6.0565,-6.1104,-6.1253,-6.257,-6.3079,-6.3137,-6.3194,-6.3337,-6.3565,-6.3963,-6.4499,-6.4888,-6.4888,-6.4888,-6.4888,-6.4888,-6.4888,-6.4888,-6.4888,-6.4888,-6.4888,-6.4888,-6.4888,-6.4888,-6.4888,-6.3995,-6.2979,-6.2302,-6.0547,-5.8916,-5.8288,-5.7426,-5.681,-5.681,-5.681,-5.681,-5.681,-5.681,-5.681,-5.681,-5.681,-5.681,-5.681,-5.681,-5.681,-5.681,-5.8546,-6.0397,-6.2302,-6.2381,-6.2381,-6.2381,-6.2381,-6.2381,-6.2381,-6.2381,-6.2381,-6.2381,-6.2381,-6.2381,-6.2381,-6.2381,-6.2381,-3.9886,-3.9207,-3.8501,-3.8501,-3.7926,-3.7351,-3.7351,0.0,-3.8031,0.0,0.0,0.0,-3.9024,-3.8841,-3.8606,-3.824,-3.8031,-3.853,0.0,-4.1893,0.0,0.0,0.0,0.0,0.0,0.0,-4.4706,-4.4915,-4.5364,-4.5992,0.0,-4.7578,-4.8237,-4.894,-4.9972,-5.0631,-5.0823,-5.1947,-5.3025,-5.4132,-5.461,-5.5388,-5.6436,-5.7124,-5.7693,-5.8141,-5.859,-5.889,-5.9219,-6.0565,-6.1104,-6.1253,-6.257,-6.3079,-6.3079,-6.3079,-6.3252,-6.3481,-6.3963,-6.4499,-6.4888,-6.4888,-6.4888,-6.4888,-6.4888,-6.4888,-6.4888,-6.4888,-6.4888,-6.4888,-6.4888,-6.4888,-6.4826,-6.458,-6.3656,-6.2579,-6.1656,-6.0055,-5.8577,-5.7949,-5.7272,-5.681,-5.681,-5.681,-5.681,-5.681,-5.681,-5.681,-5.681,-5.681,-5.681,-5.681,-5.681,-5.6954,-5.7258,-5.8728,-6.0237,-6.183,-6.2223,-6.2381,-6.2381,-6.2381,-6.2381,-6.2381,-6.2381,-6.2381,-6.2381,-6.2381,-6.2381,-6.2381,-6.207,-6.207]}]]